[[{"header":{"parameterUnit":"m.s-1","parameterCategory":1,"la1":30.6,"la2":29.2853,"lo1":-89.7004,"lo2":-87.6739,"dy":0.0162,"dx":0.0183,"nx":112,"ny":82,"refTime":"2026-04-21T12:00:00:Z","depth":0,"parameterNumber":2,"parameterNumberName":"U-component_of_WINDS"},"data":[0.0,0.0,0.0,0.0,0.0,0.0,0.0,0.0,0.0,0.0,0.0,0.0,0.0,0.0,0.0,0.0,0.0,0.0,0.0,0.0,0.0,0.0,0.0,0.0,0.0,0.0,0.0,0.0,0.0,0.0,0.0,0.0,0.0,0.0,0.0,0.0,0.0,0.0,0.0,0.0,0.0,0.0,0.0,0.0,0.0,0.0,0.0,0.0,0.0,0.0,0.0,0.0,0.0,0.0,0.0,0.0,0.0,0.0,0.0,0.0,0.0,0.0,0.0,0.0,0.0,0.0,0.0,0.0,0.0,0.0,0.0,0.0,0.0,0.0,0.0,0.0,0.0,0.0,0.0,0.0,0.0,0.0,0.0,0.0,0.0,0.0,0.0,0.0,0.0,0.0,0.0,-0.8902,-0.9255,-0.9085,-0.8271,-0.7216,-0.5883,-0.4209,0.0,0.0,0.0,0.0,0.0,0.0,0.0,0.0,0.0,0.0,0.0,0.0,0.0,0.0,0.0,0.0,0.0,0.0,0.0,0.0,0.0,0.0,0.0,0.0,0.0,0.0,0.0,0.0,0.0,0.0,0.0,0.0,0.0,0.0,0.0,0.0,0.0,0.0,0.0,0.0,0.0,0.0,0.0,0.0,0.0,0.0,0.0,0.0,0.0,0.0,0.0,0.0,0.0,0.0,0.0,0.0,0.0,0.0,0.0,0.0,0.0,0.0,0.0,0.0,0.0,0.0,0.0,0.0,0.0,0.0,0.0,0.0,0.0,0.0,0.0,0.0,0.0,0.0,0.0,0.0,0.0,0.0,0.0,0.0,0.0,0.0,0.0,0.0,0.0,0.0,0.0,0.0,0.0,0.0,0.0,0.0,0.0,0.0,0.0,0.0,0.0,0.0,0.0,0.0,-0.8419,-0.9615,-0.9536,-0.9081,-0.8261,-0.7215,-0.5898,-0.4211,0.0,0.0,0.0,0.0,0.0,0.0,0.0,0.0,0.0,0.0,0.0,0.0,0.0,0.0,0.0,0.0,0.0,0.0,0.0,0.0,0.0,0.0,0.0,0.0,0.0,0.0,0.0,0.0,0.0,0.0,0.0,0.0,0.0,0.0,0.0,0.0,0.0,0.0,0.0,0.0,0.0,0.0,0.0,0.0,0.0,0.0,0.0,0.0,0.0,0.0,0.0,0.0,0.0,0.0,0.0,0.0,0.0,0.0,0.0,0.0,0.0,0.0,0.0,0.0,0.0,0.0,0.0,0.0,0.0,0.0,0.0,0.0,0.0,0.0,0.0,0.0,0.0,0.0,0.0,0.0,0.0,0.0,0.0,0.0,0.0,0.0,0.0,0.0,0.0,0.0,0.0,0.0,0.0,0.0,0.0,0.0,0.0,0.0,0.0,0.0,0.0,0.0,0.0,-0.8047,-0.8741,-0.9524,-0.9302,-0.8764,-0.7986,-0.6948,-0.5694,-0.4198,-0.3309,0.0,0.0,0.0,0.0,0.0,0.0,0.0,0.0,0.0,0.0,0.0,0.0,0.0,0.0,0.0,0.0,0.0,0.0,0.0,0.0,0.0,0.0,0.0,0.0,0.0,0.0,0.0,0.0,0.0,0.0,0.0,0.0,0.0,0.0,0.0,0.0,0.0,0.0,0.0,0.0,0.0,0.0,0.0,0.0,0.0,0.0,0.0,0.0,0.0,0.0,0.0,0.0,0.0,0.0,0.0,0.0,0.0,0.0,0.0,0.0,0.0,0.0,0.0,0.0,0.0,0.0,0.0,0.0,0.0,0.0,0.0,0.0,0.0,0.0,0.0,0.0,0.0,0.0,0.0,0.0,0.0,0.0,0.0,0.0,0.0,0.0,0.0,0.0,0.0,0.0,0.0,0.0,0.0,0.0,0.0,0.0,0.0,0.0,0.0,0.0,0.0,0.0,-0.8756,-0.8961,-0.9353,-0.9046,-0.8459,-0.7598,-0.6583,-0.5411,-0.4053,-0.2986,0.0,0.0,0.0,0.0,0.0,0.0,0.0,0.0,0.0,0.0,0.0,0.0,0.0,0.0,0.0,0.0,0.0,0.0,0.0,0.0,0.0,0.0,0.0,0.0,0.0,0.0,0.0,0.0,0.0,0.0,0.0,0.0,0.0,0.0,0.0,0.0,0.0,0.0,0.0,0.0,0.0,0.0,0.0,0.0,0.0,0.0,0.0,0.0,0.0,0.0,0.0,0.0,0.0,0.0,0.0,0.0,0.0,0.0,0.0,0.0,0.0,0.0,0.0,0.0,0.0,0.0,0.0,0.0,0.0,0.0,0.0,0.0,0.0,0.0,0.0,0.0,0.0,0.0,0.0,0.0,0.0,0.0,0.0,0.0,0.0,0.0,0.0,0.0,0.0,0.0,0.0,0.0,0.0,0.0,0.0,0.0,0.0,0.0,0.0,0.0,0.0,0.0,-0.9164,-0.9346,-0.9401,-0.9046,-0.8326,-0.7152,-0.6179,-0.5038,-0.3626,-0.2477,0.0,0.0,0.0,0.0,0.0,0.0,0.0,0.0,0.0,0.0,0.0,0.0,0.0,0.0,0.0,0.0,0.0,0.0,0.0,0.0,0.0,0.0,0.0,0.0,0.0,0.0,0.0,0.0,0.0,0.0,0.0,0.0,0.0,0.0,0.0,0.0,0.0,0.0,0.0,0.0,0.0,0.0,0.0,0.0,0.0,0.0,0.0,0.0,0.0,0.0,0.0,0.0,0.0,0.0,0.0,0.0,0.0,0.0,0.0,0.0,0.0,0.0,0.0,0.0,0.0,0.0,0.0,0.0,0.0,0.0,0.0,0.0,0.0,0.0,0.0,0.0,0.0,0.0,0.0,0.0,0.0,0.0,0.0,0.0,0.0,0.0,0.0,0.0,0.0,0.0,0.0,0.0,0.0,0.0,0.0,0.0,0.0,0.0,0.0,0.0,0.0,0.0,-0.9105,-0.9316,0.0,-0.9102,-0.8384,-0.7164,-0.6243,-0.5024,-0.3353,0.0,0.0,0.0,0.0,0.0,0.0,0.0,0.0,0.0,0.0,0.0,0.0,0.0,0.0,0.0,0.0,0.0,0.0,0.0,0.0,0.0,0.0,0.0,0.0,0.0,0.0,0.0,0.0,0.0,0.0,0.0,0.0,0.0,0.0,0.0,0.0,0.0,0.0,0.0,0.0,0.0,0.0,0.0,0.0,0.0,0.0,0.0,0.0,0.0,0.0,0.0,0.0,0.0,0.0,0.0,0.0,0.0,0.0,0.0,0.0,0.0,0.0,0.0,0.0,0.0,0.0,0.0,0.0,0.0,0.0,0.0,0.0,0.0,0.0,0.0,0.0,0.0,0.0,0.0,0.0,0.0,0.0,0.0,0.0,0.0,0.0,0.0,0.0,0.0,0.0,0.0,0.0,0.0,0.0,0.0,0.0,0.0,0.0,0.0,0.0,0.0,0.0,-0.8796,-0.9218,-0.947,0.0,-0.9274,-0.8569,-0.7212,-0.6215,-0.4936,-0.3204,0.0,0.0,0.0,0.0,0.0,0.0,0.0,0.0,0.0,0.0,0.0,0.0,0.0,0.0,0.0,0.0,0.0,0.0,0.0,0.0,0.0,0.0,0.0,0.0,0.0,0.0,0.0,0.0,0.0,0.0,0.0,0.0,0.0,0.0,0.0,0.0,0.0,0.0,0.0,0.0,0.0,0.0,0.0,0.0,0.0,0.0,0.0,0.0,0.0,0.0,0.0,0.0,0.0,0.0,0.0,0.0,0.0,0.0,0.0,0.0,0.0,0.0,0.0,0.0,0.0,0.0,0.0,0.0,0.0,0.0,0.0,0.0,0.0,0.0,0.0,0.0,0.0,0.0,0.0,0.0,0.0,0.0,0.0,0.0,0.0,0.0,0.0,0.0,0.0,0.0,0.0,0.0,0.0,0.0,0.0,0.0,0.0,0.0,0.0,0.0,0.0,0.0,-0.885,-0.9553,-0.9892,-0.9537,-0.9558,-0.8922,-0.7246,-0.6056,-0.4746,0.0,0.0,0.0,0.0,0.0,0.0,0.0,0.0,0.0,0.0,0.0,0.0,0.0,0.0,0.0,0.0,0.0,0.0,0.0,0.0,0.0,0.0,0.0,0.0,0.0,0.0,0.0,0.0,0.0,0.0,0.0,0.0,0.0,0.0,0.0,0.0,0.0,0.0,0.0,0.0,0.0,0.0,0.0,0.0,0.0,0.0,0.0,0.0,0.0,0.0,0.0,0.0,0.0,0.0,0.0,0.0,0.0,0.0,0.0,0.0,0.0,0.0,0.0,0.0,0.0,0.0,0.0,0.0,0.0,0.0,0.0,0.0,0.0,0.0,0.0,0.0,0.0,0.0,0.0,0.0,0.0,0.0,0.0,0.0,0.0,0.0,0.0,0.0,0.0,0.0,0.0,0.0,0.0,0.0,0.0,0.0,0.0,0.0,0.0,0.0,0.0,0.0,0.0,0.0,-0.9743,-1.0179,-1.0471,-0.9967,-0.9047,-0.7705,-0.6426,-0.4848,-0.2869,0.0,0.0,0.0,0.0,0.0,0.0,0.0,0.0,0.0,0.0,0.0,0.0,0.0,0.0,0.0,0.0,0.0,0.0,0.0,0.0,0.0,0.0,0.0,0.0,0.0,0.0,0.0,0.0,0.0,0.0,0.0,0.0,0.0,0.0,0.0,0.0,0.0,0.0,0.0,0.0,0.0,0.0,0.0,0.0,0.0,0.0,0.0,0.0,0.0,0.0,0.0,0.0,0.0,0.0,0.0,0.0,0.0,0.0,0.0,0.0,0.0,0.0,0.0,0.0,0.0,0.0,0.0,0.0,0.0,0.0,0.0,0.0,0.0,0.0,0.0,0.0,0.0,0.0,0.0,0.0,0.0,0.0,0.0,0.0,0.0,0.0,0.0,0.0,0.0,0.0,0.0,0.0,0.0,0.0,0.0,0.0,0.0,0.0,0.0,0.0,0.0,0.0,-0.9045,-0.9689,-1.0234,-1.0578,-1.0169,-0.9318,-0.7928,-0.6841,-0.5264,-0.2946,0.0,0.0,0.0,0.0,0.0,0.0,0.0,0.0,0.0,0.0,0.0,0.0,0.0,0.0,0.0,0.0,0.0,0.0,0.0,0.0,0.0,0.0,0.0,0.0,0.0,0.0,0.0,0.0,0.0,0.0,0.0,0.0,0.0,0.0,0.0,0.0,0.0,0.0,0.0,0.0,0.0,0.0,0.0,0.0,0.0,0.0,0.0,0.0,0.0,0.0,0.0,0.0,0.0,0.0,0.0,0.0,0.0,0.0,0.0,0.0,0.0,0.0,0.0,0.0,0.0,0.0,0.0,0.0,0.0,0.0,0.0,0.0,0.0,0.0,0.0,0.0,0.0,0.0,0.0,0.0,0.0,0.0,0.0,0.0,0.0,0.0,0.0,0.0,0.0,0.0,0.0,0.0,0.0,0.0,0.0,0.0,0.0,0.0,0.0,0.0,0.0,0.0,-0.8718,-0.9525,-1.014,-1.0276,-1.0285,-0.962,-0.7979,-0.728,-0.5839,-0.3324,0.0,0.0,0.0,0.0,0.0,0.0,0.0,0.0,0.0,0.0,0.0,0.0,0.0,0.0,0.0,0.0,0.0,0.0,0.0,0.0,0.0,0.0,0.0,0.0,0.0,0.0,0.0,0.0,0.0,0.0,0.0,0.0,0.0,0.0,0.0,0.0,0.0,0.0,0.0,0.0,0.0,0.0,0.0,0.0,0.0,0.0,0.0,0.0,0.0,0.0,0.0,0.0,0.0,0.0,0.0,0.0,0.0,0.0,0.0,0.0,-1.1523,0.0,0.0,0.0,0.0,0.0,0.0,0.0,0.0,0.0,0.0,0.0,0.0,0.0,0.0,0.0,0.0,0.0,0.0,0.0,0.0,0.0,0.0,0.0,0.0,0.0,0.0,0.0,0.0,0.0,0.0,0.0,0.0,0.0,0.0,0.0,0.0,0.0,0.0,0.0,0.0,0.0,-0.9021,-0.9679,-1.0287,-1.0788,-1.0522,-0.9715,-0.8244,-0.7464,-0.6062,-0.3717,0.0,0.0,0.0,0.0,0.0,0.0,0.0,0.0,0.0,0.0,0.0,0.0,0.0,0.0,0.0,0.0,0.0,0.0,0.0,0.0,0.0,0.0,0.0,0.0,0.0,0.0,0.0,0.0,0.0,0.0,0.0,0.0,0.0,0.0,0.0,0.0,0.0,0.0,0.0,0.0,0.0,0.0,0.0,0.0,0.0,0.0,0.0,0.0,0.0,0.0,0.0,0.0,0.0,0.0,0.0,0.0,0.0,0.0,0.0,0.0,0.0,-1.3119,0.0,0.0,0.0,0.0,0.0,0.0,0.0,0.0,0.0,0.0,0.0,0.0,0.0,0.0,0.0,0.0,0.0,0.0,0.0,0.0,0.0,0.0,0.0,0.0,0.0,0.0,0.0,0.0,0.0,0.0,0.0,0.0,0.0,0.0,0.0,0.0,0.0,0.0,0.0,0.0,-0.9197,-0.9968,-1.0517,-1.0654,-1.0448,-0.9733,-0.8307,-0.7866,-0.6659,-0.4382,-0.3407,0.0,0.0,0.0,0.0,0.0,0.0,0.0,0.0,0.0,0.0,0.0,0.0,0.0,0.0,0.0,0.0,0.0,0.0,0.0,0.0,0.0,0.0,0.0,0.0,0.0,0.0,0.0,0.0,0.0,0.0,0.0,0.0,0.0,0.0,0.0,0.0,0.0,0.0,0.0,0.0,0.0,0.0,0.0,0.0,0.0,0.0,0.0,0.0,0.0,0.0,0.0,0.0,0.0,0.0,0.0,-2.1283,-2.0773,-2.132,-2.2402,-1.8296,-1.685,-1.7164,0.0,0.0,0.0,0.0,0.0,0.0,0.0,0.0,0.0,0.0,0.0,0.0,0.0,0.0,0.0,0.0,0.0,0.0,0.0,0.0,0.0,0.0,0.0,0.0,0.0,-0.8832,-0.8659,0.0,0.0,0.0,0.0,0.0,0.0,0.0,0.0,0.0,0.0,0.0,0.0,-0.941,-1.0234,-1.0655,-1.0331,-1.0293,-0.9752,-0.8408,-0.8248,-0.7271,-0.5131,-0.4236,-0.3176,0.0,0.0,0.0,0.0,0.0,0.0,0.0,0.0,0.0,0.0,0.0,0.0,0.0,0.0,0.0,0.0,0.0,0.0,0.0,0.0,0.0,0.0,0.0,0.0,0.0,0.0,0.0,0.0,0.0,0.0,0.0,0.0,-1.3645,-1.4975,0.0,0.0,0.0,0.0,0.0,0.0,0.0,0.0,0.0,0.0,0.0,0.0,0.0,0.0,-2.1516,-2.3466,-2.4124,-2.3481,-2.3596,-2.4106,-2.4868,-2.3667,-2.3843,-2.5044,-2.3837,0.0,-2.026,-1.8379,0.0,0.0,0.0,0.0,0.0,0.0,0.0,0.0,0.0,0.0,0.0,0.0,0.0,0.0,0.0,0.0,0.0,0.0,0.0,0.0,0.0,0.0,-1.1281,-1.1183,-1.1157,-1.0919,0.0,-0.8499,-0.7174,-0.6731,0.0,0.0,0.0,0.0,0.0,0.0,0.0,0.0,-0.9934,-1.0161,-1.0298,-1.0292,-1.0293,-0.9864,-0.8738,-0.8379,-0.7506,-0.586,-0.4732,-0.3753,-0.292,-0.1699,0.0,0.0,0.0,0.0,0.0,0.0,0.0,0.0,0.0,0.0,0.0,0.0,0.0,0.0,0.0,0.0,0.0,0.0,0.0,0.0,0.0,0.0,0.0,0.0,0.0,0.0,0.0,0.0,0.0,-1.3782,-1.5651,-1.6234,-1.6383,-1.6293,0.0,0.0,0.0,0.0,0.0,0.0,0.0,0.0,0.0,-2.1122,-2.1454,-2.1986,-2.277,-2.4585,-2.5495,-2.5488,-2.5467,-2.6318,-2.7778,-2.6322,-2.6458,-2.7829,-2.753,-2.6594,-2.5006,-2.1373,-1.9554,-1.897,0.0,0.0,0.0,0.0,0.0,0.0,-1.5368,0.0,0.0,0.0,0.0,0.0,0.0,0.0,0.0,0.0,0.0,0.0,0.0,0.0,0.0,-1.161,-1.1606,-1.1508,-1.1095,-1.0331,-0.9313,0.0,-0.827,-0.8332,-0.7133,0.0,0.0,0.0,0.0,0.0,-1.0114,-1.0449,-1.0567,-1.0331,-1.0293,-0.9863,-0.8805,-0.8575,-0.7846,-0.6389,-0.5222,-0.4253,-0.3461,-0.2261,-0.1196,0.0,0.0,0.0,0.0,0.0,0.0,0.0,0.0,0.0,0.0,0.0,0.0,0.0,0.0,0.0,0.0,0.0,0.0,0.0,0.0,0.0,0.0,0.0,0.0,0.0,0.0,0.0,0.0,-1.6174,-1.7712,-1.7712,-1.8476,-1.8655,0.0,0.0,0.0,0.0,0.0,0.0,-2.1015,-2.1855,-2.2682,-2.3442,-2.3809,-2.4148,-2.4461,-2.583,-2.673,-2.7185,-2.7305,-2.8272,-2.9841,-2.8705,-2.8768,-2.9739,-2.9811,-2.9445,-2.8521,-2.419,-2.2328,-2.2064,-2.0753,-2.0235,0.0,-2.0541,-1.9754,-1.8516,-1.8624,-1.7267,-1.5315,-1.4217,0.0,-1.2536,-1.0934,0.0,0.0,0.0,0.0,-1.2067,-1.2141,0.0,-1.2074,-1.2074,-1.2074,-1.2015,-1.18,-1.1839,-1.1389,0.0,-0.9804,-0.9804,-0.8184,0.0,0.0,0.0,0.0,-1.019,-1.038,-1.0642,-1.0677,-1.0332,-1.0293,-0.9863,-0.8805,-0.8704,-0.8129,-0.6801,-0.5657,-0.4726,-0.4044,-0.2833,-0.1642,0.0,0.0,0.0,0.0,0.0,0.0,0.0,0.0,0.0,0.0,0.0,0.0,0.0,0.0,0.0,0.0,0.0,0.0,0.0,0.0,0.0,0.0,0.0,0.0,0.0,0.0,0.0,0.0,0.0,0.0,-2.0509,-2.1635,0.0,0.0,0.0,0.0,-2.3208,-2.3903,-2.4511,-2.4972,-2.502,-2.5518,-2.6635,-2.6556,-2.7046,-2.814,-2.9044,-2.9375,-2.9275,-3.014,-3.0543,-3.0571,-3.0867,-3.067,-3.0094,-3.0333,-3.0103,-2.9382,-2.723,-2.595,-2.5239,-2.3917,-2.3379,-2.3314,-2.2907,-2.2198,-2.1328,-2.0264,-1.9032,-1.7808,-1.7174,-1.5832,-1.4475,-1.4345,-1.3909,0.0,0.0,-1.3395,-1.356,-1.388,-1.3691,-1.3418,-1.3418,-1.3418,-1.3184,-1.234,-1.252,-1.2563,0.0,-1.0821,-1.0273,-1.0156,0.0,0.0,-1.0214,-1.0228,-1.038,-1.0876,-1.0581,-1.0312,-1.0293,-1.0293,-0.9863,-0.8805,-0.8704,-0.8218,-0.7064,-0.6038,-0.528,-0.4864,-0.3429,-0.2224,-0.1261,-0.0547,0.0,0.0,0.0,0.0,0.0,0.0,0.0,0.0,0.0,0.0,0.0,0.0,0.0,0.0,0.0,0.0,0.0,0.0,0.0,0.0,0.0,0.0,0.0,0.0,0.0,0.0,0.0,0.0,-2.317,-2.4388,0.0,0.0,-2.4687,-2.5295,-2.5531,-2.648,-2.688,-2.6501,-2.7116,-2.7364,-2.7152,-2.7447,-2.7793,-2.8201,-2.9092,-2.9483,-2.9381,-2.9731,-3.046,-3.1561,-3.1139,-3.1429,-3.2252,-3.1743,-3.1514,-3.1302,-2.9576,-2.8338,-2.744,-2.6537,-2.6177,-2.6093,-2.5509,-2.4825,-2.4028,-2.2758,-2.1433,-2.0064,-1.8588,-1.7522,-1.6651,-1.5794,-1.5394,-1.5013,-1.4156,-1.3893,-1.3957,-1.4069,-1.3997,-1.388,-1.388,-1.388,-1.3802,-1.349,-1.3334,-1.3184,-1.2871,-1.2367,-1.1702,-1.084,-1.0805,-1.0765,-1.0382,-1.0285,-1.0326,-1.0524,-1.039,-1.0293,-1.0293,-1.0293,-1.0,-0.927,-0.8906,-0.8286,-0.7315,-0.6149,-0.5222,-0.4611,-0.3616,-0.2521,-0.1317,-0.0955,-0.0358,0.0,0.0,0.0,0.0,0.0,0.0,0.0,0.0,0.0,0.0,0.0,0.0,0.0,0.0,0.0,0.0,0.0,0.0,0.0,0.0,0.0,0.0,0.0,0.0,0.0,0.0,-2.5106,-2.5555,-2.72,-2.7919,-2.7021,-2.7739,-2.836,-2.8578,-2.9343,-2.9489,-2.8848,-2.9375,-2.9292,-2.8395,-2.8557,-2.8674,-2.8674,-2.9252,-2.9544,-2.9544,-2.9879,-3.0458,-3.1337,-3.1483,-3.2065,-3.2873,-3.264,-3.2507,-3.2281,-3.1199,-3.0068,-2.8968,-2.8456,-2.8274,-2.8214,-2.7794,-2.7178,-2.6299,-2.4499,-2.3096,-2.185,-2.0129,-1.9244,-1.8645,-1.78,-1.7185,-1.656,-1.5652,-1.5127,-1.4785,-1.4785,-1.464,-1.4504,-1.4367,-1.4328,-1.4289,-1.4133,-1.3899,-1.3646,-1.3535,-1.3047,-1.2383,-1.1482,-1.1465,-1.141,-1.0821,-1.0606,-1.0488,-1.0488,-1.0391,-1.0293,-1.0293,-1.0293,-1.0079,-0.9547,-0.9007,-0.8367,-0.7613,-0.6511,-0.5546,-0.4799,-0.4052,-0.3061,-0.1798,-0.1335,-0.0778,-0.01,0.0,0.0,0.0,0.0,0.0,0.0,0.0,0.0,0.0,0.0,0.0,0.0,0.0,0.0,0.0,0.0,0.0,0.0,0.0,0.0,0.0,0.0,0.0,-2.3759,-2.6027,-2.7705,-2.7735,-3.0043,-3.1092,-2.9864,-3.0911,-3.1899,-3.2557,-3.2647,-3.2522,-3.2323,-3.1904,-3.1303,-3.0536,-3.01,-2.9868,-2.9843,-2.9843,-2.9804,-2.9804,-3.0733,-3.0696,-2.9908,-3.2076,-3.2551,-3.1716,-3.2937,-3.2958,-3.2137,-3.2105,-3.1189,-2.9813,-2.9695,-2.9627,-2.9597,-2.9624,-2.9098,-2.8025,-2.54,-2.4023,-2.3244,-2.2,-2.1067,-2.0471,-2.0418,-1.9342,-1.8098,-1.8047,-1.7124,-1.6165,-1.6146,-1.5772,-1.5332,-1.4902,-1.4833,-1.4687,-1.4231,-1.4133,-1.4016,-1.3633,-1.2847,-1.2262,-1.2223,-1.1875,-1.1626,-1.1626,-1.1211,0.0,-1.0918,-1.0566,-1.0332,-1.0352,-1.0332,-1.0098,-0.9585,-0.9065,-0.85,-0.7946,-0.7089,-0.6279,-0.5527,-0.4828,-0.3889,-0.2755,-0.1696,-0.1146,-0.1129,0.0,0.0,0.0,0.0,0.0,0.0,0.0,0.0,0.0,0.0,0.0,0.0,0.0,0.0,0.0,0.0,0.0,0.0,0.0,0.0,0.0,0.0,-2.723,-2.723,-2.8667,-3.0073,-3.1031,-3.2647,-3.3514,-3.3186,-3.3903,-3.4681,-3.534,-3.54,-3.5278,-3.4987,-3.4104,-3.356,-3.344,-3.1798,-3.1131,-3.1536,-3.0749,-3.0181,-2.9804,-3.0062,-3.0419,-3.082,-3.1449,-3.2337,-3.3317,-3.2976,-3.2834,-3.2762,-3.2039,-3.1203,-3.04,-3.063,-3.0423,-3.0134,-3.0236,-2.9451,-2.8196,-2.688,-2.5686,-2.4563,-2.3628,-2.2875,-2.2214,-2.1265,-2.0647,-2.0128,-1.9194,-1.8244,-1.7409,-1.7107,-1.6497,-1.5811,-1.5332,-1.5234,-1.5215,-1.505,-1.4824,-1.457,-1.4453,-1.3958,-1.3393,-1.2812,-1.2344,-1.2051,-1.2051,0.0,0.0,-1.1408,-1.0996,-1.088,-1.1214,-1.0939,-1.0681,-1.0519,-1.0027,-0.9264,0.0,-0.7516,-0.6671,-0.5546,-0.5314,-0.4637,-0.344,-0.2845,-0.2288,0.0,0.0,0.0,0.0,0.0,0.0,0.0,0.0,0.0,0.0,0.0,0.0,0.0,0.0,0.0,0.0,0.0,0.0,0.0,0.0,0.0,0.0,-2.8427,-3.0522,-3.136,-3.1898,-3.2557,-3.3634,-3.4921,-3.5699,-3.5699,-3.6058,-3.6477,-3.6836,-3.6866,-3.6811,-3.6588,-3.5596,-3.5122,-3.5187,-3.3143,-3.2213,-3.2511,-3.1238,-3.0457,-3.0131,-2.9905,-3.0101,-3.062,-3.1007,-3.1829,0.0,-3.3052,-3.2821,-3.2271,-3.2096,-3.1178,0.0,0.0,0.0,0.0,0.0,-2.9172,-2.8131,-2.7324,-2.6398,-2.5345,-2.4589,-2.3954,-2.3335,-2.2616,-2.1983,-2.1263,-2.0167,-1.906,-1.8124,-1.7544,-1.6868,-1.623,-1.5781,-1.5684,-1.5644,-1.5449,-1.5215,-1.5,-1.4824,0.0,0.0,-1.3281,-1.293,-1.2691,-1.2539,-1.2129,-1.1836,0.0,-1.1467,-1.1211,-1.131,-1.1055,-1.084,-1.0664,-1.0158,0.0,0.0,0.0,-0.7022,-0.5722,0.0,0.0,0.0,0.0,0.0,0.0,0.0,0.0,0.0,-0.1481,-0.1251,0.0,0.0,0.0,0.0,0.0,0.0,0.0,0.0,0.0,0.0,0.0,0.0,0.0,0.0,0.0,0.0,-3.1569,-3.3514,-3.5459,-3.525,-3.513,-3.5639,-3.6776,-3.7524,-3.7524,-3.7584,-3.7584,-3.7524,-3.7524,-3.7494,-3.7404,0.0,0.0,0.0,0.0,-3.3185,-3.3169,-3.1508,-3.0633,-3.0507,-3.003,-2.9804,-2.9818,-3.0658,-3.1119,-3.1278,-3.2947,-3.2735,-3.1241,-3.2092,-3.1043,-2.8949,-2.9476,-2.969,-2.9733,-2.9191,-2.864,0.0,0.0,0.0,0.0,-2.5141,-2.4531,-2.4079,-2.4079,-2.3182,-2.1972,-2.1192,-2.0004,-1.8754,-1.7918,-1.7315,-1.6774,-1.6281,-1.6124,-1.5987,-1.5566,-1.5449,-1.5293,-1.4922,-1.4891,-1.459,-1.3789,-1.3574,-1.3359,-1.2974,-1.2559,0.0,-1.2281,-1.1914,-1.1526,-1.1172,0.0,0.0,-1.0469,-0.9957,-0.9603,-0.9507,-0.85,-0.7375,-0.6218,-0.5884,-0.5552,-0.5206,-0.5165,-0.5094,-0.5015,-0.4996,-0.4691,-0.4098,-0.2937,-0.246,0.0,0.0,0.0,0.0,0.0,0.0,0.0,0.0,0.0,0.0,0.0,0.0,0.0,0.0,0.0,-3.1453,-3.3634,-3.5429,-3.6836,-3.7375,-3.7494,-3.7075,-3.7734,-3.8212,-3.8212,-3.8721,-3.8811,-3.8242,-3.8212,-3.7973,-3.7434,-3.6908,0.0,-3.7937,-3.5631,-3.4339,-3.4283,-3.2278,-3.0809,-2.9955,0.0,0.0,-2.9804,-3.0011,-3.0495,-3.1204,-3.1573,-3.1536,-3.1204,-3.1389,-3.0444,-2.8875,-2.8786,-2.9194,-2.9733,-2.9191,-2.8919,-2.8711,-2.7845,-2.7182,-2.6579,-2.5732,-2.5084,-2.4625,-2.4625,-2.4154,0.0,-2.3399,-2.2327,-2.0996,-1.9745,-1.8817,-1.7954,-1.6857,-1.6328,-1.6065,-1.5987,-1.5664,-1.5391,-1.5312,-1.5293,-1.5137,-1.4629,-1.3965,-1.3359,-1.2974,-1.2812,-1.2754,-1.2754,-1.2363,-1.2207,-1.2461,-1.1878,-1.1428,-1.1371,-1.0913,-1.0302,-0.9565,-0.85,-0.7884,-0.7824,-0.7371,-0.7071,-0.6998,-0.6744,-0.6308,-0.5709,-0.559,-0.5312,-0.4863,-0.4033,-0.3422,0.0,0.0,0.0,0.0,0.0,0.0,0.0,0.0,0.0,0.0,0.0,-2.4152,-2.5787,0.0,-3.1279,-3.3378,-3.5518,-3.7165,-3.7793,-3.8482,-3.8661,-3.7973,-3.8482,-3.8901,-3.8901,-3.92,-3.926,-3.8931,-3.8571,-3.8242,-3.7913,-3.7695,-3.7836,-3.8392,-3.649,-3.5286,-3.4989,-3.2618,-3.0984,-3.0206,-2.993,-2.9804,-2.9804,-2.9804,-3.0088,-3.0533,-3.1007,-3.0932,-3.0495,-3.0495,-3.0037,-2.9315,-2.885,-2.8802,-2.8881,-2.8336,-2.8158,-2.8065,-2.7333,-2.6915,-2.6616,-2.6181,-2.5661,-2.5209,-2.5209,-2.4833,-2.426,-2.355,-2.2846,-2.1886,-2.0058,-1.9276,-1.8621,-1.7342,-1.6894,-1.6633,-1.6183,-1.5608,-1.5098,-1.4843,-1.4805,-1.4674,-1.4279,-1.4168,-1.3926,-1.3301,-1.3203,-1.3125,-1.2935,-1.2695,-1.2559,-1.2559,-1.2168,-1.1719,-1.1291,-1.084,-1.0289,-0.9547,-0.8744,-0.8229,-0.8102,-0.7544,-0.7241,-0.7241,-0.7073,-0.6822,-0.6453,-0.6391,-0.6103,-0.5636,-0.528,-0.4771,0.0,0.0,0.0,0.0,0.0,0.0,0.0,0.0,-2.2175,-2.3351,-2.5179,-2.6954,-2.817,-3.0754,-3.3259,-3.4988,-3.684,-3.821,-3.8536,-3.908,-3.92,-3.8661,-3.908,-3.9373,-3.9373,-3.9373,-3.9379,-3.923,-3.8691,-3.8332,-3.8212,-3.8332,-3.8392,-3.8392,-3.7062,-3.5975,-3.5266,-3.2764,-3.116,-3.0457,-3.0005,-2.9804,-2.9804,-2.9804,-2.9804,-2.9818,-3.0582,-3.0495,-2.9804,-2.9804,-2.9804,-2.9754,-2.9239,-2.8825,-2.8348,-2.7695,-2.7369,-2.7253,-2.6801,-2.6575,-2.6499,-2.6499,-2.6172,-2.5762,-2.5762,-2.5385,-2.4696,-2.3579,-2.3119,-2.2503,-2.0478,-1.9747,-1.9237,-1.8054,-1.7573,-1.722,-1.6496,-1.5588,-1.4811,-1.4424,-1.4148,-1.3868,-1.3537,-1.4031,-1.4277,-1.3698,-1.3555,-1.3379,-1.3071,-1.2954,-1.2778,-1.2379,-1.2262,-1.1872,-1.1094,-1.0665,-1.0213,-0.9796,-0.9102,-0.8573,-0.8307,-0.7532,-0.7177,-0.7317,-0.7177,-0.7108,-0.7108,-0.7033,-0.6774,-0.6349,-0.6349,-0.5974,-1.8983,-1.8782,-1.9233,-2.069,-2.1117,-2.2246,0.0,0.0,-2.6298,-2.7835,-2.8787,-2.9643,-3.0624,-3.1501,-3.3105,-3.6102,-3.6785,-3.7507,-3.9056,-3.9343,-3.9379,-3.932,-3.9343,-3.9373,-3.9373,-3.9373,-3.917,-3.8542,-3.8422,-3.8123,-3.7554,-3.8063,-3.8392,-3.8392,-3.7288,-3.6079,-3.4705,-3.2856,-3.1229,-2.988,-2.9829,-2.9804,-2.9804,-2.9804,-2.9804,-2.9804,-2.9895,-2.9895,-2.9804,-2.9804,-2.9804,-2.9779,-2.9729,-2.9654,-2.9478,-2.8398,-2.7695,-2.7268,-2.7253,-2.6901,-2.6499,-2.6499,-2.6449,-2.6399,-2.6399,-2.5963,-2.5452,-2.5336,-2.4603,-2.361,-2.2591,-2.138,-2.0214,-1.9312,-1.8233,-1.7363,-1.7298,-1.6002,-1.4883,-1.4847,-1.39,-1.3114,-1.308,-1.3124,-1.3374,-1.3938,-1.3724,-1.3496,-1.3437,-1.3105,-1.2895,-1.2837,-1.2461,-1.2031,-1.1545,-1.1115,-1.0819,-1.0758,-0.9465,-0.898,-0.9639,-0.8238,-0.7783,-0.8485,-0.7819,-0.7437,-0.7437,-0.7148,-0.6985,-0.6922,-0.6922,-0.6337,-2.2418,-2.2142,-2.2246,0.0,-2.4607,-2.5837,-2.7695,-2.8247,-2.8699,-2.9704,-3.0608,-3.1307,-3.1698,-3.2736,-3.4007,0.0,-3.6059,-3.694,-3.8264,-3.7927,-3.7633,-3.7945,-3.8274,-3.8694,-3.9337,-3.9373,-3.914,-3.8452,-3.8392,-3.8093,-3.7434,-3.8033,-3.8392,-3.8392,-3.7718,-3.6937,-3.6012,-3.3718,-3.2147,-3.1176,-3.057,-3.0105,-2.9804,-3.0131,-3.0105,-2.9804,-2.9804,-2.9804,-2.9804,-2.9804,-2.9804,-2.9804,-2.9804,-2.9804,-2.9704,-2.8875,-2.8423,-2.8197,-2.7871,-2.7394,-2.6977,-2.6977,-2.6751,-2.6499,-2.6499,-2.6323,-2.6072,-2.5686,-2.5285,-2.4589,-2.3087,-2.2271,-2.1403,-1.9681,-1.8899,-1.8286,-1.7573,-1.6435,-1.5317,-1.4316,-1.3703,-1.3132,-1.2428,-1.2704,-1.3121,-1.3415,-1.3268,-1.3246,-1.3458,-1.3145,-1.2915,-1.2915,-1.25,-1.2125,-1.1973,-1.1543,-1.131,-1.131,-1.0175,-0.9593,-0.9758,-0.8462,-0.7809,-0.8007,-0.7494,-0.7201,-0.7201,-0.706,-0.7006,-0.7006,-0.7006,-0.674,-2.4249,-2.4406,-2.4707,-2.5787,-2.7318,-2.8649,-2.895,-2.9754,-3.0608,-3.1185,-3.1788,-3.2215,-3.2215,-3.3187,-3.411,-3.4413,-3.5211,-3.6132,-3.7214,-3.6543,-3.6136,-3.6513,-3.7011,-3.768,-3.8648,-3.9145,-3.92,-3.8721,-3.8691,-3.8452,-3.8003,-3.8422,-3.8691,-3.8691,-3.8216,-3.7651,-3.7003,-3.4899,-3.3353,-3.2405,-3.1616,-3.0885,-3.0231,-3.0507,-3.0306,-2.9804,-2.9804,-2.988,-3.0005,-2.9854,-2.988,-3.0005,-2.9854,-2.9804,-2.9754,-2.9327,-2.9038,-2.8838,-2.8473,-2.7971,-2.7494,-2.7344,-2.7052,-2.67,-2.6549,-2.6499,-2.6399,-2.5996,-2.5711,-2.5278,-2.3872,-2.3103,-2.2286,-2.0621,-1.9757,-1.906,-1.8127,-1.6973,-1.5668,-1.4193,-1.3541,-1.2917,-1.177,-1.1995,-1.2397,-1.2642,-1.2522,-1.2629,-1.3242,-1.3078,-1.2915,-1.2915,-1.2598,-1.2379,-1.2379,-1.1992,-1.176,-1.176,-1.0835,-1.0201,-0.995,-0.8804,-0.8077,-0.7824,-0.7441,-0.7246,-0.7246,-0.7246,-0.7246,-0.7246,-0.7246,-0.7246,-2.3296,-2.433,-2.5812,-2.6942,-2.8499,-3.0005,-3.106,-3.1738,-3.2315,-3.2893,-3.2591,-3.2215,-3.2215,-3.2215,-3.2631,-3.3685,-3.4362,-3.5102,-3.6093,-3.5753,-3.546,-3.5432,-3.5804,-3.631,0.0,-3.8486,-3.9373,-3.9379,-3.9379,-3.9343,-3.9313,-3.9379,-3.9379,-3.9379,-3.8715,-3.7931,-3.7003,-3.6266,-3.4938,-3.2987,-3.2948,-3.2356,-3.1311,-3.0834,-3.0306,-2.9804,-2.9804,-3.0105,-3.0557,-3.0005,-3.0105,-3.0532,-3.0005,-2.9804,-2.9804,-2.9779,-2.9402,-2.8888,-2.8863,-2.8512,-2.7996,-2.7444,-2.7268,-2.7203,-2.665,-2.6499,-2.6499,-2.6474,-2.6072,-2.5586,-2.5528,-2.4116,-2.2694,-2.2606,-2.0894,-1.9309,-1.9255,-1.7578,-1.5829,-1.4849,-1.3472,-1.2143,-1.1179,-1.0838,-1.0919,-1.1703,-1.145,-1.1575,-1.2757,-1.2921,-1.2915,-1.2915,-1.2895,-1.2895,-1.2895,-1.2461,-1.2184,-1.2184,-1.1307,-1.0709,-1.0593,-0.9473,-0.882,-0.8657,-0.8132,-0.7872,-0.7872,-0.7872,-0.7872,-0.7872,-0.7872,-0.7872,-2.5435,-2.6565,-2.7695,-2.9553,-3.0708,-3.1587,-3.234,-3.2641,-3.2742,-3.2541,-3.2064,-3.1562,-3.121,-3.116,-3.1382,-3.2092,-3.2669,-3.353,-3.4981,-3.4451,-3.3852,-3.3816,-3.4573,0.0,0.0,0.0,0.0,-3.8751,-3.917,-3.923,-3.8751,-3.917,-3.9373,-3.9373,-3.92,-3.8907,-3.8582,-3.7296,-3.5957,-3.459,-3.2803,-3.193,-3.1913,-3.1386,-3.0834,-3.0331,-3.0331,-3.0231,-3.0055,-2.9854,-2.9905,-3.0055,-2.9854,-2.9804,-2.9804,-2.9804,-2.9679,-2.9503,-2.9503,-2.9126,-2.8587,-2.8423,-2.8122,-2.772,-2.7168,-2.6579,-2.5983,-2.5608,-2.4874,-2.4119,-2.3793,-2.3707,-2.3216,-2.1297,-2.1228,-2.0994,-1.8872,-1.8322,-1.7703,-1.5983,-1.4715,-1.3518,-1.2167,-1.1326,-1.109,-1.1716,-1.1888,-1.1933,-1.1856,-1.1843,-1.1917,-1.2141,-1.2153,-1.2369,-1.2847,-1.2778,-1.2656,-1.2656,-1.2084,-1.144,-1.0767,-0.9894,-0.9151,-0.8497,-0.8102,-0.7912,-0.7912,-0.7912,-0.7912,-0.7912,-0.7912,-0.7912,-2.7268,-2.8423,-2.9428,-3.1235,-3.2114,-3.2616,-3.2993,-3.2918,-3.2591,-3.2039,-3.116,-3.0357,-2.9829,-2.9553,-2.9729,-3.0658,-3.1286,-3.2212,-3.3882,-3.3335,-3.2786,-3.2717,-3.3485,-3.3832,0.0,0.0,0.0,-3.8155,-3.8924,-3.923,-3.8781,-3.917,-3.9373,-3.9373,-3.9373,-3.9373,-3.9373,-3.8384,-3.7135,-3.5659,-3.3566,-3.2453,-3.2215,-3.1838,-3.1286,-3.0608,-3.0608,-3.0407,-3.008,-2.988,-2.9905,-3.0055,-2.9854,-2.9804,-2.9804,-2.9804,-2.9804,-2.9804,-2.9804,-2.9553,-2.9202,-2.8963,-2.8662,-2.8298,-2.7745,-2.7,-2.6214,-2.5481,-2.4704,-2.3859,-2.3158,-2.3312,-2.3213,-2.1324,-2.1307,-2.1119,-1.9117,-1.8765,-1.8308,-1.6606,-1.5682,-1.4664,-1.3007,-1.1746,-1.1084,-1.1339,-1.157,-1.1744,-1.1698,-1.1557,-1.1487,-1.1609,-1.1829,-1.212,-1.2486,-1.2749,-1.2915,-1.2915,-1.2617,-1.1961,-1.0864,-1.0343,-0.96,-0.8549,-0.8337,-0.8218,-0.8218,-0.8218,-0.8218,-0.8218,-0.8218,-0.8218,-2.8662,-2.979,-3.0959,-3.1989,-3.2667,-3.3111,-3.3043,-3.2591,-3.1989,-3.1361,-2.993,-2.8624,0.0,0.0,-2.7795,-2.9453,-3.0231,-3.121,-3.2842,-3.2591,-3.224,0.0,0.0,0.0,0.0,0.0,0.0,-3.752,0.0,-3.9228,-3.9228,-3.9301,-3.9301,-3.9301,-3.9373,-3.9373,-3.9373,-3.9337,-3.8256,-3.6212,-3.5156,-3.3851,-3.2265,-3.2265,-3.1687,-3.0708,-3.0708,-3.0683,-3.0608,-3.008,-3.0156,-3.0557,-3.003,-2.9804,-2.9804,-2.9804,-2.9804,-2.9804,-2.9804,-2.9804,-2.9704,-2.9113,-2.8938,-2.8838,-2.8323,-2.7734,-2.7094,-2.6033,-2.5324,-2.4623,-2.3599,-2.3022,-2.2631,-2.2573,-2.1272,-1.9988,-1.9844,-1.892,-1.7803,-1.6853,-1.6353,-1.5493,-1.3642,-1.2048,-1.0967,-1.0653,-1.06,-1.1009,-1.2148,-1.1894,-1.1538,-1.129,-1.1833,-1.2112,-1.1805,-1.2474,-1.2861,-1.2861,-1.2891,-1.2264,-1.0864,-1.0788,-1.0167,-0.8831,-0.8804,-0.8804,-0.8804,-0.8804,-0.8804,-0.8804,-0.8804,-0.8804,-2.9779,-3.0984,-3.1964,-3.2692,-3.3011,-3.2968,-3.2541,-3.2014,-3.1085,-2.9302,-2.7946,-2.67,0.0,0.0,0.0,-2.8323,-3.003,0.0,-3.2893,-3.2943,0.0,-3.2265,0.0,-3.2911,-3.2631,-3.3971,0.0,0.0,-3.6436,-3.6993,-3.6993,-3.7776,-3.8219,-3.8219,-3.898,-3.9373,-3.9373,-3.862,-3.7548,-3.6212,-3.5156,-3.4085,-3.2867,-3.2867,-3.2466,-3.1813,-3.1813,-3.1562,-3.1185,-3.1035,-3.0834,-3.0608,-3.0457,-3.0156,-2.9804,-2.9804,-2.9804,-2.9804,-2.9804,-2.9804,-2.9754,-2.9628,-2.9578,-2.9478,-2.8863,-2.8113,-2.7042,-2.5223,-2.41,-2.3129,-2.1686,-2.1765,-2.1914,-2.0859,-2.1322,-2.1436,-1.9384,-1.9176,-1.9063,-1.7876,-1.6812,-1.5493,-1.3642,-1.2621,-1.1772,-1.1019,-1.0734,-1.0604,-1.0685,-1.0573,-1.0609,-1.0844,-1.101,-1.1296,-1.1676,-1.2158,-1.243,-1.243,-1.2725,-1.2264,-1.0864,-1.0788,-1.0167,-0.8831,-0.8804,-0.8804,-0.8804,-0.8804,-0.8804,-0.8804,-0.8804,-0.8804,-3.0984,-3.1938,-3.2667,-3.2993,-3.2893,-3.2416,-3.1386,-3.0532,-2.9252,-2.6816,-2.541,0.0,-2.3125,-2.3853,0.0,0.0,0.0,0.0,-3.286,-3.3111,-3.2943,0.0,-3.2867,0.0,-3.2616,-3.3436,-3.3995,0.0,-3.5359,-3.6212,-3.6212,-3.676,-3.7291,-3.7805,-3.8397,-3.8907,-3.9373,-3.836,-3.7252,-3.6212,-3.5156,-3.4163,-3.3111,-3.3111,-3.2767,-3.2215,0.0,-3.1913,-3.1386,-3.1386,-3.121,-3.0959,-3.0959,-3.0633,-3.0156,-3.0156,-3.0005,-2.9804,-2.9804,-2.9804,-2.9804,-2.9804,-2.9804,-2.9729,-2.9402,-2.8721,-2.769,-2.5554,-2.4255,-2.3093,-2.1331,-2.1112,-2.1199,-2.0407,-2.0846,-2.1074,-1.9515,-1.9242,-1.9087,-1.8154,-1.7098,-1.5924,-1.4746,-1.3557,-1.2561,-1.1931,-1.1223,-1.072,-1.0528,-1.0394,-1.0346,-1.0447,-1.0697,-1.0971,-1.1246,-1.1748,-1.219,-1.2538,-1.2761,-1.258,-1.1835,-1.1351,-1.0619,-0.9567,-0.9057,-0.8804,-0.8804,-0.8804,-0.8804,-0.8804,-0.8804,-0.8804,-3.2164,-3.2692,-3.3111,-3.3111,-3.2591,-3.1687,-3.0055,-2.8699,-2.6992,-2.423,0.0,-2.182,-2.1267,-2.1794,-2.3376,-2.664,0.0,-2.998,-3.2734,-3.3111,-3.3111,-3.3111,-3.3111,-3.3111,-3.3111,-3.3111,-3.3111,-3.3111,-3.4774,-3.5774,-3.5774,-3.5934,-3.6487,-3.7548,-3.7587,-3.8032,-3.898,-3.8069,-3.706,-3.6013,-3.5142,-3.4163,-3.3111,-3.3111,-3.2792,-3.2315,0.0,0.0,-3.1612,-3.1612,-3.1562,-3.1486,-3.1486,-3.1185,-3.0708,-3.0633,-3.0306,-2.9905,-2.9804,-2.9804,-2.9804,-2.9804,-2.9804,-2.9804,-2.9804,-2.9428,-2.8584,-2.6579,-2.5312,-2.404,-2.1948,-2.1056,-2.0683,-2.0625,-2.0273,-1.998,-1.9922,-1.9241,-1.8559,-1.8184,-1.7395,-1.6729,-1.626,-1.478,-1.35,-1.3021,-1.1973,-1.1214,-1.1082,-1.0801,-1.0492,-1.0207,-1.0699,-1.093,-1.0726,-1.1267,-1.1913,-1.2626,-1.2729,-1.2804,-1.2941,-1.193,-1.1145,-1.0565,-0.9477,-0.8925,-0.8925,-0.8925,-0.8925,-0.8925,-0.8925,-0.8925,-3.2767,-3.2993,-3.3111,-3.3111,-3.229,-3.111,-2.9453,-2.7494,0.0,0.0,-2.1016,-2.0087,-1.9534,-2.0989,-2.3251,-2.6172,-2.8323,-3.0457,-3.2742,-3.3111,-3.3111,0.0,0.0,0.0,0.0,0.0,0.0,0.0,0.0,0.0,-3.3615,-3.4511,-3.544,-3.6448,-3.6487,-3.6565,-3.676,-3.6565,-3.5974,-3.4979,-3.4774,-3.4163,-3.3111,-3.3111,-3.3018,-3.2918,0.0,0.0,-3.2835,-3.2835,-3.2491,-3.2064,-3.2064,-3.1738,-3.121,-3.0758,-3.0557,-3.0407,-2.9955,-2.9804,-2.9804,-2.9804,-2.9804,-2.9804,-2.9804,-2.9729,-2.9297,-2.766,-2.6401,-2.5098,-2.3136,-2.1847,-2.1016,-2.0703,-2.0546,-2.0352,-1.998,-1.9531,-1.9043,-1.8578,-1.834,-1.7872,-1.6695,-1.6009,-1.507,-1.3462,-1.2833,-1.2256,-1.1458,-1.0889,-1.0573,-1.0519,-1.06,-1.068,-1.0626,-1.0971,-1.124,-1.1387,-1.1728,-1.1986,-1.2097,-1.128,-1.0844,-1.0816,-0.9967,-0.9526,-0.9526,-0.9526,-0.9526,-0.9526,-0.9526,-0.9526,-3.2918,-3.3111,-3.3111,-3.3111,-3.2014,-3.0407,-2.8147,0.0,0.0,0.0,-1.9133,-1.8455,-1.8204,-1.9736,0.0,-2.433,-2.6113,-2.8273,-3.1361,-3.1537,0.0,0.0,0.0,0.0,0.0,0.0,0.0,0.0,0.0,0.0,0.0,-3.4121,-3.4938,-3.54,-3.5934,-3.6212,-3.6212,-3.5654,-3.5156,-3.4718,-3.4121,-3.3598,-3.3111,-3.3111,-3.3111,-3.3111,0.0,0.0,0.0,-3.3111,-3.2918,-3.2667,-3.2667,-3.1911,-3.088,-3.1007,-3.0447,-2.9577,-2.908,-2.8949,-2.8806,-2.8251,-2.887,-2.9804,-2.9804,-2.9804,-2.9535,-2.8216,-2.6843,-2.5472,-2.3972,-2.2372,-2.1132,-2.0977,-2.0742,-2.0488,-2.0,-1.9746,-1.9492,-1.9062,-1.8965,-1.8686,-1.7785,-1.7105,-1.614,-1.452,-1.3612,-1.276,-1.179,-1.1276,-1.0955,-1.0827,-1.068,-1.0586,-1.0586,-1.0764,-1.1036,-1.1449,-1.1645,-1.1966,-1.2451,-1.1546,-1.1047,-1.1105,-1.0176,-0.9715,-0.9715,-0.9715,-0.9715,-0.9715,-0.9715,-0.9715,-3.2918,-3.3111,-3.3111,-3.3111,-3.1738,-2.9704,-2.6952,-2.4456,0.0,0.0,-1.7576,-1.7202,-1.7192,-1.8433,-2.016,0.0,-2.391,-2.6104,-2.9905,-3.0256,-3.0859,0.0,0.0,0.0,0.0,0.0,0.0,0.0,0.0,0.0,0.0,-3.3911,-3.4345,-3.4345,-3.5116,-3.5534,-3.5534,-3.4733,-3.4345,-3.4345,-3.3513,-3.3111,-3.3111,-3.3111,-3.3111,-3.3111,0.0,0.0,0.0,-3.3111,-3.3111,-3.3111,-3.3111,-3.2007,-3.052,-3.0901,-2.9966,-2.8386,-2.7911,-2.7763,-2.7602,-2.6748,-2.7689,-2.9131,-2.9365,-2.9443,-2.9248,-2.8347,-2.7082,-2.5654,-2.4507,-2.2839,-2.1424,-2.1249,-2.0977,-2.0586,-2.0156,-2.0059,-1.9922,-1.9512,-1.9434,-1.9277,-1.8812,-1.8033,-1.7063,-1.582,-1.4516,-1.3364,-1.2422,-1.1844,-1.1436,-1.1209,-1.0948,-1.0747,-1.0693,-1.068,-1.0939,-1.15,-1.1531,-1.1903,-1.2704,-1.1707,-1.1241,-1.1406,-1.0413,-0.9903,-0.9903,-0.9903,-0.9903,-0.9903,-0.9903,-0.9903,-3.2918,-3.3111,-3.3111,-3.3111,-3.1461,-2.9126,-2.6314,0.0,-2.084,-1.8052,-1.6999,-1.6573,-1.6497,-1.7526,-1.9058,-2.1204,-2.3387,-2.6013,-2.9402,-3.0658,-3.1687,0.0,0.0,0.0,0.0,0.0,0.0,0.0,0.0,0.0,0.0,-3.3197,-3.324,-3.324,-3.3368,-3.3386,-3.3386,-3.3283,-3.324,-3.324,-3.3154,-3.3111,-3.3111,-3.3111,-3.3111,-3.3111,0.0,0.0,0.0,-3.3111,-3.3111,-3.3111,-3.3111,-3.205,-3.052,-3.0103,-2.8883,-2.7344,-2.6806,-2.6648,-2.6648,-2.6524,-2.6648,-2.6976,-2.7988,-2.8267,-2.8203,-2.8124,-2.7296,-2.6099,-2.4592,-2.3305,-2.2207,-2.1385,-2.1171,-2.1055,-2.0605,-2.0546,-2.041,-1.9941,-1.9863,-1.9727,-1.9297,-1.8835,-1.8154,-1.7171,-1.589,-1.466,-1.3657,-1.2535,-1.1859,-1.1832,-1.1516,-1.1236,-1.0969,-1.0955,-1.09,-1.0726,-1.0713,-1.1076,-1.1888,-1.1111,-1.1003,-1.172,-1.0944,-1.0506,-1.0506,-1.0506,-1.0506,-1.0506,-1.0506,-1.0506,-3.224,-3.2817,-3.2993,-3.2641,-3.0909,-2.8549,-2.5762,0.0,-2.0339,-1.7901,-1.6923,-1.6485,-1.6465,-1.7142,-1.8208,-1.9698,-2.0727,-2.2468,-2.5837,-2.6967,-2.8348,0.0,0.0,0.0,0.0,0.0,0.0,0.0,0.0,0.0,0.0,0.0,-3.342,-3.3136,-3.3111,-3.3111,-3.3111,-3.3111,-3.3111,-3.3111,-3.3111,-3.3111,-3.3111,-3.3111,-3.3111,0.0,0.0,0.0,0.0,-3.3111,-3.2867,-3.2566,-3.2566,-3.1107,-2.8991,-2.9182,-2.795,-2.6066,-2.5635,-2.5462,-2.5378,-2.4681,-2.4425,-2.4808,-2.6584,-2.7116,-2.7116,-2.7116,-2.6337,-2.5335,-2.4724,-2.3549,-2.2363,-2.1777,-2.1426,-2.1151,-2.1016,-2.0762,-2.0546,-2.037,-2.0312,-2.0176,-1.9746,-1.9531,-1.8891,-1.7442,-1.6759,-1.5743,-1.3912,-1.3273,-1.2769,-1.2204,-1.1703,-1.1349,-1.1263,-1.1249,-1.1209,-1.1089,-1.0915,-1.1052,-1.1544,-1.0934,-1.0907,-1.1544,-1.0921,-1.068,-1.0854,-1.0854,-1.0854,-1.0854,-1.0854,-1.0854,-3.1204,-3.2139,-3.2491,-3.2064,-3.0306,-2.7935,0.0,-2.2548,-2.0013,-1.7649,-1.6798,-1.6457,-1.6259,-1.6738,-1.743,-1.8338,-1.8909,-2.0413,-2.3778,-2.4858,0.0,0.0,0.0,0.0,0.0,0.0,0.0,0.0,0.0,0.0,0.0,0.0,-3.3822,-3.3093,-3.3111,-3.3111,-3.3111,-3.3111,-3.3111,-3.3111,-3.3111,-3.3111,-3.3111,-3.3111,-3.3111,0.0,0.0,0.0,0.0,-3.3111,-3.2842,-3.2466,-3.229,-3.0683,-2.8477,-2.8435,-2.7046,-2.5119,-2.4485,-2.4296,-2.4168,-2.3343,-2.3101,-2.3387,-2.502,-2.5714,-2.6005,-2.6005,-2.5168,-2.4296,-2.4296,-2.3493,-2.2598,-2.2107,-2.1775,-2.1442,-2.1089,-2.0779,-2.0605,-2.0586,-2.0605,-2.0507,-2.0156,-2.0,-1.9483,-1.8174,-1.7661,-1.6699,-1.4715,-1.413,-1.3521,-1.2537,-1.1984,-1.1615,-1.157,-1.1557,-1.1516,-1.1402,-1.1236,-1.1209,-1.1389,-1.1035,-1.1009,-1.1389,-1.1022,-1.0915,-1.1116,-1.1116,-1.1116,-1.1116,-1.1116,-1.1116,-2.9959,-3.1009,-3.1411,-3.1411,-2.9729,-2.7394,-2.4632,-2.23,-1.9912,-1.7077,-1.65,-1.6303,-1.5732,-1.6107,-1.6675,-1.7243,-1.8708,-2.0966,-2.4299,-2.5762,0.0,0.0,0.0,0.0,0.0,0.0,0.0,0.0,0.0,0.0,0.0,0.0,-3.4198,-3.3119,-3.3111,-3.3111,-3.3111,-3.3111,-3.3111,-3.3111,-3.3111,-3.3111,-3.3111,-3.3111,0.0,0.0,0.0,0.0,0.0,-3.3111,-3.3111,-3.3061,-3.2441,-3.1238,-2.9587,-2.7954,-2.6254,-2.4638,-2.3517,-2.3144,-2.3144,-2.3101,-2.3101,-2.3101,-2.3144,-2.393,-2.483,-2.483,-2.4016,-2.3144,-2.3144,-2.3101,-2.2964,-2.2431,-2.2291,-2.1997,-2.0845,-2.0595,-2.0579,-2.0586,-2.0605,-2.0605,-2.0605,-2.0195,-1.9865,-1.9865,-1.8751,-1.7505,-1.6325,-1.5128,-1.3968,-1.2898,-1.2478,-1.2171,-1.1926,-1.1899,-1.1744,-1.1415,-1.1389,-1.1389,-1.1389,-1.1389,-1.1389,-1.1389,-1.1389,-1.1389,-1.1389,-1.1389,-1.1389,-1.1389,-1.1389,-1.1389,-2.5241,-2.6684,-2.7529,-2.6871,-2.5995,-2.4682,-2.23,-2.0589,-1.8982,-1.6926,-1.65,-1.6457,-1.6238,-1.6367,-1.7182,-1.928,-2.0084,-2.1292,-2.3904,0.0,0.0,0.0,0.0,0.0,0.0,0.0,0.0,0.0,0.0,0.0,0.0,0.0,0.0,-3.3093,-3.3111,-3.3111,-3.3111,-3.3111,-3.3111,-3.3111,-3.3111,-3.3111,-3.3111,0.0,0.0,0.0,0.0,0.0,0.0,-3.3111,-3.2842,-3.2441,-3.1863,-3.063,-2.8976,-2.7345,-2.5928,-2.4617,-2.3517,-2.3101,-2.3101,-2.3101,-2.3101,-2.3101,-2.3101,-2.3343,-2.3627,-2.3627,-2.3387,-2.3101,-2.3101,-2.3101,-2.3062,-2.2882,-2.284,-2.267,-2.1942,-2.0583,-1.9436,-1.9142,-1.9483,-1.9465,-1.8514,-1.8888,-1.8942,-1.7877,-1.7334,-1.6602,-1.5281,-1.4774,-1.4152,-1.3184,-1.2824,-1.2516,-1.2184,-1.2171,-1.2131,-1.2037,-1.1837,-1.1824,-1.2011,-1.1602,-1.1575,-1.2011,-1.1588,-1.153,-1.173,-1.173,-1.173,-1.173,-1.173,-1.173,-2.1864,-2.3618,-2.4566,-2.3962,-2.3353,-2.2485,-2.0708,-1.9456,-1.8281,-1.6801,-1.65,-1.65,-1.65,-1.65,-1.7202,-1.9409,-1.9937,-2.0966,0.0,0.0,0.0,0.0,0.0,0.0,0.0,0.0,0.0,0.0,0.0,0.0,0.0,0.0,0.0,-3.3136,-3.3111,-3.3111,-3.3111,-3.3111,-3.3111,-3.3111,-3.3111,-3.3111,-3.3111,0.0,0.0,0.0,0.0,0.0,0.0,-3.3111,-3.2867,-3.2491,-3.1913,-3.0927,-2.9666,-2.8011,-2.6824,-2.5817,-2.4296,-2.3757,-2.3671,-2.3256,-2.3101,-2.3101,-2.3101,-2.3101,-2.3101,-2.3101,-2.3101,-2.3101,-2.3101,-2.3101,-2.3101,-2.3101,-2.3118,-2.3008,-2.2663,-2.1344,-1.9685,-1.7805,-1.8628,-1.9171,-1.7721,-1.808,-1.8187,-1.7077,-1.6947,-1.6468,-1.5193,-1.4939,-1.4485,-1.3454,-1.3106,-1.2891,-1.2665,-1.2438,-1.2305,-1.2305,-1.2131,-1.2118,-1.2291,-1.1957,-1.1931,-1.2291,-1.1944,-1.185,-1.2074,-1.2074,-1.2074,-1.2074,-1.2074,-1.2074,0.0,-2.1316,-2.2102,-2.208,-2.1471,-2.0575,-1.9547,-1.8653,0.0,-1.666,-1.6479,-1.6525,-1.6651,-1.6626,-1.7002,-1.8329,-1.8958,-2.0437,0.0,0.0,0.0,0.0,0.0,0.0,0.0,0.0,0.0,0.0,0.0,0.0,0.0,0.0,0.0,0.0,-3.3111,-3.3111,-3.3111,-3.3111,-3.3111,-3.3111,-3.3111,-3.3111,-3.3111,0.0,0.0,0.0,0.0,0.0,0.0,-3.3111,-3.3111,-3.3061,-3.2441,-3.1863,-3.1188,-2.9535,-2.8536,-2.7804,-2.5566,-2.4787,-2.4617,-2.3474,-2.3101,-2.3101,-2.3101,-2.3101,-2.3101,-2.3101,-2.3101,-2.3101,-2.3101,-2.3101,-2.3101,-2.3101,-2.3101,-2.309,-2.3097,-2.2703,-2.1065,-1.6757,-1.811,-1.9449,-1.7851,-1.7676,-1.7604,-1.7179,-1.7115,-1.6714,-1.5741,-1.5375,-1.4819,-1.3749,-1.3373,-1.324,-1.324,-1.2705,-1.2371,-1.2371,-1.2371,-1.2371,-1.2371,-1.2371,-1.2371,-1.2371,-1.2371,-1.2371,-1.2371,-1.2371,-1.2371,-1.2371,-1.2371,-1.2371,-1.4995,0.0,-1.7391,-1.7024,-1.7243,-1.7338,0.0,-1.6668,-1.6639,-1.5965,-1.6194,-1.6876,-1.818,-1.7752,-1.8229,-2.1415,-2.2067,-2.302,0.0,0.0,0.0,0.0,0.0,0.0,0.0,0.0,0.0,0.0,0.0,0.0,0.0,0.0,0.0,0.0,-3.3111,-3.3111,-3.3111,-3.3111,-3.3111,-3.3111,-3.3111,-3.3111,0.0,0.0,0.0,0.0,0.0,0.0,0.0,-3.3111,-3.3111,-3.3061,-3.2441,-3.1863,-3.1188,-2.9535,-2.8536,-2.7804,-2.5566,-2.4787,-2.4617,-2.3474,-2.3101,-2.3101,-2.3101,-2.3101,-2.3101,-2.3101,-2.3101,-2.3101,-2.3101,-2.3101,-2.3101,-2.3101,-2.3101,-2.3125,-2.309,-2.3013,-2.1813,-1.7994,-1.8261,-1.8353,-1.6037,-1.6316,-1.6592,-1.566,-1.5317,-1.5091,-1.479,-1.4529,-1.4267,-1.4017,-1.3721,-1.3507,-1.3507,-1.32,-1.2999,-1.2999,-1.2999,-1.2999,-1.2999,-1.2999,-1.2999,-1.2999,-1.2999,-1.2999,-1.2999,-1.2999,-1.2999,-1.2999,-1.2999,-1.2999,-1.3629,-1.4631,-1.5599,-1.5355,-1.569,-1.5981,-1.5669,-1.5813,-1.5955,-1.5669,-1.6086,-1.6851,-1.8053,-1.8204,-1.8982,-2.1568,-2.2874,0.0,0.0,0.0,0.0,0.0,0.0,0.0,0.0,0.0,0.0,0.0,0.0,0.0,0.0,0.0,0.0,0.0,0.0,-3.3111,-3.3111,-3.3111,-3.3111,-3.3111,-3.3111,-3.3111,0.0,0.0,0.0,0.0,0.0,0.0,-3.3111,-3.3111,-3.3111,-3.3086,-3.2742,-3.2265,-3.1655,-3.0728,-3.0057,-2.9326,-2.7364,-2.5846,-2.4617,-2.3474,-2.3101,-2.3101,-2.3101,-2.3101,-2.3101,-2.3101,-2.3101,-2.3101,-2.3101,-2.3101,-2.3101,-2.3101,-2.3101,-2.3101,-2.3101,-2.311,-2.2069,-1.8665,-1.8607,-1.8277,-1.5659,-1.5635,-1.5805,-1.5111,-1.4874,-1.4723,-1.4723,-1.4469,-1.4282,-1.4282,-1.4028,-1.3841,-1.3841,-1.3707,-1.3494,-1.3227,-1.3213,-1.3213,-1.3213,-1.2711,-1.2433,-1.2433,-1.1902,-1.2114,-1.3213,-1.2671,-1.2671,-1.3213,-1.3213,-1.3213,-1.4065,-1.484,-1.5595,-1.5347,-1.553,-1.5737,-1.5789,-1.5843,-1.586,-1.586,-1.6352,-1.7027,-1.8001,-1.8832,0.0,0.0,0.0,0.0,0.0,0.0,0.0,0.0,0.0,0.0,0.0,0.0,0.0,0.0,0.0,0.0,0.0,0.0,0.0,0.0,0.0,0.0,-3.3111,-3.3111,-3.3111,-3.3111,-3.3111,-3.3111,-3.3111,0.0,0.0,0.0,0.0,0.0,-3.3111,-3.3111,-3.3111,-3.3111,-3.3111,-3.2717,-3.2173,-3.198,-3.1589,-3.0877,-2.9017,-2.6741,-2.4464,-2.345,-2.3101,-2.3101,-2.3101,-2.3101,-2.3101,-2.3101,-2.3101,-2.3101,-2.3101,-2.3101,-2.3101,-2.3101,-2.3101,-2.3101,-2.3101,-2.3101,-2.2189,-1.906,-1.905,-1.8623,-1.5915,-1.5458,-1.5378,-1.5182,-1.5102,-1.5075,-1.5075,-1.4776,-1.4589,-1.4589,-1.4362,-1.4229,-1.4229,-1.4175,-1.3935,-1.344,-1.3373,-1.3347,-1.3347,-1.2426,-1.1809,-1.1647,-1.0621,-1.1079,-1.3053,-1.2103,-1.2224,-1.3347,-1.3347,-1.3347,-1.5243,-1.6056,-1.6432,-1.507,-1.53,-1.5956,-1.6221,-1.668,-1.7027,-1.7027,-1.7504,-1.8681,-2.1117,-2.1317,-2.2096,0.0,0.0,0.0,0.0,0.0,0.0,0.0,0.0,0.0,0.0,0.0,0.0,0.0,0.0,0.0,0.0,0.0,0.0,0.0,0.0,0.0,0.0,-3.3111,-3.3111,-3.3111,-3.3111,-3.3111,-3.3111,-3.3111,0.0,0.0,0.0,0.0,-3.3111,-3.3111,-3.3111,-3.3111,-3.3111,-3.2717,-3.2089,-3.1064,-3.0343,-2.9498,-2.6843,-2.5065,-2.388,-2.3306,-2.3101,-2.3101,-2.3101,-2.3101,-2.3101,-2.3101,-2.3101,-2.3101,-2.3101,-2.3101,-2.3101,-2.3101,-2.3101,-2.3101,-2.3101,-2.3101,-2.2359,-1.9827,-1.9434,-1.8702,-1.6176,-1.5718,-1.5704,-1.5698,-1.5484,-1.5337,-1.5337,-1.5115,-1.4941,-1.4941,-1.4901,-1.4874,-1.4874,-1.4603,-1.4416,-1.4322,-1.4095,-1.3948,-1.3948,-1.3781,-1.321,-1.2216,-1.1993,-1.2078,-1.2427,-1.2247,-1.2777,-1.3948,-1.3948,-1.3948,-1.5162,-1.5998,-1.6829,-1.6497,-1.7153,-1.7948,-1.8289,-1.8772,-1.9068,-1.9068,-1.957,-2.0464,-2.202,0.0,-2.4808,-2.8147,0.0,0.0,0.0,0.0,0.0,0.0,0.0,0.0,0.0,0.0,0.0,0.0,0.0,0.0,0.0,0.0,0.0,0.0,0.0,0.0,0.0,-3.204,-3.2438,-3.3068,-3.237,-3.2413,-3.3111,-3.3111,-3.3111,0.0,0.0,-3.3111,-3.3111,-3.3111,-3.3111,-3.3111,-3.3111,-3.2918,-3.2539,-3.1259,-3.0074,-2.8781,-2.6881,-2.5706,-2.4856,-2.3791,-2.3496,-2.3437,-2.3159,-2.3101,-2.3101,-2.3101,-2.3101,-2.3101,-2.3101,-2.3101,-2.3101,-2.3101,-2.3101,-2.3101,-2.3101,-2.3101,-2.2403,-1.9951,-1.9497,-1.8718,-1.6244,-1.5784,-1.5784,-1.5784,-1.5712,-1.5631,-1.5631,-1.5378,-1.5204,-1.5204,-1.5102,-1.5008,-1.5008,-1.4843,-1.4629,-1.4309,-1.4162,-1.3815,-1.3154,-1.3124,-1.2601,-1.1381,-1.0778,-1.0778,-1.1381,-1.1381,-1.1992,-1.3167,-1.393,-1.4322,-1.5658,-1.6348,-1.739,-1.8253,-1.8963,-1.9774,-2.0927,-2.12,-2.1355,-2.1872,-2.2253,-2.2673,0.0,-2.5285,0.0,0.0,0.0,0.0,0.0,0.0,0.0,0.0,0.0,0.0,0.0,0.0,0.0,0.0,0.0,0.0,0.0,0.0,0.0,0.0,0.0,0.0,0.0,-3.1089,-3.1267,-3.2196,-3.1223,-3.1468,-3.2655,-3.2655,-3.2828,-3.3111,-3.3111,-3.3111,-3.3111,-3.3111,-3.3111,-3.3068,-3.2785,-3.2283,-3.1689,-3.0732,-2.9308,-2.7793,-2.6836,-2.6197,-2.5665,-2.438,-2.3945,-2.3848,-2.3418,-2.3257,-2.3218,-2.312,-2.3101,-2.3101,-2.3101,-2.3101,-2.3101,-2.3101,-2.3101,-2.3101,-2.3101,-2.3101,-2.2448,-2.0359,-1.9679,-1.881,-1.6622,-1.6021,-1.5784,-1.5784,-1.5784,-1.5784,-1.5784,-1.5631,-1.5498,-1.5498,-1.5297,-1.5137,-1.5115,-1.5115,-1.4888,-1.4322,-1.4295,-1.3883,-1.2954,-1.2954,-1.238,-1.1249,-1.0338,-1.0338,-1.1205,-1.1205,-1.1815,-1.2954,-1.4104,-1.4629,-1.7989,-1.822,-1.855,-1.9591,-1.9619,-2.0279,-2.3684,-2.3654,-2.351,-2.5653,-2.5661,-2.5636,-2.6716,-2.875,0.0,0.0,0.0,0.0,0.0,0.0,0.0,0.0,0.0,0.0,0.0,0.0,0.0,0.0,0.0,0.0,0.0,0.0,0.0,0.0,0.0,0.0,0.0,0.0,-2.9579,-2.967,-2.9579,-3.0169,-3.1356,-3.1356,-3.1952,-3.3111,-3.3111,-3.3111,-3.3111,-3.3111,-3.3111,-3.2982,-3.1821,-2.9943,-2.8002,-2.7908,-2.701,-2.5867,-2.5405,-2.5181,-2.5083,-2.4512,-2.4375,-2.4297,-2.3867,-2.375,-2.3652,-2.3198,-2.3101,-2.3101,-2.3101,-2.3101,-2.3101,-2.3101,-2.3101,-2.3101,-2.3101,-2.3101,-2.2731,-2.1436,-2.0268,-1.9085,-1.7777,-1.6574,-1.5784,-1.5784,-1.5784,-1.5784,-1.5784,-1.5758,-1.5744,-1.5744,-1.5731,-1.5658,-1.5391,-1.5364,-1.5231,-1.4968,-1.4941,-1.4897,-1.4807,-1.4807,-1.4257,-1.3017,-1.2926,-1.2926,-1.3017,-1.3017,-1.3615,-1.4807,-1.4923,-1.4981,-1.7097,-1.8471,-1.9921,-2.0284,-2.1583,-2.3207,-2.4918,-2.5265,-2.5917,-2.8087,-2.8348,-2.8448,-2.9227,0.0,0.0,0.0,0.0,0.0,0.0,0.0,0.0,0.0,0.0,0.0,0.0,0.0,0.0,0.0,0.0,0.0,0.0,0.0,0.0,0.0,0.0,0.0,0.0,0.0,-2.905,-2.8262,-2.8262,-2.8912,-3.0079,-3.0079,-3.0373,-3.0777,-3.0777,-3.0777,-3.0866,-3.1601,-3.1468,-3.0732,-3.0283,-2.905,-2.76,-2.76,-2.6791,-2.5674,-2.5547,-2.5488,-2.541,-2.4961,-2.4824,-2.4746,-2.4316,-2.418,-2.4082,-2.3672,-2.3535,-2.3477,-2.3159,-2.3101,-2.3101,-2.3101,-2.3101,-2.3101,-2.3101,-2.3101,-2.2731,-2.1525,-2.0359,-1.9131,-1.7917,-1.6622,-1.5784,-1.5784,-1.5784,-1.5784,-1.5784,-1.5784,-1.5784,-1.5784,-1.5784,-1.5744,-1.5671,-1.5671,-1.5618,-1.5511,-1.5164,-1.5008,-1.5008,-1.5008,-1.4411,-1.3211,-1.3211,-1.2848,-1.2153,-1.2848,-1.3438,-1.3902,-1.4819,-1.5231,-1.7242,-1.8907,-2.0786,-2.1064,-2.288,-2.4971,-2.6346,-2.6991,-2.7982,-3.0363,-3.0557,-3.0407,-3.0783,0.0,0.0,0.0,0.0,0.0,0.0,0.0,0.0,0.0,0.0,0.0,0.0,0.0,0.0,0.0,0.0,0.0,0.0,0.0,0.0,0.0,0.0,0.0,0.0,0.0,-2.935,-2.8168,-2.7767,-2.8049,-2.8819,-2.8819,-2.905,-2.9396,-2.9396,-2.9396,-2.9442,-3.0259,-2.9897,-2.8819,-2.8819,-2.8075,-2.6982,-2.6982,-2.6428,-2.5693,-2.5693,-2.5693,-2.5635,-2.5371,-2.5273,-2.5195,-2.4766,-2.4629,-2.4531,-2.4102,-2.3984,-2.3887,-2.3457,-2.3198,-2.3101,-2.3101,-2.3101,-2.3101,-2.3101,-2.3101,-2.2862,-2.2031,-2.0584,-1.9222,-1.8411,-1.6889,-1.5784,-1.5784,-1.5784,-1.5784,-1.5784,-1.5784,-1.5784,-1.5784,-1.5784,-1.5784,-1.5784,-1.5784,-1.5784,-1.5784,-1.5458,-1.5244,-1.5244,-1.5244,-1.4865,-1.4025,-1.4013,-1.3644,-1.2881,-1.3644,-1.4013,-1.4072,-1.506,-1.5538,-1.9133,-1.9836,-2.0968,-2.2046,-2.3286,-2.5048,-2.8226,-2.8913,-2.969,-3.2516,-3.219,-3.1411,-3.1411,-3.1411,0.0,0.0,0.0,0.0,0.0,0.0,0.0,0.0,0.0,0.0,0.0,0.0,0.0,0.0,0.0,0.0,0.0,0.0,0.0,0.0,0.0,0.0,0.0,0.0,-3.0574,-2.9418,-2.8168,-2.7579,-2.7579,-2.7579,-2.8215,-2.935,-2.935,-2.935,-2.935,-2.935,-2.868,-2.76,-2.76,-2.6812,-2.5693,-2.5693,-2.5693,-2.5693,-2.5693,-2.5693,-2.5693,-2.5693,-2.5693,-2.5615,-2.5215,-2.5125,-2.5028,-2.4551,-2.4414,-2.4316,-2.3906,-2.3477,-2.3101,-2.3101,-2.3101,-2.3101,-2.3101,-2.3101,-2.3101,-2.3101,-2.1186,-1.9497,-1.9497,-1.7436,-1.5832,-1.5784,-1.5784,-1.5784,-1.5784,-1.5784,-1.5784,-1.5784,-1.5784,-1.5784,-1.5784,-1.5784,-1.5784,-1.5784,-1.5784,-1.5784,-1.5784,-1.5784,-1.5784,-1.5784,-1.5784,-1.5784,-1.5784,-1.5784,-1.5784,-1.5784,-1.5784,-1.5784,-1.8435,-2.0112,-2.2096,-2.3226,-2.5834,-2.8561,-3.0253,-3.0112,-3.0269,-3.2614,-3.286,-3.2441,-3.2039,0.0,0.0,0.0,0.0,0.0,0.0,0.0,0.0,0.0,0.0,0.0,0.0,0.0,0.0,0.0,0.0,0.0,0.0,0.0,0.0,0.0,0.0,0.0,0.0,0.0,0.0,-2.935,-2.7247,-2.6235,-2.6235,-2.6235,-2.6476,-2.6791,-2.6791,-2.6791,-2.6791,-2.6791,-2.7125,-2.7505,-2.662,-2.6014,-2.5693,-2.5693,-2.5693,-2.5693,-2.5693,-2.5693,-2.5693,-2.5693,-2.5693,-2.5674,-2.5586,-2.5527,-2.5449,-2.5,-2.4863,-2.4766,-2.4336,-2.4141,-2.3842,-2.3237,-2.3101,-2.3101,-2.3101,-2.3101,-2.3101,-2.3101,-2.1854,-2.0477,-1.9633,-1.818,-1.681,-1.5913,-1.5784,-1.5784,-1.5784,-1.5784,-1.5784,-1.5784,-1.5784,-1.5784,-1.5784,-1.5784,-1.5784,-1.5784,-1.5784,-1.5784,-1.5784,-1.5784,-1.5784,-1.5784,-1.5784,-1.5784,-1.5784,-1.5784,-1.5784,-1.5784,-1.5784,-1.5784,-1.9605,-2.1515,-2.3678,-2.5234,-2.772,-3.0181,-3.1712,-3.1794,-3.1859,-3.3158,-3.3244,-3.3043,-3.2918,0.0,0.0,0.0,0.0,0.0,0.0,0.0,0.0,0.0,0.0,0.0,0.0,0.0,0.0,0.0,0.0,0.0,0.0,0.0,0.0,0.0,0.0,0.0,0.0,0.0,0.0,0.0,-2.7389,-2.6207,-2.5693,-2.5693,-2.5693,-2.5693,-2.5693,-2.5693,-2.5693,-2.5693,-2.6159,-2.6764,-2.6014,-2.5693,-2.5693,-2.5693,-2.5693,-2.5693,-2.5693,-2.5693,-2.5693,-2.5693,-2.5693,-2.5693,-2.5693,-2.5693,-2.5635,-2.541,-2.5332,-2.5234,-2.4785,-2.4668,-2.4512,-2.3764,-2.3471,-2.3398,-2.3398,-2.3218,-2.3101,-2.3101,-2.212,-2.1078,-2.0342,-1.881,-1.7451,-1.6669,-1.6103,-1.5784,-1.5784,-1.5784,-1.5784,-1.5784,-1.5784,-1.5784,-1.5784,-1.5784,-1.5784,-1.5784,-1.5784,-1.5784,-1.5784,-1.5784,-1.5784,-1.5784,-1.5784,-1.5784,-1.5784,-1.5784,-1.5784,-1.5784,-1.5784,-1.5784,-2.1642,-2.3391,-2.5327,-2.762,-2.9151,-3.0608,-3.2616,-3.3495,-3.3897,-3.3897,0.0,-3.337,-3.3822,0.0,0.0,0.0,0.0,0.0,0.0,0.0,0.0,0.0,0.0,0.0,0.0,0.0,0.0,0.0,0.0,0.0,0.0,0.0,0.0,0.0,0.0,0.0,0.0,0.0,0.0,0.0,0.0,-2.6791,-2.5693,-2.5693,-2.5693,-2.5693,-2.5693,-2.5693,-2.5693,-2.5693,-2.5693,-2.5693,-2.5693,-2.5693,-2.5693,-2.5693,-2.5693,-2.5693,-2.5693,-2.5693,-2.5693,-2.5693,-2.5693,-2.5693,-2.5693,-2.5693,-2.5693,-2.5693,-2.5693,-2.5644,-2.5234,-2.5137,-2.5019,-2.4629,-2.418,-2.3848,-2.3848,-2.3535,-2.3218,-2.3218,-2.2321,-2.15,-2.1257,-1.9471,-1.7994,-1.7777,-1.6622,-1.5784,-1.5784,-1.5784,-1.5784,-1.5784,-1.5784,-1.5784,-1.5784,-1.5784,-1.5784,-1.5784,-1.5784,-1.5784,-1.5784,-1.5784,-1.5784,-1.5784,-1.5784,-1.5784,-1.5784,-1.5784,-1.5784,-1.5784,-1.5784,-1.5784,-2.0051,-2.2461,-2.5427,-2.806,-3.0583,-3.2491,-3.3011,-3.3495,-3.3897,-3.3897,-3.4148,-3.4274,0.0,0.0,0.0,0.0,0.0,0.0,0.0,0.0,0.0,0.0,0.0,0.0,0.0,0.0,0.0,0.0,0.0,0.0,0.0,0.0,0.0,0.0,0.0,0.0,0.0,0.0,0.0,0.0,-2.7173,-2.5965,-2.5693,-2.5693,-2.5693,-2.5693,-2.5693,-2.5693,-2.5693,-2.5693,-2.5693,-2.5693,-2.5693,-2.5693,-2.5693,-2.5693,-2.5693,-2.5693,-2.5693,-2.5693,-2.5693,-2.5693,-2.5693,-2.5693,-2.5693,-2.5693,-2.5693,-2.5693,-2.5693,-2.5674,-2.5577,-2.5586,-2.5566,-2.5421,-2.4844,-2.4277,-2.4277,-2.4199,-2.4095,-2.4095,-2.3893,-2.3093,-2.1097,-2.0921,-2.0399,-1.8458,-1.6796,-1.5784,-1.5784,-1.5784,-1.5784,-1.5784,-1.5784,-1.5784,-1.5784,-1.5784,-1.5784,-1.5784,-1.5784,-1.5784,-1.5784,-1.5784,-1.5784,-1.5784,-1.5784,-1.5784,-1.5784,-1.5784,-1.5784,-1.5784,-1.5784,-1.5784,-2.0299,-2.2969,-2.5951,-2.9563,-3.1813,-3.3111,-3.3111,-3.3495,-3.3897,-3.3897,-3.4123,0.0,0.0,0.0,0.0,0.0,0.0,0.0,0.0,0.0,0.0,0.0,0.0,0.0,0.0,0.0,0.0,0.0,0.0,0.0,0.0,0.0,0.0,0.0,0.0,0.0,-3.2196,-3.0328,-2.9096,-2.8495,-2.662,-2.5693,-2.5693,-2.5693,-2.5693,-2.5693,-2.5693,-2.5693,-2.5693,-2.5693,-2.5693,-2.5693,-2.5693,-2.5693,-2.5693,-2.5693,-2.5693,-2.5693,-2.5693,-2.5693,-2.5693,-2.5693,-2.5693,-2.5693,-2.5693,-2.5693,-2.5693,-2.5693,-2.5693,-2.5693,-2.5693,-2.5693,-2.5693,-2.5693,-2.5215,-2.4727,-2.4727,-2.457,-2.4414,-2.4414,-2.4414,-2.3978,-2.2633,-2.2082,-2.0805,-1.7823,-1.6463,-1.5784,-1.5784,-1.5784,-1.5784,-1.5784,-1.5784,-1.5784,-1.5784,-1.5784,-1.5784,-1.5784,-1.5784,-1.6082,-1.6649,-1.6112,-1.58,-1.5784,-1.5784,-1.5784,-1.5784,-1.5784,-1.5784,-1.5784,-1.5784,-1.5784,-2.034,-2.3487,-2.6737,-3.1123,-3.2641,-3.3111,-3.3111,-3.342,-3.3746,-3.3746,0.0,0.0,0.0,0.0,0.0,0.0,0.0,0.0,0.0,0.0,0.0,0.0,0.0,0.0,0.0,0.0,0.0,0.0,0.0,0.0,0.0,0.0,0.0,0.0,0.0,0.0,-3.1557,-3.0305,-2.9074,-2.7908,-2.6428,-2.5693,-2.5693,-2.5693,-2.5693,-2.5693,-2.5693,-2.5693,-2.5693,-2.5693,-2.5693,-2.5693,-2.5693,-2.5693,-2.5693,-2.5693,-2.5693,-2.5693,-2.5693,-2.5693,-2.5693,-2.5693,-2.5693,-2.5693,-2.5693,-2.5693,-2.5693,-2.5693,-2.5693,-2.5693,-2.5693,-2.5693,-2.5693,-2.5693,-2.5449,-2.5176,-2.5176,-2.4902,-2.4602,-2.4602,-2.4442,-2.4311,-2.4465,-2.2712,-2.0415,-1.7934,-1.6546,-1.5899,-1.6064,-1.6126,-1.6126,-1.6126,-1.6126,-1.6126,-1.6126,-1.6126,-1.6126,-1.6126,-1.6126,-1.6557,-1.7562,-1.662,-1.6022,-1.5883,-1.583,-1.5777,-1.5784,-1.5784,-1.5784,-1.5784,-1.5784,-1.5811,-1.7362,-2.2274,-2.7813,-3.1322,-3.2641,-3.3111,-3.3111,-3.3187,-3.3237,0.0,0.0,0.0,0.0,0.0,0.0,0.0,0.0,0.0,0.0,0.0,0.0,0.0,0.0,0.0,0.0,0.0,0.0,0.0,0.0,0.0,0.0,0.0,0.0,0.0,0.0,0.0,-3.2853,-3.1601,-3.035,-2.912,-2.6791,-2.5693,-2.5693,-2.5693,-2.5693,-2.5693,-2.5693,-2.5693,-2.5693,-2.5693,-2.5693,-2.5693,-2.5693,-2.5693,-2.5693,-2.5693,-2.5693,-2.5693,-2.5693,-2.5693,-2.5693,-2.5693,-2.5693,-2.5693,-2.5693,-2.5693,-2.5693,-2.5693,-2.5693,-2.5693,-2.5693,-2.5693,-2.5693,-2.5693,-2.5635,-2.5596,-2.5596,-2.5557,-2.5518,-2.5518,-2.4587,-2.398,-2.4714,-2.2145,-2.0457,-2.1978,-1.8565,-1.6192,-1.7221,-1.7355,-1.7355,-1.7355,-1.7355,-1.7355,-1.7355,-1.7355,-1.7355,-1.7355,-1.7355,-1.7434,-1.7605,-1.7422,-1.7038,-1.6318,-1.6006,-1.5818,-1.5784,-1.5784,-1.5784,-1.5784,-1.5784,-1.5965,-1.9215,-2.338,-2.7505,-3.1272,-3.2416,-3.2667,-3.2993,-3.3111,-3.2896,0.0,0.0,0.0,0.0,0.0,0.0,0.0,0.0,0.0,0.0,0.0,0.0,0.0,0.0,0.0,0.0,0.0,0.0,0.0,0.0,0.0,0.0,-2.722,-2.8402,-3.0124,-3.0866,0.0,-3.204,-3.1488,-3.0259,-2.8355,-2.6572,-2.5693,-2.5693,-2.5693,-2.5693,-2.5693,-2.5693,-2.5693,-2.5693,-2.5693,-2.5693,-2.5693,-2.5693,-2.5693,-2.5693,-2.5693,-2.5693,-2.5693,-2.5693,-2.5693,-2.5693,-2.5693,-2.5693,-2.5693,-2.5693,-2.5693,-2.5693,-2.5693,-2.5693,-2.5693,-2.5693,-2.5693,-2.5693,-2.5693,-2.5693,-2.5693,-2.5693,-2.5693,-2.5693,-2.5693,-2.5216,-2.4632,-2.3932,-2.3407,-2.2348,-2.0329,-2.0798,-2.0442,-1.7921,-1.7582,-1.7582,-1.7582,-1.7582,-1.7582,-1.7582,-1.7582,-1.7582,-1.7582,-1.7582,-1.7582,-1.7582,-1.7582,-1.7447,-1.7082,-1.666,-1.6348,-1.6153,-1.6264,-1.6313,-1.6313,-1.6313,-1.6393,-1.9865,-2.3008,-2.5636,-2.9371,-3.0803,-3.1462,-3.1896,0.0,0.0,0.0,0.0,0.0,0.0,0.0,0.0,0.0,0.0,0.0,0.0,0.0,0.0,0.0,0.0,0.0,0.0,0.0,0.0,0.0,0.0,0.0,0.0,-2.662,-2.7673,-2.8912,-3.0124,-3.0911,-3.1223,-3.0911,-2.9852,-2.8049,-2.6476,-2.5693,-2.5693,-2.5693,-2.5693,-2.5693,-2.5693,-2.5693,-2.5693,-2.5693,-2.5693,-2.5693,-2.5693,-2.5693,-2.5693,-2.5693,-2.5693,-2.5693,-2.5693,-2.5693,-2.5693,-2.5693,-2.5693,-2.5693,-2.5693,-2.5693,-2.5693,-2.5693,-2.5693,-2.5693,-2.5693,-2.5771,-2.583,-2.5713,-2.5771,-2.583,-2.5713,-2.5693,-2.5693,-2.5693,-2.5693,-2.5284,-2.393,-2.4805,-2.4313,-2.0282,-2.3135,-2.4264,-2.0179,-1.9679,-1.9109,-1.774,-1.7582,-1.7582,-1.7582,-1.7582,-1.7582,-1.7582,-1.7582,-1.7582,-1.7582,-1.7582,-1.7593,-1.7612,-1.733,-1.7025,-1.67,-1.67,-1.67,-1.67,-1.67,-1.674,-1.6583,-1.9043,-2.1499,-2.4351,-2.7057,-2.8975,0.0,0.0,0.0,0.0,0.0,0.0,0.0,0.0,0.0,0.0,0.0,0.0,0.0,0.0,0.0,0.0,0.0,0.0,0.0,0.0,0.0,0.0,0.0,0.0,-2.5693,-2.5791,-2.638,-2.7626,-2.8866,-3.0033,-3.1178,-3.0079,-2.9442,-2.928,-2.6839,-2.5693,-2.5693,-2.5693,-2.5693,-2.5693,-2.5693,-2.5693,-2.5693,-2.5693,-2.5693,-2.5693,-2.5693,-2.5693,-2.5693,-2.5693,-2.5693,-2.5693,-2.5693,-2.5693,-2.5693,-2.5693,-2.5693,-2.5693,-2.5693,-2.5693,-2.5693,-2.5693,-2.5693,-2.5693,-2.5693,-2.6055,-2.625,-2.5791,-2.6055,-2.625,-2.5771,-2.5693,-2.5693,-2.5693,-2.5693,-2.5693,-2.5596,-2.5645,-2.5577,-2.5333,-2.5528,-2.5596,-2.5333,-2.5284,-2.3285,-1.8146,-1.7582,-1.7582,-1.7582,-1.7582,-1.7582,-1.7582,-1.7582,-1.7582,-1.7582,-1.7582,-1.7582,-1.7621,-1.7594,-1.756,-1.756,-1.6991,-1.67,-1.67,-1.67,-1.686,-1.6479,-1.8101,-1.9847,-2.2754,-2.483,-2.6355,-2.6962,-2.8134,0.0,0.0,0.0,0.0,0.0,0.0,0.0,0.0,0.0,0.0,0.0,0.0,0.0,0.0,0.0,0.0,0.0,0.0,0.0,0.0,0.0,0.0,-2.5693,-2.5693,-2.6284,-2.7552,-2.8002,-2.9189,-3.1178,-2.9988,-2.9761,-3.0553,-2.8075,-2.6887,-2.6887,-2.6062,-2.5693,-2.5693,-2.5693,-2.5693,-2.5693,-2.5693,-2.5693,-2.5693,-2.5693,-2.5693,-2.5693,-2.5693,-2.5693,-2.5693,-2.5693,-2.5693,-2.5732,-2.6055,-2.6152,-2.6211,-2.6484,-2.6512,-2.6512,-2.6512,-2.6512,-2.6512,-2.6512,-2.668,-2.6758,-2.6582,-2.6797,-2.6953,-2.6621,-2.6083,-2.5693,-2.5693,-2.5693,-2.5693,-2.5693,-2.5693,-2.5693,-2.5693,-2.5693,-2.5693,-2.5693,-2.5693,-2.4971,-2.3035,-1.9679,-1.7582,-1.7582,-1.7582,-1.7582,-1.7582,-1.7582,-1.7582,-1.7582,-1.7582,-1.7582,-1.7582,-1.7582,-1.7593,-1.7612,-1.7378,-1.7275,-1.7275,-1.7275,-1.7328,-1.5377,-1.6637,-1.8205,-2.0577,-2.2049,-2.3313,-2.4995,0.0,0.0,0.0,0.0,0.0,0.0,0.0,0.0,0.0,0.0,0.0,0.0,0.0,0.0,0.0,0.0,0.0,0.0,0.0,0.0,0.0,0.0,0.0,-2.5693,-2.5693,-2.6284,-2.7552,-2.76,-2.8541,-3.0574,-2.9396,-2.9189,-2.9943,-2.7934,-2.6935,-2.6935,-2.611,-2.5693,-2.5693,-2.5693,-2.5693,-2.5693,-2.5693,-2.5693,-2.5693,-2.5693,-2.5693,-2.5693,-2.5693,-2.5693,-2.5713,-2.5898,-2.5908,-2.6035,-2.6465,-2.6602,-2.6641,-2.6934,-2.7012,-2.7012,-2.7012,-2.7012,-2.7012,-2.7012,-2.7012,-2.7051,-2.7207,-2.7266,-2.7226,-2.7051,-2.6562,-2.6083,-2.6035,-2.581,-2.5693,-2.5693,-2.5693,-2.5693,-2.5693,-2.5693,-2.5693,-2.5693,-2.5693,-2.5693,-2.5693,-2.2466,-2.0333,-2.0333,-1.9011,-1.8182,-1.8211,-1.7996,-1.7916,-1.7916,-1.7916,-1.7889,-1.7889,-1.7943,-1.7956,-1.7795,-1.7688,-1.7582,-1.7582,-1.7582,-1.7582,0.0,0.0,0.0,0.0,0.0,0.0,0.0,0.0,0.0,0.0,0.0,0.0,0.0,0.0,0.0,0.0,0.0,0.0,0.0,0.0,0.0,0.0,0.0,0.0,0.0,0.0,0.0,0.0,0.0,0.0,-2.5693,-2.5693,-2.6304,-2.7505,-2.7552,-2.8143,-2.9326,-2.819,-2.7647,-2.7626,-2.6332,-2.5791,-2.5742,-2.5742,-2.5693,-2.5693,-2.5693,-2.5693,-2.5693,-2.5693,-2.5693,-2.5693,-2.5693,-2.5693,-2.5693,-2.5693,-2.5713,-2.5771,-2.625,-2.6406,-2.6465,-2.6894,-2.7031,-2.7031,-2.7051,-2.7051,-2.7051,-2.7051,-2.7051,-2.7051,-2.7051,-2.7051,-2.7168,-2.763,-2.7363,-2.7051,-2.7051,-2.7051,-2.6953,-2.6691,-2.6152,-2.5732,-2.5732,-2.5752,-2.5771,-2.5771,-2.5771,-2.5771,-2.5771,-2.5771,-2.5771,-2.5771,-2.5771,-2.5771,-2.5771,-2.1856,-1.9368,-1.9421,-1.8881,-1.8571,-1.8519,-1.8542,-1.8559,-1.849,-1.8684,-1.8604,-1.8185,-1.7809,-1.7595,-1.7582,-1.7595,-1.7595,-1.3086,0.0,0.0,0.0,0.0,0.0,0.0,0.0,0.0,0.0,0.0,0.0,0.0,0.0,0.0,0.0,0.0,0.0,0.0,0.0,0.0,0.0,0.0,0.0,0.0,0.0,0.0,0.0,0.0,-2.5693,-2.5693,-2.5693,-2.5868,-2.6207,-2.6255,-2.6839,-2.8096,-2.7767,-2.8049,-2.8912,-2.7673,-2.7078,-2.703,-2.611,-2.5693,-2.5693,-2.5693,-2.5693,-2.5693,-2.5693,-2.5693,-2.5693,-2.5693,-2.5693,-2.5732,-2.6094,-2.6211,-2.6269,-2.6699,-2.6836,-2.6914,-2.7344,-2.748,-2.7539,-2.7851,-2.793,-2.793,-2.793,-2.793,-2.793,-2.793,-2.793,-2.7969,-2.8086,-2.8027,-2.793,-2.793,-2.793,-2.7734,-2.7031,-2.6758,-2.666,-2.666,-2.7168,-2.7578,-2.7578,-2.7578,-2.7578,-2.7578,-2.7578,-2.7578,-2.7578,-2.7578,-2.7578,-2.7578,-2.2528,-1.9394,-1.9403,-2.0314,-2.0181,-1.8771,-1.9626,-1.9584,-1.849,-1.8568,-1.8528,-1.8425,-1.8063,-1.7809,-1.7582,-1.7809,-1.7862,-1.3906,-1.416,0.0,0.0,0.0,0.0,0.0,-1.8301,0.0,0.0,0.0,0.0,0.0,0.0,0.0,0.0,0.0,0.0,0.0,0.0,0.0,0.0,0.0,0.0,0.0,0.0,0.0,0.0,-2.5693,-2.5693,-2.5693,-2.5693,-2.5693,-2.5693,-2.5693,-2.6062,-2.6812,-2.6812,-2.7173,-2.784,-2.7125,-2.6812,-2.6812,-2.6062,-2.5693,-2.5693,-2.5693,-2.5693,-2.5693,-2.5693,-2.5693,-2.5693,-2.5693,-2.581,-2.6035,-2.6289,-2.6504,-2.6699,-2.7129,-2.7285,-2.7363,-2.7793,-2.793,-2.7969,-2.8223,-2.8301,-2.8301,-2.8301,-2.8301,-2.8301,-2.8301,-2.8301,-2.8301,-2.8301,-2.8301,-2.8301,-2.8301,-2.8301,-2.8144,-2.7637,-2.7539,-2.7539,-2.7539,-2.7969,-2.8301,-2.8301,-2.8301,-2.8301,-2.8301,-2.8301,-2.8301,-2.8301,-2.8301,-2.8301,-2.8301,-2.5113,-2.2548,-2.1331,-2.15,-2.1238,-2.0287,-2.0783,-2.0401,-1.8921,-1.9498,-1.9415,-1.8611,-1.8357,-1.8143,-1.7969,-1.8063,-1.8156,-1.5204,-1.5273,-1.5751,0.0,0.0,0.0,-1.8066,-1.8281,0.0,0.0,0.0,0.0,0.0,0.0,0.0,0.0,0.0,0.0,0.0,0.0,0.0,0.0,0.0,0.0,0.0,0.0,0.0,-2.5771,-2.5693,-2.5693,-2.5693,-2.5693,-2.5693,-2.5693,-2.5693,-2.5693,-2.5693,-2.5693,-2.5693,-2.5693,-2.5693,-2.5693,-2.5693,-2.5693,-2.5693,-2.5693,-2.5693,-2.5693,-2.5693,-2.5693,-2.5693,-2.5693,-2.5752,-2.6055,-2.6406,-2.6484,-2.6758,-2.7148,-2.7578,-2.7787,-2.7845,-2.8164,-2.8301,-2.8301,-2.8301,-2.8301,-2.8301,-2.8301,-2.8301,-2.8301,-2.8301,-2.8301,-2.8301,-2.8301,-2.8301,-2.8301,-2.8301,-2.8301,-2.8301,-2.8301,-2.8301,-2.8301,-2.8301,-2.8301,-2.8301,-2.8301,-2.8301,-2.8301,-2.8301,-2.8301,-2.8301,-2.8301,-2.8301,-2.8301,-2.8301,-2.8301,-2.7168,-2.4488,-2.2919,-2.2189,-2.2476,-2.2209,-2.1316,-1.9707,-2.0759,-2.0515,-1.8851,-1.8584,-1.8464,-1.849,-1.833,-1.8357,-1.6183,-1.6418,-1.6777,-1.5898,0.0,0.0,0.0,-1.6063,0.0,0.0,0.0,0.0,0.0,0.0,0.0,0.0,0.0,0.0,0.0,0.0,0.0,0.0,0.0,0.0,0.0,0.0,0.0,-2.5771,-2.5693,-2.5693,-2.5693,-2.5693,-2.5693,-2.5693,-2.5693,-2.5693,-2.5693,-2.5693,-2.5693,-2.5693,-2.5693,-2.5693,-2.5693,-2.5693,-2.5693,-2.5693,-2.5693,-2.5693,-2.5693,-2.5693,-2.5693,-2.5732,-2.6133,-2.6309,-2.6465,-2.7219,-2.7513,-2.7598,-2.8027,-2.8164,-2.8184,-2.8262,-2.8301,-2.8301,-2.8301,-2.8301,-2.8301,-2.8301,-2.8301,-2.8301,-2.8301,-2.8301,-2.8301,-2.8301,-2.8301,-2.8301,-2.8301,-2.8301,-2.8301,-2.8301,-2.8301,-2.8301,-2.8301,-2.8301,-2.8301,-2.8301,-2.8301,-2.8301,-2.8301,-2.8301,-2.8301,-2.8301,-2.8301,-2.8301,-2.8301,-2.8301,-2.8067,-2.7457,-2.6027,-2.4693,-2.3543,-2.4599,-2.3933,-2.1202,-2.0314,-1.9666,-1.931,-1.8584,-1.8343,-1.849,-1.8611,-1.8691,-1.7324,-1.7363,-1.7578,-1.7096,0.0,0.0,0.0,0.0,0.0,0.0,0.0,0.0,0.0,0.0,0.0,0.0,0.0,0.0,0.0,0.0,0.0,0.0,0.0,0.0,0.0,0.0,-2.7078,-2.5771,-2.5693,-2.5596,-2.541,-2.541,-2.541,-2.541,-2.541,-2.5508,-2.5693,-2.5693,-2.5693,-2.5693,-2.5693,-2.5693,-2.5693,-2.5693,-2.5693,-2.5693,-2.5693,-2.5693,-2.5693,-2.5693,-2.581,-2.6094,-2.6309,-2.666,-2.707,-2.7552,-2.7845,-2.8008,-2.8223,-2.8301,-2.8301,-2.8301,-2.8301,-2.8301,-2.8301,-2.8301,-2.8301,-2.8301,-2.8301,-2.8301,-2.8301,-2.8301,-2.8301,-2.8301,-2.8301,-2.8301,-2.8301,-2.8301,-2.8301,-2.8301,-2.8301,-2.8301,-2.8301,-2.8301,-2.8301,-2.8301,-2.8301,-2.8301,-2.8301,-2.8301,-2.8301,-2.8301,-2.8301,-2.8301,-2.8301,-2.8301,-2.8301,-2.8301,-2.6933,-2.61,-2.6045,-2.61,-2.5261,-2.3487,-2.1699,-2.0371,-1.943,-1.8971,-1.8824,-1.8931,-1.9025,-1.9078,0.0,0.0,0.0,0.0,0.0,-1.6946,0.0,0.0,0.0,-1.7506,0.0,0.0,0.0,0.0,0.0,0.0,0.0,0.0,0.0,0.0,0.0,0.0,0.0,0.0,0.0,0.0,-2.6349,-2.5634,-2.5371,-2.5195,-2.5125,-2.5106,-2.5106,-2.5106,-2.5106,-2.5293,-2.5693,-2.5693,-2.5693,-2.5693,-2.5693,-2.5693,-2.5693,-2.5693,-2.5693,-2.5693,-2.5693,-2.5693,-2.5693,-2.5771,-2.6113,-2.6504,-2.6504,-2.6992,-2.7728,-2.7806,-2.8008,-2.8301,-2.8301,-2.8301,-2.8301,-2.8301,-2.8301,-2.8301,-2.8301,-2.8301,-2.8301,-2.8301,-2.8301,-2.8301,-2.8301,-2.8301,-2.8301,-2.8301,-2.8301,-2.8301,-2.8301,-2.8301,-2.8301,-2.8301,-2.8301,-2.8301,-2.8301,-2.8301,-2.8301,-2.8301,-2.8301,-2.8301,-2.8301,-2.8301,-2.8301,-2.8301,-2.8301,-2.8301,-2.8301,-2.8301,-2.8301,-2.8301,-2.7168,-2.706,-2.8228,-2.7168,-2.6318,-2.5882,-2.3151,-2.0988,-1.943,-1.943,-1.943,-1.943,-1.943,-1.943,0.0,0.0,0.0,0.0,-1.9355,0.0,0.0,0.0,-1.677,-1.5488,0.0,0.0,0.0,0.0,0.0,0.0,0.0,0.0,0.0,0.0,0.0,0.0,0.0,0.0,0.0,0.0,0.0,-2.5067,-2.4147,-2.3971,-2.5047,-2.5106,-2.5106,-2.5106,-2.5106,-2.5293,-2.5693,-2.5693,-2.5693,-2.5693,-2.5693,-2.5693,-2.5693,-2.5693,-2.5693,-2.5693,-2.5693,-2.5693,-2.5713,-2.6152,-2.6562,-2.6953,-2.6953,-2.7246,-2.7767,-2.8086,-2.8262,-2.8301,-2.8301,-2.8301,-2.8301,-2.8301,-2.8301,-2.8301,-2.8301,-2.8301,-2.8301,-2.8301,-2.8301,-2.8301,-2.8301,-2.8301,-2.8301,-2.8301,-2.8301,-2.8301,-2.8301,-2.8301,-2.8301,-2.8301,-2.8301,-2.8301,-2.8301,-2.8301,-2.8301,-2.8301,-2.8301,-2.8301,-2.8301,-2.8301,-2.8301,-2.8301,-2.8301,-2.8301,-2.8301,-2.8301,-2.8301,-2.8301,-2.8121,-2.8121,-2.8281,-2.8121,-2.8014,-2.796,-2.2548,-1.9649,-1.943,-1.943,-1.943,-1.943,-1.943,-1.943,0.0,0.0,0.0,0.0,0.0,0.0,0.0,0.0,-1.5879,0.0,0.0,0.0,0.0,0.0,0.0,0.0,0.0,0.0,0.0,0.0,0.0,0.0,0.0,0.0,0.0,0.0,0.0,0.0,0.0,-2.3242,-2.4277,-2.4551,-2.4805,-2.5106,-2.5106,-2.5293,-2.5693,-2.5693,-2.5693,-2.5693,-2.5693,-2.5693,-2.5693,-2.5693,-2.5693,-2.5693,-2.5693,-2.583,-2.6133,-2.6309,-2.6797,-2.7402,-2.7402,-2.7656,-2.8047,-2.8223,-2.8301,-2.8301,-2.8301,-2.8301,-2.8301,-2.8301,-2.8301,-2.8301,-2.8301,-2.8301,-2.8301,-2.8301,-2.8301,-2.8301,-2.8301,-2.8301,-2.8301,-2.8301,-2.8301,-2.8418,-2.8926,-2.9043,-2.8887,-2.8398,-2.8301,-2.8301,-2.8301,-2.8301,-2.8301,-2.8301,-2.8301,-2.8301,-2.8301,-2.8301,-2.8301,-2.8301,-2.8301,-2.8301,-2.8301,-2.8301,-2.8301,-2.8301,-2.8301,-2.8301,-2.8301,-2.8301,-2.8301,-2.8301,-2.5827,-2.4561,-2.4561,-2.4561,-2.3375,-2.1045,-1.9924,-1.943,-2.2051,0.0,0.0,0.0,0.0,0.0,0.0,0.0,0.0,0.0,0.0,0.0,0.0,0.0,0.0,0.0,0.0,0.0,0.0,0.0,0.0,0.0,0.0,0.0,0.0,0.0,0.0,0.0,0.0,0.0,-2.3711,-2.4082,-2.4492,-2.5106,-2.5106,-2.5293,-2.5693,-2.5693,-2.5693,-2.5693,-2.5693,-2.5693,-2.5693,-2.5693,-2.5693,-2.5693,-2.5859,-2.6094,-2.6406,-2.6641,-2.7161,-2.7728,-2.7845,-2.8027,-2.8301,-2.8301,-2.8301,-2.8301,-2.8301,-2.8301,-2.8301,-2.8301,-2.8301,-2.8301,-2.8301,-2.8301,-2.8301,-2.8301,-2.8301,-2.832,-2.8437,-2.8457,-2.8496,-2.8613,-2.8633,-2.8789,-2.9391,-2.9646,-2.9551,-2.9101,-2.9004,-2.9004,-2.9004,-2.8613,-2.8301,-2.8301,-2.8301,-2.8301,-2.8301,-2.8301,-2.8301,-2.8301,-2.8301,-2.8301,-2.8301,-2.8301,-2.8496,-2.8965,-2.9004,-2.9004,-2.9004,-2.9004,-2.9004,-2.9004,-2.9004,-2.9004,-2.9004,-2.8263,-2.6441,-2.3536,-2.1089,-1.9822,0.0,0.0,0.0,-2.0059,0.0,0.0,0.0,0.0,-1.7187,0.0,0.0,0.0,0.0,0.0,0.0,0.0,0.0,0.0,0.0,0.0,0.0,0.0,0.0,0.0,0.0,0.0,0.0,0.0,0.0,0.0,-2.3633,-2.3809,-2.4199,-2.5086,-2.5106,-2.5293,-2.5693,-2.5693,-2.5693,-2.5693,-2.5693,-2.5693,-2.5693,-2.5693,-2.5693,-2.5713,-2.6191,-2.6387,-2.6445,-2.7337,-2.7689,-2.7767,-2.8125,-2.8281,-2.8301,-2.8301,-2.8301,-2.8301,-2.8301,-2.8301,-2.8301,-2.8301,-2.8301,-2.8301,-2.8301,-2.8301,-2.8301,-2.8301,-2.8301,-2.8379,-2.8789,-2.8906,-2.9004,-2.9434,-2.9587,-2.9473,-2.9293,-2.9609,-3.0156,-3.0703,-3.082,-3.082,-3.082,-2.9414,-2.8301,-2.8301,-2.8301,-2.8301,-2.8301,-2.8301,-2.8301,-2.8301,-2.8301,-2.8301,-2.8301,-2.8301,-2.9023,-3.0703,-3.082,-3.082,-3.082,-3.082,-3.082,-3.082,-3.082,-3.082,-3.0801,-2.8257,-2.6999,-2.6731,-2.3184,-2.0759,0.0,0.0,-2.4043,-2.1621,0.0,0.0,0.0,0.0,0.0,0.0,0.0,0.0,0.0,0.0,0.0,0.0,0.0,0.0,0.0,0.0,0.0,0.0,0.0,0.0,0.0,0.0,0.0,0.0,0.0,0.0,0.0,-2.375,-2.4473,-2.5106,-2.5352,-2.5586,-2.5693,-2.5693,-2.5693,-2.5693,-2.5693,-2.5693,-2.5693,-2.5693,-2.5849,-2.6172,-2.6328,-2.6719,-2.7297,-2.7591,-2.7885,-2.8086,-2.8242,-2.8301,-2.8301,-2.8301,-2.8301,-2.8301,-2.8301,-2.8301,-2.8301,-2.8301,-2.8301,-2.8301,-2.8301,-2.8496,-2.8711,-2.8711,-2.8906,-2.916,-2.9316,-2.9355,-2.9394,-2.9531,-2.9626,-2.9685,-2.9805,-3.0,-3.0293,-3.0801,-3.0898,-3.0898,-3.0898,-3.041,-3.0019,-3.0019,-3.0019,-3.0019,-3.0019,-3.0019,-3.0019,-3.0019,-3.0019,-3.0019,-3.0019,-3.0019,-3.0254,-3.0859,-3.0898,-3.0898,-3.0898,-3.0898,-3.0898,-3.0898,-3.0898,-3.0703,-3.0312,-2.9394,-2.8384,-2.719,-2.596,-2.403,-2.5156,-2.5332,0.0,0.0,-2.2246,0.0,-1.8848,0.0,0.0,0.0,0.0,0.0,0.0,0.0,0.0,0.0,0.0,0.0,0.0,0.0,0.0,0.0,0.0,0.0,0.0,0.0,-1.7779,-1.8539,0.0,0.0,0.0,0.0,-2.4297,-2.5086,-2.5508,-2.5693,-2.5693,-2.5693,-2.5693,-2.5693,-2.5693,-2.5693,-2.5693,-2.5849,-2.6113,-2.6406,-2.6719,-2.7148,-2.7728,-2.7832,-2.8047,-2.8301,-2.8301,-2.8301,-2.8301,-2.8301,-2.8301,-2.8301,-2.8301,-2.8301,-2.8301,-2.8301,-2.8398,-2.8516,-2.8516,-2.8809,-2.9141,-2.9141,-2.9355,-2.9609,-2.9746,-2.9785,-2.9844,-3.0,-3.0039,-3.0117,-3.0391,-3.0449,-3.0527,-3.084,-3.0898,-3.0898,-3.0898,-3.0898,-3.0898,-3.0898,-3.0898,-3.0898,-3.0898,-3.0898,-3.0898,-3.0898,-3.0898,-3.0898,-3.0898,-3.0898,-3.0898,-3.0898,-3.0898,-3.0898,-3.0898,-3.0898,-3.0898,-3.0898,-3.0898,-3.0703,-3.0332,-3.0332,-2.97,-2.8553,-2.7958,-2.6661]},{"header":{"parameterUnit":"m.s-1","parameterCategory":1,"la1":30.6,"la2":29.2853,"lo1":-89.7004,"lo2":-87.6739,"dy":0.0162,"dx":0.0183,"nx":112,"ny":82,"refTime":"2026-04-21T12:00:00:Z","depth":0,"parameterNumber":3,"parameterNumberName":"V-component_of_WINDS"},"data":[0.0,0.0,0.0,0.0,0.0,0.0,0.0,0.0,0.0,0.0,0.0,0.0,0.0,0.0,0.0,0.0,0.0,0.0,0.0,0.0,0.0,0.0,0.0,0.0,0.0,0.0,0.0,0.0,0.0,0.0,0.0,0.0,0.0,0.0,0.0,0.0,0.0,0.0,0.0,0.0,0.0,0.0,0.0,0.0,0.0,0.0,0.0,0.0,0.0,0.0,0.0,0.0,0.0,0.0,0.0,0.0,0.0,0.0,0.0,0.0,0.0,0.0,0.0,0.0,0.0,0.0,0.0,0.0,0.0,0.0,0.0,0.0,0.0,0.0,0.0,0.0,0.0,0.0,0.0,0.0,0.0,0.0,0.0,0.0,0.0,0.0,0.0,0.0,0.0,0.0,0.0,0.9484,1.1152,1.2083,1.1757,1.207,1.1864,1.0895,0.0,0.0,0.0,0.0,0.0,0.0,0.0,0.0,0.0,0.0,0.0,0.0,0.0,0.0,0.0,0.0,0.0,0.0,0.0,0.0,0.0,0.0,0.0,0.0,0.0,0.0,0.0,0.0,0.0,0.0,0.0,0.0,0.0,0.0,0.0,0.0,0.0,0.0,0.0,0.0,0.0,0.0,0.0,0.0,0.0,0.0,0.0,0.0,0.0,0.0,0.0,0.0,0.0,0.0,0.0,0.0,0.0,0.0,0.0,0.0,0.0,0.0,0.0,0.0,0.0,0.0,0.0,0.0,0.0,0.0,0.0,0.0,0.0,0.0,0.0,0.0,0.0,0.0,0.0,0.0,0.0,0.0,0.0,0.0,0.0,0.0,0.0,0.0,0.0,0.0,0.0,0.0,0.0,0.0,0.0,0.0,0.0,0.0,0.0,0.0,0.0,0.0,0.0,0.0,0.9967,1.1258,1.1881,1.2329,1.266,1.2433,1.2161,1.1811,0.0,0.0,0.0,0.0,0.0,0.0,0.0,0.0,0.0,0.0,0.0,0.0,0.0,0.0,0.0,0.0,0.0,0.0,0.0,0.0,0.0,0.0,0.0,0.0,0.0,0.0,0.0,0.0,0.0,0.0,0.0,0.0,0.0,0.0,0.0,0.0,0.0,0.0,0.0,0.0,0.0,0.0,0.0,0.0,0.0,0.0,0.0,0.0,0.0,0.0,0.0,0.0,0.0,0.0,0.0,0.0,0.0,0.0,0.0,0.0,0.0,0.0,0.0,0.0,0.0,0.0,0.0,0.0,0.0,0.0,0.0,0.0,0.0,0.0,0.0,0.0,0.0,0.0,0.0,0.0,0.0,0.0,0.0,0.0,0.0,0.0,0.0,0.0,0.0,0.0,0.0,0.0,0.0,0.0,0.0,0.0,0.0,0.0,0.0,0.0,0.0,0.0,0.0,0.8996,1.0257,1.184,1.2261,1.2604,1.3065,1.2763,1.2387,1.2022,1.1445,0.0,0.0,0.0,0.0,0.0,0.0,0.0,0.0,0.0,0.0,0.0,0.0,0.0,0.0,0.0,0.0,0.0,0.0,0.0,0.0,0.0,0.0,0.0,0.0,0.0,0.0,0.0,0.0,0.0,0.0,0.0,0.0,0.0,0.0,0.0,0.0,0.0,0.0,0.0,0.0,0.0,0.0,0.0,0.0,0.0,0.0,0.0,0.0,0.0,0.0,0.0,0.0,0.0,0.0,0.0,0.0,0.0,0.0,0.0,0.0,0.0,0.0,0.0,0.0,0.0,0.0,0.0,0.0,0.0,0.0,0.0,0.0,0.0,0.0,0.0,0.0,0.0,0.0,0.0,0.0,0.0,0.0,0.0,0.0,0.0,0.0,0.0,0.0,0.0,0.0,0.0,0.0,0.0,0.0,0.0,0.0,0.0,0.0,0.0,0.0,0.0,0.0,0.9619,1.0377,1.2025,1.2451,1.2811,1.3294,1.2955,1.2556,1.2113,1.1493,0.0,0.0,0.0,0.0,0.0,0.0,0.0,0.0,0.0,0.0,0.0,0.0,0.0,0.0,0.0,0.0,0.0,0.0,0.0,0.0,0.0,0.0,0.0,0.0,0.0,0.0,0.0,0.0,0.0,0.0,0.0,0.0,0.0,0.0,0.0,0.0,0.0,0.0,0.0,0.0,0.0,0.0,0.0,0.0,0.0,0.0,0.0,0.0,0.0,0.0,0.0,0.0,0.0,0.0,0.0,0.0,0.0,0.0,0.0,0.0,0.0,0.0,0.0,0.0,0.0,0.0,0.0,0.0,0.0,0.0,0.0,0.0,0.0,0.0,0.0,0.0,0.0,0.0,0.0,0.0,0.0,0.0,0.0,0.0,0.0,0.0,0.0,0.0,0.0,0.0,0.0,0.0,0.0,0.0,0.0,0.0,0.0,0.0,0.0,0.0,0.0,0.0,0.9935,1.0871,1.2087,1.2451,1.2851,1.3451,1.3065,1.2668,1.2289,1.1654,0.0,0.0,0.0,0.0,0.0,0.0,0.0,0.0,0.0,0.0,0.0,0.0,0.0,0.0,0.0,0.0,0.0,0.0,0.0,0.0,0.0,0.0,0.0,0.0,0.0,0.0,0.0,0.0,0.0,0.0,0.0,0.0,0.0,0.0,0.0,0.0,0.0,0.0,0.0,0.0,0.0,0.0,0.0,0.0,0.0,0.0,0.0,0.0,0.0,0.0,0.0,0.0,0.0,0.0,0.0,0.0,0.0,0.0,0.0,0.0,0.0,0.0,0.0,0.0,0.0,0.0,0.0,0.0,0.0,0.0,0.0,0.0,0.0,0.0,0.0,0.0,0.0,0.0,0.0,0.0,0.0,0.0,0.0,0.0,0.0,0.0,0.0,0.0,0.0,0.0,0.0,0.0,0.0,0.0,0.0,0.0,0.0,0.0,0.0,0.0,0.0,0.0,1.0614,1.2005,0.0,1.3367,1.3783,1.4368,1.3939,1.326,1.2406,0.0,0.0,0.0,0.0,0.0,0.0,0.0,0.0,0.0,0.0,0.0,0.0,0.0,0.0,0.0,0.0,0.0,0.0,0.0,0.0,0.0,0.0,0.0,0.0,0.0,0.0,0.0,0.0,0.0,0.0,0.0,0.0,0.0,0.0,0.0,0.0,0.0,0.0,0.0,0.0,0.0,0.0,0.0,0.0,0.0,0.0,0.0,0.0,0.0,0.0,0.0,0.0,0.0,0.0,0.0,0.0,0.0,0.0,0.0,0.0,0.0,0.0,0.0,0.0,0.0,0.0,0.0,0.0,0.0,0.0,0.0,0.0,0.0,0.0,0.0,0.0,0.0,0.0,0.0,0.0,0.0,0.0,0.0,0.0,0.0,0.0,0.0,0.0,0.0,0.0,0.0,0.0,0.0,0.0,0.0,0.0,0.0,0.0,0.0,0.0,0.0,0.0,0.9208,1.1183,1.2916,0.0,1.4145,1.4583,1.4953,1.4208,1.3335,1.2446,0.0,0.0,0.0,0.0,0.0,0.0,0.0,0.0,0.0,0.0,0.0,0.0,0.0,0.0,0.0,0.0,0.0,0.0,0.0,0.0,0.0,0.0,0.0,0.0,0.0,0.0,0.0,0.0,0.0,0.0,0.0,0.0,0.0,0.0,0.0,0.0,0.0,0.0,0.0,0.0,0.0,0.0,0.0,0.0,0.0,0.0,0.0,0.0,0.0,0.0,0.0,0.0,0.0,0.0,0.0,0.0,0.0,0.0,0.0,0.0,0.0,0.0,0.0,0.0,0.0,0.0,0.0,0.0,0.0,0.0,0.0,0.0,0.0,0.0,0.0,0.0,0.0,0.0,0.0,0.0,0.0,0.0,0.0,0.0,0.0,0.0,0.0,0.0,0.0,0.0,0.0,0.0,0.0,0.0,0.0,0.0,0.0,0.0,0.0,0.0,0.0,0.0,0.9265,1.1615,1.343,1.3684,1.4613,1.5146,1.5023,1.3723,1.278,0.0,0.0,0.0,0.0,0.0,0.0,0.0,0.0,0.0,0.0,0.0,0.0,0.0,0.0,0.0,0.0,0.0,0.0,0.0,0.0,0.0,0.0,0.0,0.0,0.0,0.0,0.0,0.0,0.0,0.0,0.0,0.0,0.0,0.0,0.0,0.0,0.0,0.0,0.0,0.0,0.0,0.0,0.0,0.0,0.0,0.0,0.0,0.0,0.0,0.0,0.0,0.0,0.0,0.0,0.0,0.0,0.0,0.0,0.0,0.0,0.0,0.0,0.0,0.0,0.0,0.0,0.0,0.0,0.0,0.0,0.0,0.0,0.0,0.0,0.0,0.0,0.0,0.0,0.0,0.0,0.0,0.0,0.0,0.0,0.0,0.0,0.0,0.0,0.0,0.0,0.0,0.0,0.0,0.0,0.0,0.0,0.0,0.0,0.0,0.0,0.0,0.0,0.0,0.0,1.2612,1.457,1.5128,1.5835,1.6155,1.5886,1.5138,1.403,1.2487,0.0,0.0,0.0,0.0,0.0,0.0,0.0,0.0,0.0,0.0,0.0,0.0,0.0,0.0,0.0,0.0,0.0,0.0,0.0,0.0,0.0,0.0,0.0,0.0,0.0,0.0,0.0,0.0,0.0,0.0,0.0,0.0,0.0,0.0,0.0,0.0,0.0,0.0,0.0,0.0,0.0,0.0,0.0,0.0,0.0,0.0,0.0,0.0,0.0,0.0,0.0,0.0,0.0,0.0,0.0,0.0,0.0,0.0,0.0,0.0,0.0,0.0,0.0,0.0,0.0,0.0,0.0,0.0,0.0,0.0,0.0,0.0,0.0,0.0,0.0,0.0,0.0,0.0,0.0,0.0,0.0,0.0,0.0,0.0,0.0,0.0,0.0,0.0,0.0,0.0,0.0,0.0,0.0,0.0,0.0,0.0,0.0,0.0,0.0,0.0,0.0,0.0,1.0614,1.3094,1.5101,1.5905,1.6675,1.6898,1.6255,1.564,1.4462,1.2509,0.0,0.0,0.0,0.0,0.0,0.0,0.0,0.0,0.0,0.0,0.0,0.0,0.0,0.0,0.0,0.0,0.0,0.0,0.0,0.0,0.0,0.0,0.0,0.0,0.0,0.0,0.0,0.0,0.0,0.0,0.0,0.0,0.0,0.0,0.0,0.0,0.0,0.0,0.0,0.0,0.0,0.0,0.0,0.0,0.0,0.0,0.0,0.0,0.0,0.0,0.0,0.0,0.0,0.0,0.0,0.0,0.0,0.0,0.0,0.0,0.0,0.0,0.0,0.0,0.0,0.0,0.0,0.0,0.0,0.0,0.0,0.0,0.0,0.0,0.0,0.0,0.0,0.0,0.0,0.0,0.0,0.0,0.0,0.0,0.0,0.0,0.0,0.0,0.0,0.0,0.0,0.0,0.0,0.0,0.0,0.0,0.0,0.0,0.0,0.0,0.0,0.0,1.1034,1.3262,1.5211,1.6287,1.7244,1.74,1.6405,1.5656,1.4451,1.2738,0.0,0.0,0.0,0.0,0.0,0.0,0.0,0.0,0.0,0.0,0.0,0.0,0.0,0.0,0.0,0.0,0.0,0.0,0.0,0.0,0.0,0.0,0.0,0.0,0.0,0.0,0.0,0.0,0.0,0.0,0.0,0.0,0.0,0.0,0.0,0.0,0.0,0.0,0.0,0.0,0.0,0.0,0.0,0.0,0.0,0.0,0.0,0.0,0.0,0.0,0.0,0.0,0.0,0.0,0.0,0.0,0.0,0.0,0.0,0.0,1.291,0.0,0.0,0.0,0.0,0.0,0.0,0.0,0.0,0.0,0.0,0.0,0.0,0.0,0.0,0.0,0.0,0.0,0.0,0.0,0.0,0.0,0.0,0.0,0.0,0.0,0.0,0.0,0.0,0.0,0.0,0.0,0.0,0.0,0.0,0.0,0.0,0.0,0.0,0.0,0.0,0.0,1.1837,1.3632,1.5395,1.6934,1.7512,1.7616,1.7188,1.6474,1.5539,1.4371,0.0,0.0,0.0,0.0,0.0,0.0,0.0,0.0,0.0,0.0,0.0,0.0,0.0,0.0,0.0,0.0,0.0,0.0,0.0,0.0,0.0,0.0,0.0,0.0,0.0,0.0,0.0,0.0,0.0,0.0,0.0,0.0,0.0,0.0,0.0,0.0,0.0,0.0,0.0,0.0,0.0,0.0,0.0,0.0,0.0,0.0,0.0,0.0,0.0,0.0,0.0,0.0,0.0,0.0,0.0,0.0,0.0,0.0,0.0,0.0,0.0,1.3614,0.0,0.0,0.0,0.0,0.0,0.0,0.0,0.0,0.0,0.0,0.0,0.0,0.0,0.0,0.0,0.0,0.0,0.0,0.0,0.0,0.0,0.0,0.0,0.0,0.0,0.0,0.0,0.0,0.0,0.0,0.0,0.0,0.0,0.0,0.0,0.0,0.0,0.0,0.0,0.0,1.2776,1.4336,1.5852,1.7386,1.7692,1.7695,1.7417,1.7063,1.6226,1.4794,1.3603,0.0,0.0,0.0,0.0,0.0,0.0,0.0,0.0,0.0,0.0,0.0,0.0,0.0,0.0,0.0,0.0,0.0,0.0,0.0,0.0,0.0,0.0,0.0,0.0,0.0,0.0,0.0,0.0,0.0,0.0,0.0,0.0,0.0,0.0,0.0,0.0,0.0,0.0,0.0,0.0,0.0,0.0,0.0,0.0,0.0,0.0,0.0,0.0,0.0,0.0,0.0,0.0,0.0,0.0,0.0,1.9847,2.0325,2.0321,1.9776,1.6692,1.5781,1.6359,0.0,0.0,0.0,0.0,0.0,0.0,0.0,0.0,0.0,0.0,0.0,0.0,0.0,0.0,0.0,0.0,0.0,0.0,0.0,0.0,0.0,0.0,0.0,0.0,0.0,1.4881,1.5073,0.0,0.0,0.0,0.0,0.0,0.0,0.0,0.0,0.0,0.0,0.0,0.0,1.3724,1.5101,1.6369,1.767,1.7783,1.7729,1.7629,1.7488,1.6773,1.5336,1.4959,1.3619,0.0,0.0,0.0,0.0,0.0,0.0,0.0,0.0,0.0,0.0,0.0,0.0,0.0,0.0,0.0,0.0,0.0,0.0,0.0,0.0,0.0,0.0,0.0,0.0,0.0,0.0,0.0,0.0,0.0,0.0,0.0,0.0,1.145,1.2538,0.0,0.0,0.0,0.0,0.0,0.0,0.0,0.0,0.0,0.0,0.0,0.0,0.0,0.0,2.0285,2.0579,2.125,2.2186,2.3137,2.2776,2.1286,2.2558,2.2429,2.1201,2.0269,0.0,1.8363,1.7518,0.0,0.0,0.0,0.0,0.0,0.0,0.0,0.0,0.0,0.0,0.0,0.0,0.0,0.0,0.0,0.0,0.0,0.0,0.0,0.0,0.0,0.0,1.8054,1.8891,1.9178,1.8865,0.0,1.5253,1.3528,1.3318,0.0,0.0,0.0,0.0,0.0,0.0,0.0,0.0,1.4454,1.5572,1.6642,1.7693,1.7783,1.798,1.8423,1.7816,1.7523,1.777,1.5913,1.4644,1.4354,1.2384,0.0,0.0,0.0,0.0,0.0,0.0,0.0,0.0,0.0,0.0,0.0,0.0,0.0,0.0,0.0,0.0,0.0,0.0,0.0,0.0,0.0,0.0,0.0,0.0,0.0,0.0,0.0,0.0,0.0,1.159,1.3191,1.3652,1.3778,1.3702,0.0,0.0,0.0,0.0,0.0,0.0,0.0,0.0,0.0,2.0132,2.169,2.2917,2.3734,2.3689,2.4036,2.4721,2.5245,2.4758,2.3412,2.4924,2.478,2.3351,2.31,2.2513,2.1546,1.9287,1.8036,1.7459,0.0,0.0,0.0,0.0,0.0,0.0,1.8768,0.0,0.0,0.0,0.0,0.0,0.0,0.0,0.0,0.0,0.0,0.0,0.0,0.0,0.0,1.9909,2.0002,1.9833,1.9169,1.8076,1.6588,0.0,1.4844,1.4764,1.2705,0.0,0.0,0.0,0.0,0.0,1.5463,1.6362,1.7118,1.7715,1.7783,1.8025,1.8565,1.8284,1.8099,1.8167,1.6948,1.5805,1.4916,1.3602,1.2286,0.0,0.0,0.0,0.0,0.0,0.0,0.0,0.0,0.0,0.0,0.0,0.0,0.0,0.0,0.0,0.0,0.0,0.0,0.0,0.0,0.0,0.0,0.0,0.0,0.0,0.0,0.0,0.0,1.3602,1.4928,1.4928,1.5537,1.5688,0.0,0.0,0.0,0.0,0.0,0.0,2.0969,2.2337,2.3385,2.4117,2.5813,2.6878,2.7227,2.6807,2.6965,2.7724,2.7605,2.7124,2.6401,2.718,2.6827,2.5568,2.5181,2.4707,2.3985,2.0936,1.9624,1.9392,1.828,1.7863,0.0,1.8577,1.9076,1.964,2.1283,2.225,2.2652,2.1788,0.0,2.1177,1.9082,0.0,0.0,0.0,0.0,1.9452,1.991,0.0,2.0859,2.0859,2.0859,2.0758,2.0386,2.0454,1.9676,0.0,1.6938,1.6938,1.4174,0.0,0.0,0.0,0.0,1.5506,1.6452,1.7072,1.7509,1.776,1.7783,1.8025,1.8565,1.8612,1.853,1.8434,1.7671,1.6687,1.5497,1.4491,1.3376,0.0,0.0,0.0,0.0,0.0,0.0,0.0,0.0,0.0,0.0,0.0,0.0,0.0,0.0,0.0,0.0,0.0,0.0,0.0,0.0,0.0,0.0,0.0,0.0,0.0,0.0,0.0,0.0,0.0,0.0,1.7247,1.8154,0.0,0.0,0.0,0.0,1.956,2.0191,2.1401,2.3338,2.4641,2.5911,2.7223,2.854,2.9841,3.1116,3.0274,3.0552,3.1878,3.1007,3.061,3.0638,2.91,2.8165,2.7637,2.6194,2.5259,2.46,2.2849,2.1823,2.1272,2.0113,1.9661,1.9737,2.0267,2.0928,2.1704,2.2754,2.319,2.3313,2.3638,2.3198,2.2504,2.2356,2.1939,0.0,0.0,2.2348,2.2019,2.374,2.3714,2.3241,2.3241,2.3241,2.2835,2.1427,2.1684,2.1705,0.0,1.8696,1.7749,1.7546,0.0,0.0,1.5956,1.6132,1.6452,1.7155,1.7567,1.7772,1.7783,1.7783,1.8025,1.8565,1.8612,1.8789,1.9211,1.7916,1.7135,1.7176,1.5004,1.3846,1.3888,1.2214,0.0,0.0,0.0,0.0,0.0,0.0,0.0,0.0,0.0,0.0,0.0,0.0,0.0,0.0,0.0,0.0,0.0,0.0,0.0,0.0,0.0,0.0,0.0,0.0,0.0,0.0,0.0,0.0,1.9485,2.0464,0.0,0.0,2.0715,2.1509,2.2489,2.3479,2.4957,2.7027,2.8388,2.9602,3.069,3.1574,3.2256,3.2729,3.1887,3.1686,3.2205,3.1882,3.1132,3.0015,3.0005,2.9244,2.8036,2.8084,2.7456,2.6382,2.6052,2.4798,2.3025,2.2217,2.1917,2.1895,2.1739,2.2108,2.2802,2.3311,2.3961,2.4667,2.512,2.4735,2.4058,2.3976,2.3818,2.3737,2.4031,2.3823,2.3695,2.4308,2.4305,2.4101,2.4101,2.4101,2.3966,2.3424,2.3154,2.2835,2.2293,2.1366,2.0217,1.8775,1.8389,1.8049,1.7322,1.7244,1.7356,1.7602,1.7726,1.7783,1.7783,1.7783,1.7949,1.8293,1.8516,1.8503,1.8278,1.7547,1.6948,1.6557,1.5281,1.439,1.4001,1.2855,1.1713,0.0,0.0,0.0,0.0,0.0,0.0,0.0,0.0,0.0,0.0,0.0,0.0,0.0,0.0,0.0,0.0,0.0,0.0,0.0,0.0,0.0,0.0,0.0,0.0,0.0,0.0,2.1066,2.1443,2.2824,2.3427,2.2673,2.3276,2.4115,2.5117,2.5903,2.7199,2.9101,3.0552,3.1757,3.2665,3.3658,3.4173,3.4173,3.3576,3.332,3.332,3.2966,3.2378,3.1474,3.0939,3.0164,2.934,2.9132,2.8634,2.8062,2.8339,2.7492,2.5855,2.4304,2.3672,2.3622,2.3271,2.3573,2.4204,2.4446,2.4876,2.5414,2.5764,2.5654,2.537,2.5304,2.5538,2.5808,2.573,2.5681,2.5609,2.5609,2.5422,2.5185,2.4948,2.488,2.4812,2.4541,2.4135,2.3695,2.3444,2.2598,2.1448,1.9938,1.9858,1.9664,1.8696,1.8324,1.8166,1.8166,1.7952,1.7783,1.7783,1.7783,1.7905,1.8194,1.8467,1.8466,1.8156,1.7708,1.7132,1.6463,1.5737,1.5043,1.438,1.3253,1.228,1.1445,0.0,0.0,0.0,0.0,0.0,0.0,0.0,0.0,0.0,0.0,0.0,0.0,0.0,0.0,0.0,0.0,0.0,0.0,0.0,0.0,0.0,0.0,0.0,1.9936,2.1791,2.3195,2.3221,2.5209,2.6147,2.5059,2.5937,2.6826,2.7379,2.7394,2.8023,2.9425,3.1011,3.2274,3.3106,3.4702,3.5517,3.5487,3.5487,3.5519,3.5519,3.4509,3.4543,3.5329,3.2006,3.0958,3.1647,2.9269,2.8713,2.9513,2.9548,2.9726,2.9683,2.6272,2.4915,2.489,2.4858,2.5294,2.5963,2.6245,2.5988,2.559,2.5645,2.6016,2.6439,2.643,2.7179,2.807,2.8056,2.7944,2.7789,2.7755,2.7249,2.6556,2.5812,2.5626,2.5439,2.4711,2.4541,2.4338,2.3613,2.2307,2.1292,2.1224,2.0568,2.0035,2.0035,1.9418,0.0,1.891,1.8302,1.785,1.7884,1.785,1.7939,1.8218,1.8483,1.8706,1.8948,1.8409,1.7792,1.7139,1.6496,1.5818,1.5142,1.3566,1.233,1.1468,0.0,0.0,0.0,0.0,0.0,0.0,0.0,0.0,0.0,0.0,0.0,0.0,0.0,0.0,0.0,0.0,0.0,0.0,0.0,0.0,0.0,0.0,2.2849,2.2849,2.4054,2.5234,2.6038,2.7394,2.8122,2.7784,2.8448,2.9101,2.9654,2.9704,3.033,3.178,3.3006,3.378,3.3954,3.5862,3.6289,3.5101,3.5844,3.5968,3.5519,3.5198,3.4839,3.438,3.3431,3.2407,3.1342,3.1361,3.0887,3.0219,3.0872,3.1,3.0533,2.8439,2.7333,2.6778,2.5767,2.5602,2.6008,2.6705,2.6891,2.6924,2.7543,2.7565,2.7249,2.7157,2.7337,2.7576,2.7475,2.7695,2.786,2.7311,2.732,2.7317,2.6556,2.6387,2.6353,2.6132,2.5676,2.5236,2.5033,2.4237,2.3255,2.2192,2.138,2.0873,2.0873,0.0,0.0,1.971,1.9046,1.8797,1.9326,1.8899,1.8641,1.8688,1.8957,1.8733,0.0,1.7815,1.7607,1.7132,1.6919,1.651,1.5842,1.4807,1.3954,0.0,0.0,0.0,0.0,0.0,0.0,0.0,0.0,0.0,0.0,0.0,0.0,0.0,0.0,0.0,0.0,0.0,0.0,0.0,0.0,0.0,0.0,2.3853,2.5611,2.6314,2.6766,2.7318,2.8222,2.9302,2.9955,2.9955,3.0256,3.0608,3.0909,3.0934,3.1301,3.2157,3.3194,3.3695,3.3684,3.5697,3.633,3.5324,3.6094,3.6297,3.5908,3.5639,3.5166,3.461,3.4211,3.3394,0.0,3.2128,3.1973,3.192,3.2096,3.2286,0.0,0.0,0.0,0.0,0.0,2.6966,2.6989,2.7806,2.7939,2.7903,2.8726,2.8547,2.7995,2.7929,2.7885,2.7899,2.8078,2.8325,2.8517,2.8282,2.8282,2.8112,2.7334,2.7165,2.7097,2.6759,2.6353,2.5981,2.5676,0.0,0.0,2.3004,2.2395,2.2037,2.1718,2.1008,2.05,0.0,1.9811,1.9418,1.9541,1.9147,1.8775,1.8471,1.8709,0.0,0.0,0.0,1.8058,1.7609,0.0,0.0,0.0,0.0,0.0,0.0,0.0,0.0,0.0,1.3002,1.3144,0.0,0.0,0.0,0.0,0.0,0.0,0.0,0.0,0.0,0.0,0.0,0.0,0.0,0.0,0.0,0.0,2.649,2.8122,2.9754,2.9578,2.9478,2.9905,3.0859,3.1486,3.1486,3.1537,3.1537,3.1486,3.1486,3.1461,3.1386,0.0,0.0,0.0,0.0,3.5978,3.5726,3.6325,3.6507,3.6357,3.5789,3.5519,3.5457,3.4576,3.4109,3.391,3.2236,3.2451,3.3945,3.3087,3.3436,3.4196,3.1265,3.0081,2.9928,2.9255,2.8702,0.0,0.0,0.0,0.0,2.9436,2.9235,2.8697,2.8697,2.8627,2.8635,2.9169,2.9242,2.9227,2.9747,2.9469,2.8835,2.8128,2.7858,2.7621,2.6962,2.6759,2.6488,2.5845,2.5728,2.527,2.3883,2.3511,2.3139,2.2415,2.1752,0.0,2.1326,2.0636,1.9913,1.935,0.0,0.0,1.8087,1.8196,1.8253,1.8215,1.8706,1.8843,1.8515,1.7844,1.7541,1.7646,1.7577,1.7476,1.7417,1.7423,1.7507,1.7575,1.6141,1.5865,0.0,0.0,0.0,0.0,0.0,0.0,0.0,0.0,0.0,0.0,0.0,0.0,0.0,0.0,0.0,2.6627,2.8222,2.9729,3.0909,3.1361,3.1461,3.111,3.1662,3.2064,3.2064,3.2491,3.2566,3.2089,3.2064,3.1863,3.1411,3.2797,0.0,3.2329,3.5631,3.6504,3.4659,3.6324,3.6716,3.5699,0.0,0.0,3.5519,3.5294,3.4773,3.3979,3.3636,3.3671,3.3979,3.3808,3.4035,3.4259,3.1901,3.0563,2.9928,2.9255,2.8919,2.8962,2.9795,2.9664,2.9262,3.0061,2.9894,2.9412,2.9412,2.9042,0.0,2.8702,2.8706,2.8635,2.8662,2.8907,2.9084,2.8832,2.8281,2.7756,2.7621,2.7131,2.6657,2.6522,2.6488,2.6218,2.5338,2.4188,2.3139,2.2415,2.2192,2.209,2.209,2.1414,2.1143,2.1583,2.0521,1.9744,1.9596,1.9094,1.8586,1.8229,1.8706,1.927,1.9799,1.9847,1.9832,1.9899,1.9243,1.865,1.8106,1.8143,1.8226,1.831,1.747,1.7202,0.0,0.0,0.0,0.0,0.0,0.0,0.0,0.0,0.0,0.0,0.0,2.6242,2.6413,0.0,2.8599,2.9595,3.047,3.1185,3.1712,3.229,3.2441,3.1863,3.229,3.2641,3.2641,3.2893,3.2943,3.2667,3.2365,3.2089,3.1813,3.2552,3.2746,3.2215,3.5315,3.6301,3.4837,3.6545,3.6926,3.5998,3.5669,3.5519,3.5519,3.5519,3.5228,3.4739,3.4211,3.4279,3.4773,3.4773,3.486,3.4859,3.3408,3.2411,3.1656,3.0991,3.0729,3.0762,3.0894,3.069,3.0484,3.0858,3.0582,3.0043,3.0043,2.9594,2.9105,2.9082,2.9045,2.9044,2.9253,2.9541,2.9728,2.9589,2.9262,2.8737,2.7959,2.7658,2.745,2.7055,2.6987,2.6747,2.6028,2.5106,2.412,2.3038,2.2868,2.2733,2.2347,2.1989,2.1752,2.1752,2.1075,2.0297,1.9507,1.8775,1.8325,1.8194,1.8593,1.904,1.956,1.9782,1.9895,1.9895,1.9499,1.9133,1.8807,1.8828,1.8923,1.9027,1.8723,1.8617,0.0,0.0,0.0,0.0,0.0,0.0,0.0,0.0,2.6368,2.7829,2.9094,3.0133,3.0877,3.1227,3.1631,3.2414,3.2521,3.2491,3.2407,3.2792,3.2893,3.2441,3.2792,3.3111,3.3111,3.3111,3.3043,3.2918,3.2466,3.2164,3.2064,3.2164,3.2215,3.2215,3.4486,3.5507,3.5113,3.6309,3.6726,3.6297,3.5759,3.5519,3.5519,3.5519,3.5519,3.5457,3.4643,3.4773,3.5519,3.5519,3.5519,3.5459,3.4923,3.4352,3.3784,3.3006,3.2617,3.2407,3.1869,3.16,3.1511,3.1511,3.1122,3.0702,3.0702,3.0253,2.9759,2.971,2.9525,2.9459,3.0006,3.0119,3.0124,3.0121,3.0133,2.9751,2.85,2.834,2.8225,2.7634,2.7469,2.7217,2.6641,2.6251,2.5493,2.3846,2.3477,2.3173,2.2584,2.2381,2.2076,2.1495,2.1292,2.0615,1.9215,1.8425,1.8098,1.8327,1.8508,1.8759,1.9049,1.9368,1.9586,1.9701,1.9586,1.9528,1.9528,1.9389,1.9398,1.9541,1.9541,1.9618,2.2673,2.2433,2.2972,2.4657,2.5166,2.6512,0.0,0.0,3.1271,3.3246,3.4231,3.4478,3.3715,3.4077,3.4281,3.374,3.3634,3.3476,3.3063,3.3086,3.3043,3.2993,3.3086,3.3111,3.3111,3.3111,3.2867,3.234,3.224,3.1989,3.1512,3.1938,3.2215,3.2215,3.3427,3.4163,3.4403,3.5003,3.5375,3.5609,3.5549,3.5519,3.5519,3.5519,3.5519,3.5519,3.5392,3.5392,3.5519,3.5519,3.5519,3.5489,3.5429,3.534,3.513,3.3844,3.3006,3.2497,3.2407,3.1989,3.1511,3.1511,3.1451,3.1391,3.1391,3.0941,3.04,3.0396,2.9582,2.8832,2.9441,2.9563,2.9619,3.0168,3.0195,3.0074,2.9886,2.9093,2.8363,2.8294,2.8032,2.7805,2.7734,2.767,2.6898,2.4698,2.3831,2.3376,2.3274,2.2699,2.2279,2.2178,2.1583,2.0839,1.9947,1.9203,1.8787,1.8822,1.8676,1.8827,1.9332,2.0011,2.0611,2.1134,2.0639,2.0364,2.0364,1.9638,1.9323,1.9346,1.9346,1.9504,2.6776,2.6447,2.6512,0.0,2.9325,3.0791,3.3006,3.3664,3.4203,3.54,3.6477,3.7063,3.6625,3.6597,3.6548,0.0,3.559,3.4902,3.4152,3.4526,3.4559,3.3571,3.3788,3.3784,3.3154,3.3111,3.2842,3.2265,3.2215,3.1964,3.1411,3.1913,3.2215,3.2215,3.3591,3.4219,3.395,3.4992,3.5392,3.5161,3.5792,3.5878,3.5519,3.5908,3.5878,3.5519,3.5519,3.5519,3.5519,3.5519,3.5519,3.5519,3.5519,3.5519,3.54,3.4412,3.3873,3.3604,3.3215,3.2647,3.2079,3.2079,3.1809,3.1511,3.1511,3.1301,3.1002,3.0612,3.0133,2.9696,2.955,2.9488,2.9595,3.0162,3.0245,3.0209,3.0133,2.988,2.9503,2.8872,2.8649,2.8486,2.8246,2.8037,2.7585,2.6615,2.5285,2.4144,2.3488,2.2767,2.2313,2.2313,2.1651,2.1055,2.0737,1.9993,1.9541,1.9541,1.9188,1.9398,2.023,1.9875,2.0015,2.086,2.0177,1.9785,1.9785,1.9462,1.9315,1.9315,1.9315,1.9369,2.8963,2.9086,2.9445,3.0731,3.2557,3.4143,3.4502,3.5459,3.6477,3.7165,3.7883,3.8392,3.8392,3.8178,3.7883,3.7555,3.7024,3.629,3.5238,3.5598,3.5511,3.4273,3.4138,3.3927,3.3301,3.3139,3.2893,3.2491,3.2466,3.2265,3.1888,3.224,3.2466,3.2466,3.3441,3.3901,3.3685,3.4596,3.5071,3.5209,3.5972,3.6242,3.6028,3.6357,3.6118,3.5519,3.5519,3.5609,3.5759,3.5579,3.5609,3.5759,3.5579,3.5519,3.5459,3.4951,3.4683,3.4444,3.3933,3.3335,3.2766,3.2587,3.2168,3.175,3.157,3.1511,3.1391,3.0913,3.0642,3.0393,2.9877,2.9637,2.9574,3.0003,3.0206,3.0282,3.0168,3.0385,3.0421,2.9757,2.9373,2.9098,2.8949,2.8517,2.8174,2.8065,2.6702,2.5261,2.4013,2.294,2.2313,2.2313,2.182,2.1495,2.1495,2.0771,2.0318,2.0318,1.9853,1.9967,2.0745,2.0068,1.9992,2.072,2.0238,1.9976,1.9976,1.9976,1.9976,1.9976,1.9976,1.9976,2.7824,2.8996,3.0761,3.2108,3.3963,3.5759,3.7015,3.7823,3.8512,3.92,3.8841,3.8392,3.8392,3.8392,3.8038,3.7003,3.7336,3.7396,3.633,3.5675,3.5306,3.5278,3.3829,3.3054,0.0,3.3308,3.3111,3.3043,3.3043,3.3086,3.3061,3.3043,3.3043,3.3043,3.2558,3.2756,3.3685,3.3159,3.3887,3.5842,3.5877,3.6412,3.7315,3.6746,3.6118,3.5519,3.5519,3.5878,3.6417,3.5759,3.5878,3.6387,3.5759,3.5519,3.5519,3.5489,3.504,3.4503,3.4474,3.4054,3.3365,3.2706,3.2497,3.2348,3.169,3.1511,3.1511,3.1481,3.1002,3.0492,3.049,2.9981,2.9509,2.9527,2.9909,3.0309,3.0297,3.0446,3.0734,3.1132,3.0347,2.9682,3.01,2.9477,2.8821,2.8428,2.7729,2.67,2.5241,2.3431,2.2313,2.2313,2.2279,2.2279,2.2279,2.1583,2.1156,2.1156,2.0663,2.0408,2.0512,2.0967,2.1292,2.1359,2.1606,2.1702,2.1702,2.1702,2.1702,2.1702,2.1702,2.1702,3.0313,3.1659,3.3006,3.522,3.6596,3.7644,3.8542,3.8901,3.902,3.8781,3.8212,3.7614,3.7195,3.7135,3.7152,3.7163,3.7748,3.7982,3.7348,3.7679,3.7432,3.5869,3.5958,0.0,0.0,0.0,0.0,3.2516,3.2867,3.2918,3.2516,3.2867,3.3111,3.3111,3.2893,3.2937,3.3317,3.3361,3.4122,3.5507,3.6431,3.7302,3.8033,3.7404,3.6746,3.6148,3.6148,3.6028,3.5818,3.5579,3.5639,3.5818,3.5579,3.5519,3.5519,3.5519,3.537,3.516,3.516,3.4711,3.4144,3.3873,3.3514,3.3036,3.2377,3.2459,3.2739,3.2338,3.2416,3.2447,3.2008,3.1389,3.0879,3.0771,3.0247,2.9982,3.0721,3.0644,3.0509,3.0786,3.0763,3.054,2.9926,2.9795,2.9466,2.8549,2.7587,2.6414,2.4856,2.4081,2.3389,2.2655,2.256,2.2487,2.2307,2.2076,2.1921,2.1921,2.1304,2.1347,2.2259,2.1462,2.1492,2.2429,2.2034,2.1812,2.1812,2.1812,2.1812,2.1812,2.1812,2.1812,3.2497,3.3873,3.507,3.7225,3.8272,3.8871,3.932,3.923,3.8841,3.8182,3.7135,3.6178,3.5549,3.522,3.5429,3.6537,3.7285,3.7883,3.8296,3.8773,3.8472,3.698,3.7026,3.6921,0.0,0.0,0.0,3.3094,3.3098,3.2918,3.2541,3.2867,3.3111,3.3111,3.3111,3.3111,3.3111,3.3367,3.4177,3.5659,3.6953,3.7831,3.8392,3.7943,3.7285,3.6477,3.6477,3.6237,3.5848,3.5609,3.5639,3.5818,3.5579,3.5519,3.5519,3.5519,3.5519,3.5519,3.5519,3.522,3.4801,3.4593,3.4234,3.3724,3.3066,3.2973,3.3104,3.2983,3.3083,3.3218,3.2997,3.2457,3.195,3.1839,3.1001,3.0371,3.112,3.0924,3.0697,3.0987,3.1028,3.0917,3.0549,3.0303,2.9844,2.8785,2.8018,2.701,2.5448,2.4997,2.4426,2.3412,2.3215,2.2976,2.2467,2.2363,2.2313,2.2313,2.1854,2.2086,2.3165,2.2244,2.2277,2.341,2.2905,2.2657,2.2657,2.2657,2.2657,2.2657,2.2657,2.2657,3.4234,3.5582,3.6896,3.8123,3.8931,3.9373,3.9379,3.8841,3.8123,3.7375,3.5669,3.4113,0.0,0.0,3.3125,3.51,3.6028,3.7195,3.914,3.8841,3.8422,0.0,0.0,0.0,0.0,0.0,0.0,3.4911,0.0,3.3283,3.3283,3.3197,3.3197,3.3197,3.3111,3.3111,3.3111,3.3154,3.422,3.6212,3.7291,3.801,3.8452,3.8452,3.7764,3.6596,3.6596,3.6567,3.6477,3.5848,3.5938,3.6417,3.5789,3.5519,3.5519,3.5519,3.5519,3.5519,3.5519,3.5519,3.54,3.4773,3.4563,3.4444,3.3754,3.3126,3.2795,3.3396,3.3153,3.29,3.3547,3.3187,3.2698,3.269,3.2062,3.1451,3.145,3.1332,3.1308,3.1696,3.1165,3.0904,3.185,3.0982,2.9929,2.917,2.9023,2.8494,2.7046,2.6174,2.5392,2.4561,2.426,2.3772,2.292,2.2562,2.2389,2.2389,2.2327,2.2588,2.3165,2.32,2.3522,2.418,2.419,2.419,2.419,2.419,2.419,2.419,2.419,2.419,3.5489,3.6926,3.8093,3.896,3.9254,3.929,3.8781,3.8153,3.7045,3.4921,3.3305,3.175,0.0,0.0,0.0,3.3754,3.5789,0.0,3.92,3.926,0.0,3.8452,0.0,3.8364,3.8038,3.7482,0.0,0.0,3.6041,3.5413,3.5413,3.4692,3.4262,3.4262,3.3513,3.3111,3.3111,3.3869,3.4938,3.6212,3.7291,3.8273,3.917,3.917,3.8691,3.7913,3.7913,3.7614,3.7165,3.6985,3.6746,3.6477,3.6297,3.5938,3.5519,3.5519,3.5519,3.5519,3.5519,3.5519,3.5459,3.531,3.525,3.513,3.4474,3.4485,3.469,3.44,3.4579,3.4861,3.5044,3.458,3.4069,3.4039,3.3149,3.2234,3.2101,3.1679,3.1337,3.1356,3.0964,3.0904,3.185,3.0753,2.979,2.9868,2.939,2.8647,2.7656,2.7364,2.6847,2.5781,2.5626,2.5372,2.4898,2.4055,2.3563,2.3563,2.2781,2.2588,2.3165,2.32,2.3522,2.418,2.419,2.419,2.419,2.419,2.419,2.419,2.419,2.419,3.6926,3.8063,3.8931,3.932,3.92,3.8631,3.7404,3.6387,3.4861,3.1958,3.0283,0.0,2.756,2.8427,0.0,0.0,0.0,0.0,3.9074,3.9373,3.926,0.0,3.917,0.0,3.8871,3.8634,3.8509,0.0,3.7098,3.6212,3.6212,3.5654,3.5156,3.4718,3.4121,3.3598,3.3111,3.4163,3.5197,3.6212,3.7291,3.836,3.9373,3.9373,3.905,3.8392,0.0,3.8033,3.7404,3.7404,3.7195,3.6896,3.6896,3.6507,3.5938,3.5938,3.5759,3.5519,3.5519,3.5519,3.5519,3.5519,3.5519,3.5429,3.504,3.4997,3.5124,3.5415,3.5374,3.5306,3.5944,3.5574,3.5021,3.4992,3.4184,3.34,3.3296,3.2505,3.1688,3.1286,3.1165,3.1168,3.1354,3.0993,3.0609,3.0483,2.9917,2.9354,2.8925,2.8558,2.7951,2.6952,2.6728,2.6405,2.5864,2.5123,2.4651,2.4475,2.3874,2.366,2.3998,2.3799,2.3921,2.4444,2.4305,2.419,2.419,2.419,2.419,2.419,2.419,2.419,3.8332,3.896,3.9373,3.9373,3.8841,3.7764,3.5818,3.4203,3.2168,2.8876,0.0,2.6004,2.5345,2.5974,2.7859,3.1749,0.0,3.5729,3.8925,3.9373,3.9373,3.9373,3.9373,3.9373,3.9373,3.9373,3.9373,3.9373,3.7701,3.6643,3.6643,3.6487,3.5934,3.4938,3.4897,3.447,3.3513,3.4428,3.54,3.6408,3.7357,3.836,3.9373,3.9373,3.908,3.8512,0.0,0.0,3.7674,3.7674,3.7614,3.7524,3.7524,3.7165,3.6596,3.6507,3.6118,3.5639,3.5519,3.5519,3.5519,3.5519,3.5519,3.5519,3.5519,3.507,3.4907,3.6166,3.5732,3.5142,3.6348,3.6196,3.5735,3.5633,3.5115,3.4607,3.4506,3.341,3.2226,3.1495,3.1625,3.1629,3.0905,3.1338,3.1613,3.1052,3.0592,3.0296,3.0344,2.9574,2.873,2.8044,2.7692,2.7224,2.6548,2.6068,2.5693,2.5394,2.5255,2.5129,2.5059,2.4734,2.4669,2.4966,2.4689,2.452,2.452,2.452,2.452,2.452,2.452,2.452,3.905,3.932,3.9373,3.9373,3.8482,3.7075,3.51,3.2766,0.0,0.0,2.5046,2.3939,2.3332,2.5069,2.7709,3.1122,3.3754,3.6297,3.902,3.9373,3.9373,0.0,0.0,0.0,0.0,0.0,0.0,0.0,0.0,0.0,3.8841,3.7994,3.7021,3.5974,3.5934,3.5854,3.5654,3.5854,3.6448,3.751,3.7701,3.836,3.9373,3.9373,3.9349,3.923,0.0,0.0,3.9044,3.9044,3.8721,3.8212,3.8212,3.7823,3.7195,3.6656,3.6417,3.6237,3.5699,3.5519,3.5519,3.5519,3.5519,3.5519,3.5519,3.5429,3.5383,3.5643,3.6006,3.6263,3.5883,3.6181,3.64,3.5769,3.5498,3.525,3.4607,3.3829,3.2983,3.2259,3.217,3.2076,3.1648,3.1168,3.1069,3.1714,3.1173,3.0816,3.1163,2.9916,2.895,2.8803,2.8732,2.8661,2.8514,2.7586,2.697,2.6908,2.6035,2.5486,2.5434,2.5636,2.5781,2.5793,2.6049,2.6172,2.6172,2.6172,2.6172,2.6172,2.6172,2.6172,3.923,3.9373,3.9373,3.9373,3.8153,3.6237,3.3544,0.0,0.0,0.0,2.2802,2.1994,2.1695,2.352,0.0,2.8996,3.112,3.3694,3.7375,3.7584,0.0,0.0,0.0,0.0,0.0,0.0,0.0,0.0,0.0,0.0,0.0,3.8397,3.7548,3.706,3.6487,3.6212,3.6212,3.676,3.7291,3.7805,3.8397,3.8907,3.9373,3.9373,3.9373,3.9373,0.0,0.0,0.0,3.9373,3.923,3.8931,3.8931,3.8797,3.8476,3.7365,3.7017,3.7018,3.6315,3.607,3.6134,3.6569,3.6133,3.5519,3.5519,3.5519,3.5591,3.5953,3.636,3.6717,3.6738,3.6777,3.6694,3.6332,3.5926,3.5397,3.4641,3.4201,3.3761,3.3017,3.2848,3.2693,3.2168,3.1916,3.1934,3.2232,3.1778,3.1582,3.1957,3.098,3.0099,2.9647,2.9244,2.8987,2.8987,2.8504,2.8106,2.7898,2.7351,2.6955,2.6778,2.6713,2.667,2.6646,2.6596,2.6602,2.6602,2.6602,2.6602,2.6602,2.6602,2.6602,3.923,3.9373,3.9373,3.9373,3.7823,3.54,3.2049,2.9146,0.0,0.0,2.0946,2.0546,2.0809,2.2114,2.4132,0.0,2.8685,3.1179,3.5639,3.6058,3.6776,0.0,0.0,0.0,0.0,0.0,0.0,0.0,0.0,0.0,0.0,3.8583,3.8144,3.8144,3.7329,3.6877,3.6877,3.7738,3.8144,3.8144,3.898,3.9373,3.9373,3.9373,3.9373,3.9373,0.0,0.0,0.0,3.9373,3.9373,3.9373,3.9373,3.9525,3.9506,3.8159,3.7757,3.7841,3.7123,3.6843,3.6964,3.7587,3.6996,3.5973,3.5782,3.5718,3.5878,3.6446,3.6766,3.7066,3.7648,3.7544,3.7202,3.6897,3.6332,3.5656,3.4912,3.4742,3.4506,3.3795,3.366,3.3389,3.2666,3.2701,3.2778,3.2616,3.2319,3.2264,3.268,3.2104,3.1421,3.0797,2.9977,2.9427,2.928,2.9244,2.9064,2.8552,2.854,2.8386,2.8037,2.7749,2.7562,2.7451,2.7216,2.7115,2.7115,2.7115,2.7115,2.7115,2.7115,2.7115,3.923,3.9373,3.9373,3.9373,3.7494,3.4711,3.136,0.0,2.4837,2.1465,2.0258,2.0104,2.1067,2.1595,2.3068,2.6658,2.856,3.1001,3.504,3.6537,3.7764,0.0,0.0,0.0,0.0,0.0,0.0,0.0,0.0,0.0,0.0,3.9301,3.9265,3.9265,3.9156,3.909,3.909,3.9228,3.9265,3.9265,3.9337,3.9373,3.9373,3.9373,3.9373,3.9373,0.0,0.0,0.0,3.9373,3.9373,3.9373,3.9373,3.949,3.9506,3.8791,3.8591,3.8601,3.7929,3.7706,3.7706,3.7793,3.7706,3.7472,3.6722,3.6508,3.6507,3.6569,3.7142,3.7709,3.7779,3.8312,3.8464,3.7134,3.6761,3.6468,3.569,3.5498,3.5261,3.4539,3.4404,3.4167,3.3423,3.2788,3.25,3.2898,3.2669,3.264,3.3072,3.2762,3.2472,3.2399,3.1641,3.087,3.0136,3.0099,2.9745,2.8977,2.894,2.8761,2.835,2.8664,2.8664,2.8294,2.8603,2.8767,2.8767,2.8767,2.8767,2.8767,2.8767,2.8767,3.8422,3.911,3.932,3.8901,3.6836,3.4023,3.0702,0.0,2.4186,2.1286,2.0168,1.9822,2.0243,2.0749,2.1844,2.4109,2.5033,2.6836,3.0791,3.2138,3.3784,0.0,0.0,0.0,0.0,0.0,0.0,0.0,0.0,0.0,0.0,0.0,3.9828,3.9403,3.9373,3.9373,3.9373,3.9373,3.9373,3.9373,3.9373,3.9373,3.9373,3.9373,3.9373,0.0,0.0,0.0,0.0,3.9373,3.917,3.8811,3.8811,3.9195,3.9629,3.8464,3.8647,3.9475,3.873,3.8469,3.8525,3.9022,3.9183,3.8941,3.7703,3.7322,3.7322,3.7322,3.7876,3.846,3.8438,3.8712,3.8734,3.7719,3.711,3.6728,3.64,3.596,3.5498,3.5194,3.5182,3.4945,3.4201,3.3829,3.3475,3.3064,3.2891,3.2913,3.3178,3.306,3.3049,3.3303,3.2155,3.1286,3.0944,3.0907,3.0797,3.0467,2.9989,2.9856,3.0172,2.9441,2.9368,3.0172,2.9405,2.9244,2.9721,2.9721,2.9721,2.9721,2.9721,2.9721,3.7353,3.8302,3.8721,3.8212,3.6118,3.3365,0.0,2.6871,2.3797,2.0987,2.0019,1.9744,1.9856,2.017,2.0865,2.2345,2.2786,2.4328,2.8338,2.9624,0.0,0.0,0.0,0.0,0.0,0.0,0.0,0.0,0.0,0.0,0.0,0.0,4.0307,3.9439,3.9373,3.9373,3.9373,3.9373,3.9373,3.9373,3.9373,3.9373,3.9373,3.9373,3.9373,0.0,0.0,0.0,0.0,3.9373,3.914,3.8691,3.8482,3.8834,3.9375,3.8341,3.8715,3.9715,3.9375,3.9262,3.9342,3.9927,4.0113,3.9901,3.8805,3.8302,3.8104,3.8104,3.8663,3.9262,3.9262,3.9293,3.914,3.8386,3.7811,3.7326,3.6898,3.6356,3.587,3.5656,3.56,3.543,3.4912,3.4641,3.4262,3.3559,3.339,3.3402,3.3641,3.3594,3.3676,3.4096,3.2926,3.2021,3.1788,3.1751,3.1641,3.1433,3.087,3.0797,3.1397,3.032,3.0246,3.1397,3.0283,2.9989,3.054,3.054,3.054,3.054,3.054,3.054,3.6102,3.6956,3.7434,3.7434,3.5429,3.2647,2.9355,2.6518,2.3678,2.0397,1.9708,1.9821,2.0227,1.998,2.0273,2.2021,2.3051,2.4986,2.9022,3.0702,0.0,0.0,0.0,0.0,0.0,0.0,0.0,0.0,0.0,0.0,0.0,0.0,4.0756,3.9469,3.9373,3.9373,3.9373,3.9373,3.9373,3.9373,3.9373,3.9373,3.9373,3.9373,0.0,0.0,0.0,0.0,0.0,3.9373,3.9373,3.9313,3.8661,3.8489,3.8646,3.8741,3.8832,3.9049,3.9825,4.0087,4.0087,4.0113,4.0113,4.0113,4.0087,3.9532,3.8881,3.8881,3.948,4.0087,4.0087,4.0113,3.9876,3.9146,3.9001,3.8584,3.7126,3.6774,3.6559,3.5746,3.56,3.56,3.56,3.4979,3.4493,3.4493,3.4268,3.4264,3.4712,3.4484,3.4464,3.4962,3.4284,3.344,3.2656,3.2583,3.2265,3.147,3.1397,3.1397,3.1397,3.1397,3.1397,3.1397,3.1397,3.1397,3.1397,3.1397,3.1397,3.1397,3.1397,3.1397,3.3118,3.4077,3.4454,3.348,3.1675,2.9415,2.6518,2.4537,2.2622,2.0217,1.9708,1.9744,1.9874,1.9767,2.0614,2.3441,2.4094,2.5375,2.8487,0.0,0.0,0.0,0.0,0.0,0.0,0.0,0.0,0.0,0.0,0.0,0.0,0.0,0.0,3.9439,3.9373,3.9373,3.9373,3.9373,3.9373,3.9373,3.9373,3.9373,3.9373,0.0,0.0,0.0,0.0,0.0,0.0,3.9373,3.914,3.8661,3.7973,3.7825,3.7933,3.8072,3.844,3.9016,3.9825,4.0113,4.0113,4.0113,4.0113,4.0113,4.0113,3.9927,3.9714,3.9714,3.9901,4.0113,4.0113,4.0113,4.0045,3.9833,3.9361,3.8873,3.8391,3.8207,3.7839,3.7068,3.6934,3.6899,3.6731,3.6187,3.5718,3.5564,3.5441,3.5402,3.5354,3.5231,3.5359,3.5856,3.5114,3.427,3.3476,3.344,3.333,3.3073,3.2522,3.2485,3.2999,3.1984,3.1911,3.2999,3.1947,3.1678,3.2228,3.2228,3.2228,3.2228,3.2228,3.2228,3.0371,3.17,3.2306,3.1441,2.969,2.7582,2.5402,2.3549,2.1834,2.0067,1.9708,1.9708,1.9708,1.9708,2.0546,2.308,2.3708,2.4986,0.0,0.0,0.0,0.0,0.0,0.0,0.0,0.0,0.0,0.0,0.0,0.0,0.0,0.0,0.0,3.9403,3.9373,3.9373,3.9373,3.9373,3.9373,3.9373,3.9373,3.9373,3.9373,0.0,0.0,0.0,0.0,0.0,0.0,3.9373,3.917,3.8721,3.8033,3.7684,3.7546,3.7682,3.7868,3.8185,3.9262,3.9636,3.9688,3.9978,4.0113,4.0113,4.0113,4.0113,4.0113,4.0113,4.0113,4.0113,4.0113,4.0113,4.0113,4.0113,3.9741,3.9354,3.9057,3.8905,3.8633,3.8074,3.7983,3.7931,3.7681,3.738,3.6981,3.6517,3.6448,3.6452,3.6453,3.6177,3.6193,3.6714,3.6009,3.5298,3.4798,3.4174,3.3807,3.3807,3.333,3.3293,3.377,3.2852,3.2779,3.377,3.2816,3.2559,3.306,3.306,3.306,3.306,3.306,3.306,0.0,2.961,3.0632,3.06,2.8818,2.6753,2.5474,2.3346,0.0,2.0032,1.9726,1.9738,1.9887,1.9857,2.0307,2.1844,2.2643,2.441,0.0,0.0,0.0,0.0,0.0,0.0,0.0,0.0,0.0,0.0,0.0,0.0,0.0,0.0,0.0,0.0,3.9373,3.9373,3.9373,3.9373,3.9373,3.9373,3.9373,3.9373,3.9373,0.0,0.0,0.0,0.0,0.0,0.0,3.9373,3.9373,3.9313,3.8661,3.7973,3.7417,3.7549,3.7188,3.6813,3.8353,3.8908,3.9016,3.985,4.0113,4.0113,4.0113,4.0113,4.0113,4.0113,4.0113,4.0113,4.0113,4.0113,4.0113,4.0113,4.0113,3.9893,3.9211,3.9125,3.9101,3.8887,3.8837,3.8796,3.8612,3.8564,3.8296,3.7588,3.7446,3.7541,3.8002,3.735,3.7027,3.7521,3.6868,3.6376,3.6376,3.4908,3.399,3.399,3.399,3.399,3.399,3.399,3.399,3.399,3.399,3.399,3.399,3.399,3.399,3.399,3.399,3.399,2.453,0.0,2.6151,2.5598,2.474,2.3809,0.0,2.2069,2.1154,2.0343,1.9909,2.0157,2.1714,2.1156,2.1724,2.5578,2.6357,2.7495,0.0,0.0,0.0,0.0,0.0,0.0,0.0,0.0,0.0,0.0,0.0,0.0,0.0,0.0,0.0,0.0,3.9373,3.9373,3.9373,3.9373,3.9373,3.9373,3.9373,3.9373,0.0,0.0,0.0,0.0,0.0,0.0,0.0,3.9373,3.9373,3.9313,3.8661,3.7973,3.7417,3.7549,3.7188,3.6813,3.8353,3.8908,3.9016,3.985,4.0113,4.0113,4.0113,4.0113,4.0113,4.0113,4.0113,4.0113,4.0113,4.0113,4.0113,4.0113,4.0113,4.0054,3.9893,4.0163,4.0384,4.0178,4.0186,4.0273,4.0453,4.013,3.9932,4.0139,3.9644,3.9312,3.9426,3.8732,3.8287,3.838,3.7698,3.7235,3.7235,3.6266,3.5716,3.5716,3.5716,3.5716,3.5716,3.5716,3.5716,3.5716,3.5716,3.5716,3.5716,3.5716,3.5716,3.5716,3.5716,3.5716,2.2571,2.4111,2.558,2.518,2.451,2.3805,2.345,2.2067,2.0746,2.0375,1.9997,2.0127,2.1515,2.1695,2.2622,2.5704,2.726,0.0,0.0,0.0,0.0,0.0,0.0,0.0,0.0,0.0,0.0,0.0,0.0,0.0,0.0,0.0,0.0,0.0,0.0,3.9373,3.9373,3.9373,3.9373,3.9373,3.9373,3.9373,0.0,0.0,0.0,0.0,0.0,0.0,3.9373,3.9373,3.9373,3.9343,3.902,3.8452,3.7893,3.7946,3.7534,3.7117,3.8011,3.859,3.9016,3.985,4.0113,4.0113,4.0113,4.0113,4.0113,4.0113,4.0113,4.0113,4.0113,4.0113,4.0113,4.0113,4.0113,4.0113,4.0113,4.0332,4.0645,4.1075,4.1187,4.1292,4.1604,4.1404,4.1172,4.1099,4.0728,4.0451,4.0451,3.9753,3.9239,3.9239,3.8542,3.8028,3.8028,3.7661,3.7074,3.634,3.6303,3.6303,3.6303,3.6399,3.6495,3.6495,3.663,3.6602,3.6303,3.6413,3.6413,3.6303,3.6303,3.6303,2.2025,2.4396,2.6674,2.6185,2.553,2.4942,2.4724,2.2573,2.0622,2.0622,2.0284,2.0337,2.1406,2.2443,0.0,0.0,0.0,0.0,0.0,0.0,0.0,0.0,0.0,0.0,0.0,0.0,0.0,0.0,0.0,0.0,0.0,0.0,0.0,0.0,0.0,0.0,3.9373,3.9373,3.9373,3.9373,3.9373,3.9373,3.9373,0.0,0.0,0.0,0.0,0.0,3.9373,3.9373,3.9373,3.9373,3.9373,3.899,3.8427,3.8537,3.8151,3.7624,3.7902,3.8547,3.9342,3.991,4.0113,4.0113,4.0113,4.0113,4.0113,4.0113,4.0113,4.0113,4.0113,4.0113,4.0113,4.0113,4.0113,4.0113,4.0113,4.0113,4.0446,4.1582,4.1801,4.1951,4.2426,4.247,4.2249,4.1572,4.1352,4.1279,4.1279,4.0598,4.0084,4.0084,3.946,3.9093,3.9093,3.8946,3.8285,3.6927,3.6743,3.667,3.667,3.6869,3.703,3.7081,3.7347,3.7254,3.6734,3.6976,3.6936,3.667,3.667,3.667,2.3868,2.5757,2.6489,2.3885,2.4017,2.457,2.3547,2.2645,2.1991,2.1991,2.1664,2.2263,2.5166,2.5405,2.6333,0.0,0.0,0.0,0.0,0.0,0.0,0.0,0.0,0.0,0.0,0.0,0.0,0.0,0.0,0.0,0.0,0.0,0.0,0.0,0.0,0.0,0.0,3.9373,3.9373,3.9373,3.9373,3.9373,3.9373,3.9373,0.0,0.0,0.0,0.0,3.9373,3.9373,3.9373,3.9373,3.9373,3.899,3.8497,3.9229,3.91,3.8616,3.9424,4.021,4.0744,4.0265,4.0113,4.0113,4.0113,4.0113,4.0113,4.0113,4.0113,4.0113,4.0113,4.0113,4.0113,4.0113,4.0113,4.0113,4.0113,4.0113,4.0441,4.1568,4.1796,4.2129,4.312,4.3331,4.3294,4.313,4.2543,4.2139,4.2139,4.1389,4.0912,4.0912,4.0802,4.0728,4.0728,4.012,3.9606,3.935,3.8726,3.8322,3.8322,3.8382,3.85,3.8745,3.8773,3.8747,3.8677,3.8694,3.8605,3.8322,3.8322,3.8322,2.2426,2.417,2.5306,2.4116,2.5793,2.7375,2.6058,2.5081,2.4461,2.4461,2.4113,2.4388,2.6243,0.0,2.9564,3.3544,0.0,0.0,0.0,0.0,0.0,0.0,0.0,0.0,0.0,0.0,0.0,0.0,0.0,0.0,0.0,0.0,0.0,0.0,0.0,0.0,0.0,4.01,3.9879,3.9409,3.9884,3.9849,3.9373,3.9373,3.9373,0.0,0.0,3.9373,3.9373,3.9373,3.9373,3.9373,3.9373,3.923,3.9037,3.992,4.0091,4.0071,4.0903,4.1238,4.1163,4.0796,4.0696,4.0595,4.0214,4.0113,4.0113,4.0113,4.0113,4.0113,4.0113,4.0113,4.0113,4.0113,4.0113,4.0113,4.0113,4.0113,4.0417,4.1595,4.181,4.2165,4.3303,4.3515,4.3515,4.3515,4.3167,4.2947,4.2947,4.2249,4.1772,4.1772,4.1352,4.1095,4.1095,4.0781,4.0194,3.9313,3.8909,3.8743,3.889,3.8942,3.9073,3.9364,3.9534,3.9534,3.9364,3.9364,3.9223,3.8927,3.92,3.935,2.1601,2.3078,2.4493,2.5124,2.7208,2.8974,2.8541,2.7504,2.6787,2.7374,2.7116,2.7021,0.0,3.0133,0.0,0.0,0.0,0.0,0.0,0.0,0.0,0.0,0.0,0.0,0.0,0.0,0.0,0.0,0.0,0.0,0.0,0.0,0.0,0.0,0.0,0.0,0.0,4.0792,4.0656,4.0025,4.069,4.055,3.9702,3.9702,3.9559,3.9373,3.9373,3.9373,3.9373,3.9373,3.9373,3.9409,3.9595,3.9955,4.0378,4.1062,4.1566,4.1892,4.2327,4.2128,4.1677,4.1492,4.1474,4.1305,4.0561,4.0383,4.0316,4.0146,4.0113,4.0113,4.0113,4.0113,4.0113,4.0113,4.0113,4.0113,4.0113,4.0113,4.0392,4.1397,4.1725,4.2124,4.316,4.3428,4.3515,4.3515,4.3515,4.3515,4.3515,4.2947,4.258,4.258,4.2029,4.1589,4.1389,4.1389,4.0765,3.935,3.9276,3.9341,3.9574,3.9574,3.9717,4.0052,4.0337,4.0337,4.0064,4.0064,3.9888,3.9574,3.9967,4.0194,2.3764,2.4567,2.4954,2.6176,2.6154,2.6488,2.8923,2.8441,2.8205,3.064,3.0582,3.0552,3.1839,3.4262,0.0,0.0,0.0,0.0,0.0,0.0,0.0,0.0,0.0,0.0,0.0,0.0,0.0,0.0,0.0,0.0,0.0,0.0,0.0,0.0,0.0,0.0,0.0,0.0,4.1853,4.1788,4.1853,4.1429,4.0588,4.0588,4.017,3.9373,3.9373,3.9373,3.9373,3.9373,3.9373,3.9481,4.0274,4.1593,4.3017,4.3078,4.3647,4.4243,4.3563,4.3287,4.3118,4.2455,4.2219,4.2083,4.1339,4.1136,4.0967,4.0282,4.0113,4.0113,4.0113,4.0113,4.0113,4.0113,4.0113,4.0113,4.0113,4.0113,4.0279,4.085,4.1442,4.2,4.2655,4.3178,4.3515,4.3515,4.3515,4.3515,4.3515,4.3441,4.3404,4.3404,4.3368,4.302,4.2286,4.2213,4.1846,4.0985,4.0912,4.0928,4.096,4.096,4.1114,4.1441,4.147,4.147,4.1441,4.1441,4.129,4.096,4.1001,4.1022,2.2332,2.3589,2.4933,2.6139,2.7255,2.8404,2.9828,3.1061,3.2292,3.3696,3.3784,3.3903,3.4831,0.0,0.0,0.0,0.0,0.0,0.0,0.0,0.0,0.0,0.0,0.0,0.0,0.0,0.0,0.0,0.0,0.0,0.0,0.0,0.0,0.0,0.0,0.0,0.0,0.0,4.2269,4.28,4.28,4.2363,4.1495,4.1495,4.1329,4.1028,4.1028,4.1028,4.0961,4.0447,4.055,4.1062,4.1395,4.2269,4.3323,4.3323,4.3827,4.4581,4.4248,4.4147,4.4012,4.3234,4.2997,4.2861,4.2117,4.188,4.1711,4.1001,4.0764,4.0663,4.0214,4.0113,4.0113,4.0113,4.0113,4.0113,4.0113,4.0113,4.0279,4.0803,4.1397,4.1979,4.2596,4.316,4.3515,4.3515,4.3515,4.3515,4.3515,4.3515,4.3515,4.3515,4.3515,4.3404,4.3057,4.3057,4.291,4.2616,4.1662,4.1095,4.1095,4.1095,4.1267,4.1585,4.1585,4.1698,4.1865,4.1698,4.1512,4.14,4.1703,4.1846,2.1823,2.3141,2.4882,2.6069,2.8318,3.0495,3.1537,3.3182,3.4942,3.6427,3.6417,3.6237,3.6686,0.0,0.0,0.0,0.0,0.0,0.0,0.0,0.0,0.0,0.0,0.0,0.0,0.0,0.0,0.0,0.0,0.0,0.0,0.0,0.0,0.0,0.0,0.0,0.0,0.0,4.2013,4.2862,4.3169,4.2986,4.2426,4.2426,4.2269,4.1981,4.1981,4.1981,4.1949,4.1363,4.1626,4.2426,4.2426,4.2923,4.371,4.371,4.4093,4.4615,4.4615,4.4615,4.4513,4.3944,4.3775,4.3639,4.2895,4.2658,4.2489,4.1745,4.1542,4.1373,4.0629,4.0282,4.0113,4.0113,4.0113,4.0113,4.0113,4.0113,4.0204,4.0577,4.1286,4.1937,4.2342,4.3014,4.3515,4.3515,4.3515,4.3515,4.3515,4.3515,4.3515,4.3515,4.3515,4.3515,4.3515,4.3515,4.3515,4.3515,4.247,4.1882,4.1882,4.1882,4.1977,4.2224,4.2187,4.2307,4.2464,4.2307,4.2187,4.2208,4.2529,4.269,2.2853,2.364,2.4933,2.6273,2.9144,3.2133,3.4089,3.4533,3.5462,3.8751,3.8362,3.7434,3.7434,3.7434,0.0,0.0,0.0,0.0,0.0,0.0,0.0,0.0,0.0,0.0,0.0,0.0,0.0,0.0,0.0,0.0,0.0,0.0,0.0,0.0,0.0,0.0,0.0,0.0,4.1131,4.2013,4.2862,4.329,4.329,4.329,4.2831,4.2013,4.2013,4.2013,4.2013,4.2013,4.252,4.3323,4.3323,4.386,4.4615,4.4615,4.4615,4.4615,4.4615,4.4615,4.4615,4.4615,4.4615,4.4479,4.3673,4.3409,4.324,4.2523,4.2286,4.2117,4.1407,4.0663,4.0113,4.0113,4.0113,4.0113,4.0113,4.0113,4.0113,4.0113,4.1024,4.181,4.181,4.2753,4.3497,4.3515,4.3515,4.3515,4.3515,4.3515,4.3515,4.3515,4.3515,4.3515,4.3515,4.3515,4.3515,4.3515,4.3515,4.3515,4.3515,4.3515,4.3515,4.3515,4.3515,4.3515,4.3515,4.3515,4.3515,4.3515,4.3515,4.3515,2.2265,2.3969,2.6333,2.7679,3.12,3.4724,3.6214,3.6937,3.7715,3.9127,3.9074,3.8661,3.8182,0.0,0.0,0.0,0.0,0.0,0.0,0.0,0.0,0.0,0.0,0.0,0.0,0.0,0.0,0.0,0.0,0.0,0.0,0.0,0.0,0.0,0.0,0.0,0.0,0.0,0.0,4.2013,4.3499,4.4207,4.4207,4.4207,4.4064,4.3827,4.3827,4.3827,4.3827,4.3827,4.3621,4.3383,4.3977,4.4384,4.4615,4.4615,4.4615,4.4615,4.4615,4.4615,4.4615,4.4615,4.4615,4.4581,4.4316,4.4215,4.4079,4.3301,4.3064,4.2895,4.2151,4.1813,4.1399,4.035,4.0113,4.0113,4.0113,4.0113,4.0113,4.0113,4.0672,4.1296,4.1746,4.2442,4.3087,4.3426,4.3515,4.3515,4.3515,4.3515,4.3515,4.3515,4.3515,4.3515,4.3515,4.3515,4.3515,4.3515,4.3515,4.3515,4.3515,4.3515,4.3515,4.3515,4.3515,4.3515,4.3515,4.3515,4.3515,4.3515,4.3515,4.3515,2.373,2.5698,2.8218,3.0073,3.3036,3.5968,3.7793,3.8741,3.9343,3.9691,3.9619,3.9379,3.923,0.0,0.0,0.0,0.0,0.0,0.0,0.0,0.0,0.0,0.0,0.0,0.0,0.0,0.0,0.0,0.0,0.0,0.0,0.0,0.0,0.0,0.0,0.0,0.0,0.0,0.0,0.0,4.341,4.427,4.4615,4.4615,4.4615,4.4615,4.4615,4.4615,4.4615,4.4615,4.4298,4.3889,4.4384,4.4615,4.4615,4.4615,4.4615,4.4615,4.4615,4.4615,4.4615,4.4615,4.4615,4.4615,4.4615,4.4615,4.4513,4.4012,4.3876,4.3707,4.2929,4.2726,4.2455,4.1264,4.0756,4.0527,4.0527,4.0316,4.0113,4.0113,4.0528,4.1036,4.1362,4.2124,4.2789,4.3142,4.3356,4.3515,4.3515,4.3515,4.3515,4.3515,4.3515,4.3515,4.3515,4.3515,4.3515,4.3515,4.3515,4.3515,4.3515,4.3515,4.3515,4.3515,4.3515,4.3515,4.3515,4.3515,4.3515,4.3515,4.3515,4.3515,2.6253,2.8,3.025,3.2916,3.4741,3.6477,3.8871,3.9918,4.0397,4.0397,0.0,3.9768,4.0307,0.0,0.0,0.0,0.0,0.0,0.0,0.0,0.0,0.0,0.0,0.0,0.0,0.0,0.0,0.0,0.0,0.0,0.0,0.0,0.0,0.0,0.0,0.0,0.0,0.0,0.0,0.0,0.0,4.3827,4.4615,4.4615,4.4615,4.4615,4.4615,4.4615,4.4615,4.4615,4.4615,4.4615,4.4615,4.4615,4.4615,4.4615,4.4615,4.4615,4.4615,4.4615,4.4615,4.4615,4.4615,4.4615,4.4615,4.4615,4.4615,4.4615,4.4615,4.4418,4.3707,4.3538,4.3335,4.2658,4.188,4.1305,4.1305,4.0764,4.0316,4.0316,4.0686,4.1081,4.1163,4.1995,4.2649,4.2655,4.316,4.3515,4.3515,4.3515,4.3515,4.3515,4.3515,4.3515,4.3515,4.3515,4.3515,4.3515,4.3515,4.3515,4.3515,4.3515,4.3515,4.3515,4.3515,4.3515,4.3515,4.3515,4.3515,4.3515,4.3515,4.3515,2.5378,2.7552,3.037,3.3515,3.6447,3.8721,3.9254,3.9918,4.0397,4.0397,4.0696,4.0846,0.0,0.0,0.0,0.0,0.0,0.0,0.0,0.0,0.0,0.0,0.0,0.0,0.0,0.0,0.0,0.0,0.0,0.0,0.0,0.0,0.0,0.0,0.0,0.0,0.0,0.0,0.0,0.0,4.3591,4.4412,4.4615,4.4615,4.4615,4.4615,4.4615,4.4615,4.4615,4.4615,4.4615,4.4615,4.4615,4.4615,4.4615,4.4615,4.4615,4.4615,4.4615,4.4615,4.4615,4.4615,4.4615,4.4615,4.4615,4.4615,4.4615,4.4615,4.4615,4.4581,4.4412,4.4316,4.4282,4.4141,4.3031,4.2049,4.2049,4.1914,4.1839,4.1839,4.191,4.2311,4.3254,4.2775,4.229,4.245,4.3051,4.3515,4.3515,4.3515,4.3515,4.3515,4.3515,4.3515,4.3515,4.3515,4.3515,4.3515,4.3515,4.3515,4.3515,4.3515,4.3515,4.3515,4.3515,4.3515,4.3515,4.3515,4.3515,4.3515,4.3515,4.3515,2.6275,2.8747,3.1762,3.5467,3.7913,3.9373,3.9373,3.9918,4.0397,4.0397,4.0666,0.0,0.0,0.0,0.0,0.0,0.0,0.0,0.0,0.0,0.0,0.0,0.0,0.0,0.0,0.0,0.0,0.0,0.0,0.0,0.0,0.0,0.0,0.0,0.0,0.0,4.0025,4.1362,4.2237,4.2645,4.3977,4.4615,4.4615,4.4615,4.4615,4.4615,4.4615,4.4615,4.4615,4.4615,4.4615,4.4615,4.4615,4.4615,4.4615,4.4615,4.4615,4.4615,4.4615,4.4615,4.4615,4.4615,4.4615,4.4615,4.4615,4.4615,4.4615,4.4615,4.4615,4.4615,4.4615,4.4615,4.4615,4.4615,4.3673,4.2828,4.2828,4.2557,4.2286,4.2286,4.2286,4.249,4.3133,4.276,4.2658,4.3565,4.3597,4.3515,4.3515,4.3515,4.3515,4.3515,4.3515,4.3515,4.3515,4.3515,4.3515,4.3515,4.3515,4.3739,4.4236,4.4268,4.4007,4.3515,4.3515,4.3515,4.3515,4.3515,4.3515,4.3515,4.3515,4.3515,2.7177,3.013,3.3537,3.7421,3.8901,3.9373,3.9373,3.9828,4.0217,4.0217,0.0,0.0,0.0,0.0,0.0,0.0,0.0,0.0,0.0,0.0,0.0,0.0,0.0,0.0,0.0,0.0,0.0,0.0,0.0,0.0,0.0,0.0,0.0,0.0,0.0,0.0,4.0481,4.133,4.2205,4.3078,4.4093,4.4615,4.4615,4.4615,4.4615,4.4615,4.4615,4.4615,4.4615,4.4615,4.4615,4.4615,4.4615,4.4615,4.4615,4.4615,4.4615,4.4615,4.4615,4.4615,4.4615,4.4615,4.4615,4.4615,4.4615,4.4615,4.4615,4.4615,4.4615,4.4615,4.4615,4.4615,4.4615,4.4615,4.4079,4.3606,4.3606,4.3132,4.2719,4.2719,4.2765,4.2751,4.2482,4.2827,4.3408,4.4111,4.3816,4.3681,4.4286,4.4305,4.4305,4.4305,4.4305,4.4305,4.4305,4.4305,4.4305,4.4305,4.4305,4.4729,4.5602,4.5663,4.5089,4.3936,4.3789,4.3642,4.3515,4.3515,4.3515,4.3515,4.3515,4.3588,2.5559,2.9828,3.4577,3.7661,3.8901,3.9373,3.9373,3.9463,3.9523,0.0,0.0,0.0,0.0,0.0,0.0,0.0,0.0,0.0,0.0,0.0,0.0,0.0,0.0,0.0,0.0,0.0,0.0,0.0,0.0,0.0,0.0,0.0,0.0,0.0,0.0,0.0,3.9589,4.0447,4.1297,4.2173,4.3827,4.4615,4.4615,4.4615,4.4615,4.4615,4.4615,4.4615,4.4615,4.4615,4.4615,4.4615,4.4615,4.4615,4.4615,4.4615,4.4615,4.4615,4.4615,4.4615,4.4615,4.4615,4.4615,4.4615,4.4615,4.4615,4.4615,4.4615,4.4615,4.4615,4.4615,4.4615,4.4615,4.4615,4.4513,4.4445,4.4445,4.4378,4.431,4.431,4.47,4.4629,4.324,4.4174,4.4121,4.1226,4.2318,4.4488,4.7315,4.7682,4.7682,4.7682,4.7682,4.7682,4.7682,4.7682,4.7682,4.7682,4.7682,4.7736,4.7882,4.7865,4.7132,4.5606,4.4888,4.4208,4.3515,4.3515,4.3515,4.3515,4.3515,4.3864,2.7698,3.1097,3.4424,3.7601,3.8631,3.8931,3.932,3.9373,3.9553,0.0,0.0,0.0,0.0,0.0,0.0,0.0,0.0,0.0,0.0,0.0,0.0,0.0,0.0,0.0,0.0,0.0,0.0,0.0,0.0,0.0,0.0,4.3562,4.2707,4.1462,4.0961,0.0,4.01,4.0485,4.1363,4.2738,4.4006,4.4615,4.4615,4.4615,4.4615,4.4615,4.4615,4.4615,4.4615,4.4615,4.4615,4.4615,4.4615,4.4615,4.4615,4.4615,4.4615,4.4615,4.4615,4.4615,4.4615,4.4615,4.4615,4.4615,4.4615,4.4615,4.4615,4.4615,4.4615,4.4615,4.4615,4.4615,4.4615,4.4615,4.4615,4.4615,4.4615,4.4615,4.4615,4.4615,4.4797,4.4898,4.4656,4.4845,4.4946,4.4738,4.435,4.5116,4.7931,4.8306,4.8306,4.8306,4.8306,4.8306,4.8306,4.8306,4.8306,4.8306,4.8306,4.8306,4.8306,4.8306,4.7773,4.6617,4.5773,4.5222,4.4835,4.4837,4.4819,4.4819,4.4819,4.5039,2.8436,3.0742,3.2813,3.6432,3.7785,3.8508,3.9564,0.0,0.0,0.0,0.0,0.0,0.0,0.0,0.0,0.0,0.0,0.0,0.0,0.0,0.0,0.0,0.0,0.0,0.0,0.0,0.0,0.0,0.0,0.0,0.0,4.3977,4.3229,4.2363,4.1462,4.0927,4.069,4.0927,4.1658,4.2986,4.4064,4.4615,4.4615,4.4615,4.4615,4.4615,4.4615,4.4615,4.4615,4.4615,4.4615,4.4615,4.4615,4.4615,4.4615,4.4615,4.4615,4.4615,4.4615,4.4615,4.4615,4.4615,4.4615,4.4615,4.4615,4.4615,4.4615,4.4615,4.4615,4.4615,4.4615,4.475,4.4852,4.4649,4.475,4.4852,4.4649,4.4615,4.4615,4.4615,4.4615,4.4803,4.5364,4.4981,4.5249,4.7066,4.5775,4.5275,4.711,4.7363,4.7596,4.8248,4.8306,4.8306,4.8306,4.8306,4.8306,4.8306,4.8306,4.8306,4.8306,4.8306,4.8011,4.7421,4.6817,4.6305,4.5883,4.5883,4.5883,4.5883,4.5883,4.5993,2.5234,2.7008,2.9187,3.344,3.6152,3.8278,0.0,0.0,0.0,0.0,0.0,0.0,0.0,0.0,0.0,0.0,0.0,0.0,0.0,0.0,0.0,0.0,0.0,0.0,0.0,0.0,0.0,0.0,0.0,0.0,4.4615,4.4559,4.4121,4.3259,4.2395,4.1528,4.0724,4.1495,4.1949,4.2109,4.3798,4.4615,4.4615,4.4615,4.4615,4.4615,4.4615,4.4615,4.4615,4.4615,4.4615,4.4615,4.4615,4.4615,4.4615,4.4615,4.4615,4.4615,4.4615,4.4615,4.4615,4.4615,4.4615,4.4615,4.4615,4.4615,4.4615,4.4615,4.4615,4.4615,4.4615,4.5128,4.5466,4.4784,4.5128,4.5466,4.475,4.4615,4.4615,4.4615,4.4615,4.4615,4.4671,4.4643,4.4637,4.4776,4.4665,4.4671,4.4776,4.4803,4.5699,4.8055,4.8306,4.8306,4.8306,4.8306,4.8306,4.8306,4.8306,4.8306,4.8306,4.8306,4.8306,4.825,4.8177,4.744,4.5896,4.5901,4.5883,4.5883,4.5883,4.6324,2.5255,2.671,2.8543,3.1462,3.3864,3.5943,3.7626,3.9717,0.0,0.0,0.0,0.0,0.0,0.0,0.0,0.0,0.0,0.0,0.0,0.0,0.0,0.0,0.0,0.0,0.0,0.0,0.0,0.0,0.0,0.0,4.4615,4.4615,4.4179,4.3353,4.3017,4.2173,4.0724,4.156,4.1723,4.1196,4.2923,4.3768,4.3768,4.4355,4.4615,4.4615,4.4615,4.4615,4.4615,4.4615,4.4615,4.4615,4.4615,4.4615,4.4615,4.4615,4.4615,4.4615,4.4615,4.4615,4.4682,4.5128,4.5297,4.5399,4.5872,4.6036,4.6036,4.6036,4.6036,4.6036,4.6036,4.621,4.6346,4.6041,4.6413,4.6684,4.6109,4.5292,4.4615,4.4615,4.4615,4.4615,4.4615,4.4615,4.4615,4.4615,4.4615,4.4615,4.4615,4.4615,4.4934,4.5825,4.7363,4.8306,4.8306,4.8306,4.8306,4.8306,4.8306,4.8306,4.8306,4.8306,4.8306,4.8306,4.8306,4.8011,4.7421,4.7424,4.7462,4.7462,4.7462,4.7609,2.4431,2.5619,2.744,3.0364,3.2007,3.3841,3.7232,0.0,0.0,0.0,0.0,0.0,0.0,0.0,0.0,0.0,0.0,0.0,0.0,0.0,0.0,0.0,0.0,0.0,0.0,0.0,0.0,0.0,0.0,0.0,4.4615,4.4615,4.4179,4.3353,4.3323,4.2614,4.1131,4.1981,4.2173,4.1593,4.3015,4.3739,4.3739,4.4327,4.4615,4.4615,4.4615,4.4615,4.4615,4.4615,4.4615,4.4615,4.4615,4.4615,4.4615,4.4615,4.4615,4.4649,4.4857,4.4987,4.5094,4.5838,4.6075,4.6143,4.665,4.6786,4.6786,4.6786,4.6786,4.6786,4.6786,4.6786,4.6853,4.7124,4.7225,4.7158,4.6853,4.6007,4.5292,4.5094,4.4818,4.4615,4.4615,4.4615,4.4615,4.4615,4.4615,4.4615,4.4615,4.4615,4.4615,4.4615,4.6063,4.7044,4.7044,4.7804,4.8793,4.9865,4.9444,4.9224,4.939,4.9224,4.915,4.915,4.9131,4.9001,4.8727,4.8434,4.8306,4.8306,4.8306,4.8306,0.0,0.0,0.0,0.0,0.0,0.0,0.0,0.0,0.0,0.0,0.0,0.0,0.0,0.0,0.0,0.0,0.0,0.0,0.0,0.0,0.0,0.0,0.0,0.0,0.0,0.0,0.0,0.0,0.0,0.0,4.4615,4.4615,4.4212,4.3383,4.3353,4.2925,4.2078,4.2894,4.3292,4.3259,4.415,4.4559,4.4587,4.4587,4.4615,4.4615,4.4615,4.4615,4.4615,4.4615,4.4615,4.4615,4.4615,4.4615,4.4615,4.4615,4.4649,4.475,4.5466,4.5737,4.5838,4.6583,4.6819,4.6819,4.6853,4.6853,4.6853,4.6853,4.6853,4.6853,4.6853,4.6853,4.7056,4.7736,4.7394,4.6853,4.6853,4.6853,4.6684,4.6114,4.5297,4.4682,4.4682,4.4716,4.475,4.475,4.475,4.475,4.475,4.475,4.475,4.475,4.475,4.475,4.475,4.7003,4.9804,5.2999,5.1699,5.1022,5.1581,5.1116,5.0819,5.0802,5.0815,5.0428,4.9625,4.8764,4.8343,4.8306,4.8343,4.8343,2.2665,0.0,0.0,0.0,0.0,0.0,0.0,0.0,0.0,0.0,0.0,0.0,0.0,0.0,0.0,0.0,0.0,0.0,0.0,0.0,0.0,0.0,0.0,0.0,0.0,0.0,0.0,0.0,0.0,4.4615,4.4615,4.4615,4.4468,4.427,4.4241,4.3798,4.2956,4.3169,4.2986,4.2363,4.3229,4.3651,4.368,4.4327,4.4615,4.4615,4.4615,4.4615,4.4615,4.4615,4.4615,4.4615,4.4615,4.4615,4.4682,4.5196,4.5399,4.55,4.6244,4.6481,4.6616,4.7361,4.7597,4.7699,4.824,4.8376,4.8376,4.8376,4.8376,4.8376,4.8376,4.8376,4.8443,4.8646,4.8545,4.8376,4.8376,4.8376,4.8037,4.6819,4.6346,4.6177,4.6177,4.7056,4.7767,4.7767,4.7767,4.7767,4.7767,4.7767,4.7767,4.7767,4.7767,4.7767,4.7767,5.0303,5.2218,5.313,5.1405,5.0744,5.1573,5.1463,5.1186,5.0802,5.1189,5.1079,5.0452,4.9627,4.893,4.8306,4.893,4.9243,2.4086,2.4526,0.0,0.0,0.0,0.0,0.0,3.1698,0.0,0.0,0.0,0.0,0.0,0.0,0.0,0.0,0.0,0.0,0.0,0.0,0.0,0.0,0.0,0.0,0.0,0.0,0.0,0.0,4.4615,4.4615,4.4615,4.4615,4.4615,4.4615,4.4615,4.4355,4.386,4.386,4.3591,4.3075,4.3621,4.386,4.386,4.4355,4.4615,4.4615,4.4615,4.4615,4.4615,4.4615,4.4615,4.4615,4.4615,4.4818,4.5094,4.5534,4.5906,4.6244,4.6989,4.7259,4.7394,4.8139,4.8376,4.8443,4.8883,4.9018,4.9018,4.9018,4.9018,4.9018,4.9018,4.9018,4.9018,4.9018,4.9018,4.9018,4.9018,4.9018,4.8748,4.7868,4.7699,4.7699,4.7699,4.8443,4.9018,4.9018,4.9018,4.9018,4.9018,4.9018,4.9018,4.9018,4.9018,4.9018,4.9018,5.0507,5.1703,5.2302,5.1429,5.1115,5.1667,5.1765,5.1791,5.1809,5.1804,5.1584,5.1132,5.0435,4.9848,4.937,4.9627,4.9884,2.6269,2.6454,2.7351,0.0,0.0,0.0,3.1292,3.1664,0.0,0.0,0.0,0.0,0.0,0.0,0.0,0.0,0.0,0.0,0.0,0.0,0.0,0.0,0.0,0.0,0.0,0.0,0.0,4.4525,4.4615,4.4615,4.4615,4.4615,4.4615,4.4615,4.4615,4.4615,4.4615,4.4615,4.4615,4.4615,4.4615,4.4615,4.4615,4.4615,4.4615,4.4615,4.4615,4.4615,4.4615,4.4615,4.4615,4.4615,4.4716,4.5128,4.5737,4.5872,4.6346,4.7022,4.7767,4.8007,4.8108,4.8781,4.9018,4.9018,4.9018,4.9018,4.9018,4.9018,4.9018,4.9018,4.9018,4.9018,4.9018,4.9018,4.9018,4.9018,4.9018,4.9018,4.9018,4.9018,4.9018,4.9018,4.9018,4.9018,4.9018,4.9018,4.9018,4.9018,4.9018,4.9018,4.9018,4.9018,4.9018,4.9018,4.9018,4.9018,4.9521,5.077,5.1326,5.1646,5.1692,5.185,5.2266,5.306,5.2531,5.2081,5.1793,5.1059,5.0729,5.0802,5.0362,5.0435,2.7959,2.8365,2.9059,2.7537,0.0,0.0,0.0,2.7893,0.0,0.0,0.0,0.0,0.0,0.0,0.0,0.0,0.0,0.0,0.0,0.0,0.0,0.0,0.0,0.0,0.0,0.0,0.0,4.4525,4.4615,4.4615,4.4615,4.4615,4.4615,4.4615,4.4615,4.4615,4.4615,4.4615,4.4615,4.4615,4.4615,4.4615,4.4615,4.4615,4.4615,4.4615,4.4615,4.4615,4.4615,4.4615,4.4615,4.4682,4.5263,4.5568,4.5838,4.7027,4.7534,4.78,4.8545,4.8781,4.8815,4.8951,4.9018,4.9018,4.9018,4.9018,4.9018,4.9018,4.9018,4.9018,4.9018,4.9018,4.9018,4.9018,4.9018,4.9018,4.9018,4.9018,4.9018,4.9018,4.9018,4.9018,4.9018,4.9018,4.9018,4.9018,4.9018,4.9018,4.9018,4.9018,4.9018,4.9018,4.9018,4.9018,4.9018,4.9018,4.9107,4.9406,4.9998,5.0627,5.1215,5.0716,5.1034,5.2312,5.2747,5.295,5.2873,5.1059,5.0398,5.0802,5.1132,5.1353,3.0006,3.0074,3.0446,2.9687,0.0,0.0,0.0,0.0,0.0,0.0,0.0,0.0,0.0,0.0,0.0,0.0,0.0,0.0,0.0,0.0,0.0,0.0,0.0,0.0,0.0,0.0,4.3651,4.4525,4.4615,4.4445,4.4012,4.4012,4.4012,4.4012,4.4012,4.4181,4.4615,4.4615,4.4615,4.4615,4.4615,4.4615,4.4615,4.4615,4.4615,4.4615,4.4615,4.4615,4.4615,4.4615,4.4818,4.5196,4.5568,4.6177,4.6887,4.7601,4.8108,4.8511,4.8883,4.9018,4.9018,4.9018,4.9018,4.9018,4.9018,4.9018,4.9018,4.9018,4.9018,4.9018,4.9018,4.9018,4.9018,4.9018,4.9018,4.9018,4.9018,4.9018,4.9018,4.9018,4.9018,4.9018,4.9018,4.9018,4.9018,4.9018,4.9018,4.9018,4.9018,4.9018,4.9018,4.9018,4.9018,4.9018,4.9018,4.9018,4.9018,4.9018,4.9605,5.0004,5.0033,5.0004,5.039,5.1241,5.2065,5.2725,5.3203,5.2123,5.172,5.2013,5.227,5.2417,0.0,0.0,0.0,0.0,0.0,2.9277,0.0,0.0,0.0,3.0398,0.0,0.0,0.0,0.0,0.0,0.0,0.0,0.0,0.0,0.0,0.0,0.0,0.0,0.0,0.0,0.0,4.2998,4.4288,4.3944,4.3639,4.3409,4.3375,4.3375,4.3375,4.3375,4.3809,4.4615,4.4615,4.4615,4.4615,4.4615,4.4615,4.4615,4.4615,4.4615,4.4615,4.4615,4.4615,4.4615,4.475,4.5229,4.5906,4.5906,4.6752,4.7906,4.8041,4.8511,4.9018,4.9018,4.9018,4.9018,4.9018,4.9018,4.9018,4.9018,4.9018,4.9018,4.9018,4.9018,4.9018,4.9018,4.9018,4.9018,4.9018,4.9018,4.9018,4.9018,4.9018,4.9018,4.9018,4.9018,4.9018,4.9018,4.9018,4.9018,4.9018,4.9018,4.9018,4.9018,4.9018,4.9018,4.9018,4.9018,4.9018,4.9018,4.9018,4.9018,4.9018,4.9521,4.958,4.9015,4.9521,4.989,5.0118,5.1393,5.244,5.3203,5.3203,5.3203,5.3203,5.3203,5.3203,0.0,0.0,0.0,0.0,3.3525,0.0,0.0,0.0,2.8973,2.6826,0.0,0.0,0.0,0.0,0.0,0.0,0.0,0.0,0.0,0.0,0.0,0.0,0.0,0.0,0.0,0.0,0.0,4.3308,4.1719,4.1414,4.3274,4.3375,4.3375,4.3375,4.3375,4.3809,4.4615,4.4615,4.4615,4.4615,4.4615,4.4615,4.4615,4.4615,4.4615,4.4615,4.4615,4.4615,4.4649,4.5297,4.6007,4.6684,4.6684,4.7192,4.7973,4.8646,4.8951,4.9018,4.9018,4.9018,4.9018,4.9018,4.9018,4.9018,4.9018,4.9018,4.9018,4.9018,4.9018,4.9018,4.9018,4.9018,4.9018,4.9018,4.9018,4.9018,4.9018,4.9018,4.9018,4.9018,4.9018,4.9018,4.9018,4.9018,4.9018,4.9018,4.9018,4.9018,4.9018,4.9018,4.9018,4.9018,4.9018,4.9018,4.9018,4.9018,4.9018,4.9018,4.9077,4.9077,4.8984,4.9077,4.9138,4.9168,5.1703,5.3082,5.3203,5.3203,5.3203,5.3203,5.3203,5.3203,0.0,0.0,0.0,0.0,0.0,0.0,0.0,0.0,2.7503,0.0,0.0,0.0,0.0,0.0,0.0,0.0,0.0,0.0,0.0,0.0,0.0,0.0,0.0,0.0,0.0,0.0,0.0,0.0,0.0,4.0257,4.2049,4.2523,4.2963,4.3375,4.3375,4.3809,4.4615,4.4615,4.4615,4.4615,4.4615,4.4615,4.4615,4.4615,4.4615,4.4615,4.4615,4.4852,4.5263,4.5568,4.6413,4.7462,4.7462,4.7902,4.8578,4.8883,4.9018,4.9018,4.9018,4.9018,4.9018,4.9018,4.9018,4.9018,4.9018,4.9018,4.9018,4.9018,4.9018,4.9018,4.9018,4.9018,4.9018,4.9018,4.9018,4.9221,5.0101,5.0304,5.0033,4.9187,4.9018,4.9018,4.9018,4.9018,4.9018,4.9018,4.9018,4.9018,4.9018,4.9018,4.9018,4.9018,4.9018,4.9018,4.9018,4.9018,4.9018,4.9018,4.9018,4.9018,4.9018,4.9018,4.9018,4.9018,5.0146,5.0778,5.0778,5.0778,5.1292,5.2417,5.2937,5.3203,3.8193,0.0,0.0,0.0,0.0,0.0,0.0,0.0,0.0,0.0,0.0,0.0,0.0,0.0,0.0,0.0,0.0,0.0,0.0,0.0,0.0,0.0,0.0,0.0,0.0,0.0,0.0,0.0,0.0,0.0,4.1068,4.1711,4.2422,4.3375,4.3375,4.3809,4.4615,4.4615,4.4615,4.4615,4.4615,4.4615,4.4615,4.4615,4.4615,4.4615,4.479,4.5196,4.5737,4.6143,4.6925,4.7906,4.8108,4.8545,4.9018,4.9018,4.9018,4.9018,4.9018,4.9018,4.9018,4.9018,4.9018,4.9018,4.9018,4.9018,4.9018,4.9018,4.9018,4.9052,4.9255,4.9289,4.9357,4.956,4.9593,4.9864,5.0779,5.1219,5.1183,5.0405,5.0236,5.0236,5.0236,4.956,4.9018,4.9018,4.9018,4.9018,4.9018,4.9018,4.9018,4.9018,4.9018,4.9018,4.9018,4.9018,4.9357,5.0168,5.0236,5.0236,5.0236,5.0236,5.0236,5.0236,5.0236,5.0236,5.0236,5.0209,5.0928,5.2248,5.2694,5.3017,0.0,0.0,0.0,3.4742,0.0,0.0,0.0,0.0,2.977,0.0,0.0,0.0,0.0,0.0,0.0,0.0,0.0,0.0,0.0,0.0,0.0,0.0,0.0,0.0,0.0,0.0,0.0,0.0,0.0,0.0,4.0933,4.1238,4.1914,4.3341,4.3375,4.3809,4.4615,4.4615,4.4615,4.4615,4.4615,4.4615,4.4615,4.4615,4.4615,4.4649,4.5365,4.5703,4.5805,4.7229,4.7838,4.7973,4.8714,4.8984,4.9018,4.9018,4.9018,4.9018,4.9018,4.9018,4.9018,4.9018,4.9018,4.9018,4.9018,4.9018,4.9018,4.9018,4.9018,4.9154,4.9864,5.0067,5.0236,5.098,5.1117,5.1048,5.061,5.1285,5.2232,5.3179,5.3382,5.3382,5.3382,5.0947,4.9018,4.9018,4.9018,4.9018,4.9018,4.9018,4.9018,4.9018,4.9018,4.9018,4.9018,4.9018,5.027,5.3179,5.3382,5.3382,5.3382,5.3382,5.3382,5.3382,5.3382,5.3382,5.3348,5.3284,5.3276,5.3323,5.2534,5.2531,0.0,0.0,4.1644,3.7449,0.0,0.0,0.0,0.0,0.0,0.0,0.0,0.0,0.0,0.0,0.0,0.0,0.0,0.0,0.0,0.0,0.0,0.0,0.0,0.0,0.0,0.0,0.0,0.0,0.0,0.0,0.0,4.1136,4.2388,4.3375,4.391,4.4316,4.4615,4.4615,4.4615,4.4615,4.4615,4.4615,4.4615,4.4615,4.4886,4.5331,4.5602,4.6278,4.7162,4.7669,4.8176,4.8646,4.8917,4.9018,4.9018,4.9018,4.9018,4.9018,4.9018,4.9018,4.9018,4.9018,4.9018,4.9018,4.9018,4.9357,4.9729,4.9729,5.0067,5.0507,5.0777,5.0845,5.0913,5.115,5.1185,5.1286,5.1623,5.1961,5.2469,5.3348,5.3518,5.3518,5.3518,5.2672,5.1995,5.1995,5.1995,5.1995,5.1995,5.1995,5.1995,5.1995,5.1995,5.1995,5.1995,5.1995,5.2401,5.345,5.3518,5.3518,5.3518,5.3518,5.3518,5.3518,5.3518,5.3179,5.2503,5.2486,5.2551,5.2651,5.2354,5.2882,4.3572,4.3876,0.0,0.0,3.8531,0.0,3.2645,0.0,0.0,0.0,0.0,0.0,0.0,0.0,0.0,0.0,0.0,0.0,0.0,0.0,0.0,0.0,0.0,0.0,0.0,0.0,3.0871,3.2192,0.0,0.0,0.0,0.0,4.2083,4.3341,4.4181,4.4615,4.4615,4.4615,4.4615,4.4615,4.4615,4.4615,4.4615,4.4886,4.5229,4.5737,4.6278,4.7022,4.7906,4.8206,4.8578,4.9018,4.9018,4.9018,4.9018,4.9018,4.9018,4.9018,4.9018,4.9018,4.9018,4.9018,4.9187,4.939,4.939,4.9898,5.0473,5.0473,5.0845,5.1285,5.1522,5.1589,5.1691,5.1961,5.2029,5.2164,5.2638,5.2739,5.2875,5.3416,5.3518,5.3518,5.3518,5.3518,5.3518,5.3518,5.3518,5.3518,5.3518,5.3518,5.3518,5.3518,5.3518,5.3518,5.3518,5.3518,5.3518,5.3518,5.3518,5.3518,5.3518,5.3518,5.3518,5.3518,5.3518,5.3179,5.2536,5.2536,5.2628,5.2726,5.3,5.362]}]]